[[{"header":{"parameterUnit":"m.s-1","parameterCategory":1,"la1":30.6,"la2":28.766,"lo1":-90.7593,"lo2":-88.6598,"dx":0.0162,"dy":0.0183,"nx":116,"ny":114,"refTime":"2022-11-09T06:00:00:Z","depth":0,"parameterNumber":2,"parameterNumberName":"U-component_of_WINDS"},"data":[0.0,0.0,0.0,0.0,0.0,0.0,0.0,0.0,0.0,0.0,0.0,0.0,0.0,0.0,0.0,0.0,0.0,0.0,0.0,0.0,0.0,0.0,0.0,0.0,0.0,0.0,0.0,0.0,0.0,0.0,0.0,0.0,0.0,0.0,0.0,0.0,0.0,0.0,0.0,0.0,0.0,0.0,0.0,0.0,0.0,0.0,0.0,0.0,0.0,0.0,0.0,0.0,0.0,0.0,0.0,0.0,0.0,0.0,0.0,0.0,0.0,0.0,0.0,0.0,0.0,0.0,0.0,0.0,0.0,0.0,0.0,0.0,0.0,0.0,0.0,0.0,0.0,0.0,0.0,0.0,0.0,0.0,0.0,0.0,0.0,0.0,0.0,0.0,0.0,0.0,0.0,0.0,0.0,0.0,0.0,0.0,0.0,0.0,0.0,0.0,0.0,0.0,0.0,0.0,0.0,0.0,0.0,0.0,0.0,0.0,0.0,0.0,0.0,0.0,0.0,0.0,0.0,0.0,0.0,0.0,0.0,0.0,0.0,0.0,0.0,0.0,0.0,0.0,0.0,0.0,0.0,0.0,0.0,0.0,0.0,0.0,0.0,0.0,0.0,0.0,0.0,0.0,0.0,0.0,0.0,0.0,0.0,0.0,0.0,0.0,0.0,0.0,0.0,0.0,0.0,0.0,0.0,0.0,0.0,0.0,0.0,0.0,0.0,0.0,0.0,0.0,0.0,0.0,0.0,0.0,0.0,0.0,0.0,0.0,0.0,0.0,0.0,0.0,0.0,0.0,0.0,0.0,0.0,0.0,0.0,0.0,0.0,0.0,0.0,0.0,0.0,0.0,0.0,0.0,0.0,0.0,0.0,0.0,0.0,0.0,0.0,0.0,0.0,0.0,0.0,0.0,0.0,0.0,0.0,0.0,0.0,0.0,0.0,0.0,0.0,0.0,0.0,0.0,0.0,0.0,0.0,0.0,0.0,0.0,0.0,0.0,0.0,0.0,0.0,0.0,0.0,0.0,0.0,0.0,0.0,0.0,0.0,0.0,0.0,0.0,0.0,0.0,0.0,0.0,0.0,0.0,0.0,0.0,0.0,0.0,0.0,0.0,0.0,0.0,0.0,0.0,0.0,0.0,0.0,0.0,0.0,0.0,0.0,0.0,0.0,0.0,0.0,0.0,0.0,0.0,0.0,0.0,0.0,0.0,0.0,0.0,0.0,0.0,0.0,0.0,0.0,0.0,0.0,0.0,0.0,0.0,0.0,0.0,0.0,0.0,0.0,0.0,0.0,0.0,0.0,0.0,0.0,0.0,0.0,0.0,0.0,0.0,0.0,0.0,0.0,0.0,0.0,0.0,0.0,0.0,0.0,0.0,0.0,0.0,0.0,0.0,0.0,0.0,0.0,0.0,0.0,0.0,0.0,0.0,0.0,0.0,0.0,0.0,0.0,0.0,0.0,0.0,0.0,0.0,0.0,0.0,0.0,0.0,0.0,0.0,0.0,0.0,0.0,0.0,0.0,0.0,0.0,0.0,0.0,0.0,0.0,0.0,0.0,0.0,0.0,0.0,0.0,0.0,0.0,0.0,0.0,0.0,0.0,0.0,0.0,0.0,0.0,0.0,0.0,0.0,0.0,0.0,0.0,0.0,0.0,0.0,0.0,0.0,0.0,0.0,0.0,0.0,0.0,0.0,0.0,0.0,0.0,0.0,0.0,0.0,0.0,0.0,0.0,0.0,0.0,0.0,0.0,0.0,0.0,0.0,0.0,0.0,0.0,0.0,0.0,0.0,0.0,0.0,0.0,0.0,0.0,0.0,0.0,0.0,0.0,0.0,0.0,0.0,0.0,0.0,0.0,0.0,0.0,0.0,0.0,0.0,0.0,0.0,0.0,0.0,0.0,0.0,0.0,0.0,0.0,0.0,0.0,0.0,0.0,0.0,0.0,0.0,0.0,0.0,0.0,0.0,0.0,0.0,0.0,0.0,0.0,0.0,0.0,0.0,0.0,0.0,0.0,0.0,0.0,0.0,0.0,0.0,0.0,0.0,0.0,0.0,0.0,0.0,0.0,0.0,0.0,0.0,0.0,0.0,0.0,0.0,0.0,0.0,0.0,0.0,0.0,0.0,0.0,0.0,0.0,0.0,0.0,0.0,0.0,0.0,0.0,0.0,0.0,0.0,0.0,0.0,0.0,0.0,0.0,0.0,0.0,0.0,0.0,0.0,0.0,0.0,0.0,0.0,0.0,0.0,0.0,0.0,0.0,0.0,0.0,0.0,0.0,0.0,0.0,0.0,0.0,0.0,0.0,0.0,0.0,0.0,0.0,0.0,0.0,0.0,0.0,0.0,0.0,0.0,0.0,0.0,0.0,0.0,0.0,0.0,0.0,0.0,0.0,0.0,0.0,0.0,0.0,0.0,0.0,0.0,0.0,0.0,0.0,0.0,0.0,0.0,0.0,0.0,0.0,0.0,0.0,0.0,0.0,0.0,0.0,0.0,0.0,0.0,0.0,0.0,0.0,0.0,0.0,0.0,0.0,0.0,0.0,0.0,0.0,0.0,0.0,0.0,0.0,0.0,0.0,0.0,0.0,0.0,0.0,0.0,0.0,0.0,0.0,0.0,0.0,0.0,0.0,0.0,0.0,0.0,0.0,0.0,0.0,0.0,0.0,0.0,0.0,0.0,0.0,0.0,0.0,0.0,0.0,0.0,0.0,0.0,0.0,0.0,0.0,0.0,0.0,0.0,0.0,0.0,0.0,0.0,0.0,0.0,0.0,0.0,0.0,0.0,0.0,0.0,0.0,0.0,0.0,0.0,0.0,0.0,0.0,0.0,0.0,0.0,0.0,0.0,0.0,0.0,0.0,0.0,0.0,0.0,0.0,0.0,0.0,0.0,0.0,0.0,0.0,0.0,0.0,0.0,0.0,0.0,0.0,0.0,0.0,0.0,0.0,0.0,0.0,0.0,0.0,0.0,0.0,0.0,0.0,0.0,0.0,0.0,0.0,0.0,0.0,0.0,0.0,0.0,0.0,0.0,0.0,0.0,0.0,0.0,0.0,0.0,0.0,0.0,0.0,0.0,0.0,0.0,0.0,0.0,0.0,0.0,0.0,0.0,0.0,0.0,0.0,0.0,0.0,0.0,0.0,0.0,0.0,0.0,0.0,0.0,0.0,0.0,0.0,0.0,0.0,0.0,0.0,0.0,0.0,0.0,0.0,0.0,0.0,0.0,0.0,0.0,0.0,0.0,0.0,0.0,0.0,0.0,0.0,0.0,0.0,0.0,0.0,0.0,0.0,0.0,0.0,0.0,0.0,0.0,0.0,0.0,0.0,0.0,0.0,0.0,0.0,0.0,0.0,0.0,0.0,0.0,0.0,0.0,0.0,0.0,0.0,0.0,0.0,0.0,0.0,0.0,0.0,0.0,0.0,0.0,0.0,0.0,0.0,0.0,0.0,0.0,0.0,0.0,0.0,0.0,0.0,0.0,0.0,0.0,0.0,0.0,0.0,0.0,0.0,0.0,0.0,0.0,0.0,0.0,0.0,0.0,0.0,0.0,0.0,0.0,0.0,0.0,0.0,0.0,0.0,0.0,0.0,0.0,0.0,0.0,0.0,0.0,0.0,0.0,0.0,0.0,0.0,0.0,0.0,0.0,0.0,0.0,0.0,0.0,0.0,0.0,0.0,0.0,0.0,0.0,0.0,0.0,0.0,0.0,0.0,0.0,0.0,0.0,0.0,0.0,0.0,0.0,0.0,0.0,0.0,0.0,0.0,0.0,0.0,0.0,0.0,0.0,0.0,0.0,0.0,0.0,0.0,0.0,0.0,0.0,0.0,0.0,0.0,0.0,0.0,0.0,0.0,0.0,0.0,0.0,0.0,0.0,0.0,0.0,0.0,0.0,0.0,0.0,0.0,0.0,0.0,0.0,0.0,0.0,0.0,0.0,0.0,0.0,0.0,0.0,0.0,0.0,0.0,0.0,0.0,0.0,0.0,0.0,0.0,0.0,0.0,0.0,0.0,0.0,0.0,0.0,0.0,0.0,0.0,0.0,0.0,0.0,0.0,0.0,0.0,0.0,0.0,0.0,0.0,0.0,0.0,0.0,0.0,0.0,0.0,0.0,0.0,0.0,0.0,0.0,0.0,0.0,0.0,0.0,0.0,0.0,0.0,0.0,0.0,0.0,0.0,0.0,0.0,0.0,0.0,0.0,0.0,0.0,0.0,0.0,0.0,0.0,0.0,0.0,0.0,0.0,0.0,0.0,0.0,0.0,0.0,0.0,0.0,0.0,0.0,0.0,0.0,0.0,0.0,0.0,0.0,0.0,0.0,0.0,0.0,0.0,0.0,0.0,0.0,0.0,0.0,0.0,0.0,0.0,0.0,0.0,0.0,0.0,0.0,0.0,0.0,0.0,0.0,0.0,0.0,0.0,0.0,0.0,0.0,0.0,0.0,0.0,0.0,0.0,0.0,0.0,0.0,0.0,0.0,0.0,0.0,0.0,0.0,0.0,0.0,0.0,0.0,0.0,0.0,0.0,0.0,0.0,0.0,0.0,0.0,0.0,0.0,0.0,0.0,0.0,0.0,0.0,0.0,0.0,0.0,0.0,0.0,0.0,0.0,0.0,0.0,0.0,0.0,0.0,0.0,0.0,0.0,0.0,0.0,0.0,0.0,0.0,0.0,0.0,0.0,0.0,0.0,0.0,0.0,0.0,0.0,0.0,0.0,0.0,0.0,0.0,0.0,0.0,0.0,0.0,0.0,0.0,0.0,0.0,0.0,0.0,0.0,0.0,0.0,0.0,0.0,0.0,0.0,0.0,0.0,0.0,0.0,0.0,0.0,0.0,0.0,0.0,0.0,0.0,0.0,0.0,0.0,0.0,0.0,0.0,0.0,0.0,0.0,0.0,0.0,0.0,0.0,0.0,0.0,0.0,0.0,0.0,0.0,0.0,0.0,0.0,0.0,0.0,0.0,0.0,0.0,0.0,0.0,0.0,0.0,0.0,0.0,0.0,0.0,0.0,0.0,0.0,0.0,0.0,0.0,0.0,0.0,0.0,0.0,0.0,0.0,0.0,0.0,0.0,0.0,0.0,0.0,0.0,0.0,0.0,0.0,0.0,0.0,0.0,0.0,0.0,0.0,0.0,0.0,0.0,0.0,0.0,0.0,0.0,0.0,0.0,0.0,0.0,0.0,0.0,0.0,0.0,0.0,0.0,0.0,0.0,0.0,0.0,0.0,0.0,0.0,0.0,0.0,0.0,0.0,0.0,0.0,0.0,0.0,0.0,0.0,0.0,0.0,0.0,0.0,0.0,0.0,0.0,0.0,0.0,0.0,0.0,0.0,0.0,0.0,0.0,0.0,0.0,0.0,0.0,0.0,0.0,0.0,0.0,0.0,0.0,0.0,0.0,0.0,0.0,0.0,0.0,0.0,0.0,0.0,0.0,0.0,0.0,0.0,0.0,0.0,0.0,0.0,0.0,0.0,0.0,0.0,0.0,0.0,0.0,0.0,0.0,0.0,0.0,0.0,0.0,0.0,0.0,0.0,0.0,0.0,0.0,0.0,0.0,0.0,0.0,0.0,0.0,0.0,0.0,0.0,0.0,0.0,0.0,0.0,0.0,0.0,0.0,0.0,0.0,0.0,0.0,0.0,0.0,0.0,0.0,0.0,0.0,0.0,0.0,0.0,0.0,0.0,0.0,0.0,0.0,0.0,0.0,0.0,0.0,0.0,0.0,0.0,0.0,0.0,0.0,0.0,0.0,0.0,0.0,0.0,0.0,0.0,0.0,0.0,0.0,0.0,0.0,0.0,0.0,0.0,0.0,0.0,0.0,0.0,0.0,0.0,0.0,0.0,0.0,0.0,0.0,0.0,0.0,0.0,0.0,0.0,0.0,0.0,0.0,0.0,0.0,0.0,0.0,0.0,0.0,0.0,0.0,0.0,0.0,0.0,0.0,0.0,0.0,0.0,0.0,0.0,0.0,0.0,0.0,0.0,0.0,0.0,0.0,0.0,0.0,0.0,0.0,0.0,0.0,0.0,0.0,0.0,0.0,0.0,0.0,0.0,0.0,0.0,0.0,0.0,0.0,5.8047,0.0,0.0,0.0,0.0,0.0,0.0,0.0,0.0,0.0,0.0,0.0,0.0,0.0,0.0,0.0,0.0,0.0,0.0,0.0,0.0,0.0,0.0,0.0,0.0,4.2295,4.2782,4.2641,4.3092,0.0,0.0,0.0,0.0,0.0,0.0,0.0,4.1155,4.153,4.1992,4.247,4.4636,4.7075,4.9676,4.7861,4.6138,4.4604,0.0,0.0,0.0,0.0,0.0,0.0,0.0,0.0,0.0,0.0,0.0,0.0,0.0,0.0,0.0,0.0,0.0,0.0,0.0,0.0,0.0,0.0,0.0,0.0,0.0,0.0,0.0,0.0,0.0,0.0,0.0,0.0,0.0,0.0,0.0,0.0,0.0,0.0,0.0,0.0,0.0,0.0,0.0,0.0,0.0,0.0,0.0,0.0,0.0,0.0,0.0,0.0,0.0,0.0,0.0,0.0,0.0,0.0,0.0,0.0,0.0,0.0,0.0,0.0,0.0,0.0,0.0,0.0,0.0,0.0,0.0,5.7422,0.0,0.0,0.0,0.0,0.0,0.0,0.0,0.0,0.0,0.0,0.0,0.0,0.0,0.0,0.0,0.0,0.0,0.0,0.0,0.0,0.0,4.2129,4.2282,4.3081,4.3541,4.3457,4.3688,4.3688,4.3401,4.341,0.0,0.0,0.0,0.0,4.3381,4.3376,4.3611,4.4128,4.7921,5.1058,5.3557,5.4377,5.2851,4.9335,4.661,0.0,0.0,0.0,0.0,0.0,0.0,0.0,0.0,0.0,0.0,0.0,0.0,0.0,0.0,0.0,0.0,0.0,0.0,0.0,0.0,0.0,0.0,0.0,0.0,0.0,0.0,0.0,0.0,0.0,0.0,0.0,0.0,0.0,0.0,0.0,0.0,0.0,0.0,0.0,0.0,0.0,0.0,0.0,0.0,0.0,0.0,0.0,0.0,0.0,0.0,0.0,0.0,0.0,0.0,0.0,0.0,0.0,0.0,0.0,0.0,0.0,0.0,0.0,6.289,6.3711,6.5234,6.5234,6.5703,6.6367,6.293,6.3203,6.5547,0.0,0.0,0.0,0.0,0.0,0.0,0.0,0.0,0.0,0.0,0.0,0.0,0.0,0.0,0.0,0.0,0.0,0.0,0.0,0.0,4.2304,4.2965,4.3811,4.4338,4.432,4.503,4.5201,4.453,4.4491,0.0,0.0,0.0,4.3705,4.447,4.4491,4.5586,4.7812,5.2863,5.5966,5.7218,5.8085,5.8203,5.75,5.4136,5.0933,4.8047,0.0,0.0,0.0,0.0,0.0,0.0,0.0,0.0,0.0,0.0,0.0,0.0,0.0,0.0,0.0,0.0,0.0,0.0,0.0,0.0,0.0,0.0,0.0,0.0,0.0,0.0,0.0,0.0,0.0,0.0,0.0,0.0,0.0,0.0,0.0,0.0,0.0,0.0,0.0,0.0,0.0,5.3008,5.8242,0.0,0.0,0.0,0.0,0.0,0.0,0.0,0.0,0.0,0.0,0.0,0.0,0.0,6.1523,6.6015,6.668,6.8945,7.2734,7.2734,7.3242,7.4219,7.4219,7.4687,7.5312,7.1836,0.0,6.7773,6.6758,0.0,0.0,0.0,0.0,0.0,0.0,0.0,0.0,0.0,0.0,0.0,0.0,0.0,0.0,0.0,0.0,0.0,0.0,0.0,0.0,0.0,4.5624,4.6737,4.6737,4.7994,4.8234,4.6902,4.6824,0.0,0.0,4.4822,4.4978,4.5375,4.7291,5.0307,5.4422,5.6786,5.8672,6.0078,6.1914,6.2539,6.2031,6.0976,5.75,5.2422,5.2461,0.0,0.0,0.0,0.0,0.0,0.0,0.0,0.0,0.0,0.0,0.0,0.0,0.0,0.0,0.0,0.0,0.0,0.0,0.0,0.0,0.0,0.0,0.0,0.0,0.0,0.0,0.0,0.0,0.0,0.0,0.0,0.0,0.0,0.0,0.0,0.0,0.0,0.0,0.0,5.1836,5.6797,6.1523,6.0039,5.8047,0.0,0.0,0.0,0.0,0.0,0.0,0.0,0.0,0.0,6.414,6.4609,6.7109,7.1914,7.2344,7.3945,7.6797,7.6797,7.7226,7.8047,7.8047,7.8242,7.8515,7.6992,7.5703,7.4453,7.1523,6.9805,6.875,0.0,0.0,0.0,0.0,6.0937,6.1133,0.0,0.0,0.0,0.0,0.0,0.0,0.0,0.0,0.0,0.0,0.0,0.0,4.5492,4.7908,4.9524,4.9563,5.0923,5.1055,4.9336,4.9062,4.8242,4.6719,4.6445,4.6445,4.6641,5.0273,5.4414,5.9062,5.9805,6.1055,6.2734,6.4922,6.5703,6.5351,6.6172,6.2969,5.6914,5.6719,5.4258,5.0469,0.0,0.0,0.0,0.0,0.0,0.0,0.0,0.0,0.0,0.0,0.0,0.0,0.0,0.0,0.0,0.0,0.0,0.0,0.0,0.0,0.0,0.0,0.0,0.0,0.0,0.0,0.0,0.0,0.0,0.0,0.0,0.0,0.0,0.0,0.0,0.0,0.0,5.5625,5.9922,6.4414,6.3281,6.1875,0.0,0.0,0.0,0.0,0.0,0.0,6.3594,6.3906,6.5898,7.0039,7.0586,7.2695,7.6523,7.6758,7.7539,7.8828,7.8828,7.9258,8.0039,8.0039,8.0156,8.0351,8.0351,8.0351,8.0039,7.5742,7.3594,7.293,7.2031,6.9765,6.6953,6.6953,6.6797,6.6719,0.0,0.0,0.0,0.0,0.0,0.0,0.0,0.0,0.0,0.0,0.0,4.7314,4.8194,5.0623,5.2264,5.2381,5.3164,5.2969,5.1367,5.0547,4.9726,4.8789,4.7969,4.7891,4.8711,5.2891,5.6445,5.918,6.1601,6.3711,6.543,6.6406,6.7265,6.8047,6.8867,6.6289,6.1328,6.0508,5.8125,5.4765,5.2266,0.0,0.0,0.0,0.0,0.0,0.0,0.0,0.0,0.0,0.0,0.0,0.0,0.0,0.0,0.0,0.0,0.0,0.0,0.0,0.0,0.0,0.0,0.0,0.0,0.0,0.0,0.0,0.0,0.0,0.0,0.0,0.0,0.0,0.0,0.0,0.0,0.0,0.0,6.6172,6.875,0.0,0.0,0.0,0.0,6.2734,6.2773,6.4687,6.8867,6.9844,7.1875,7.539,7.7109,7.8125,7.8359,7.914,7.9531,7.9648,7.9648,8.0078,8.0937,8.0937,8.1406,8.2187,8.2187,8.2187,8.2031,8.0117,7.9297,7.8906,7.5664,7.4258,7.4062,7.4062,7.3555,7.332,0.0,0.0,0.0,4.2741,4.249,4.2427,4.2772,4.3233,4.3778,4.4491,4.6646,4.8469,4.9374,5.2344,5.4492,5.5117,5.6445,5.6562,5.4844,5.3437,5.1953,5.0469,4.9141,5.0391,5.4609,5.6758,5.9609,6.332,6.4805,6.582,6.6484,6.8437,6.9492,6.9805,7.0117,6.9219,6.7344,6.539,6.2578,5.9297,5.7773,5.4492,0.0,0.0,0.0,0.0,0.0,0.0,0.0,0.0,0.0,0.0,0.0,0.0,0.0,0.0,0.0,0.0,0.0,0.0,0.0,0.0,0.0,0.0,0.0,0.0,0.0,0.0,0.0,0.0,0.0,0.0,0.0,0.0,0.0,0.0,0.0,0.0,0.0,6.6406,6.8633,0.0,6.8594,6.8281,6.8281,6.875,7.0859,7.3281,7.5937,7.6328,7.707,7.832,7.8945,7.9531,8.0117,8.039,8.082,8.1367,8.1367,8.1523,8.1836,8.1836,8.1719,8.1445,8.1445,8.1133,8.0586,7.9961,7.9687,7.9531,7.7773,7.6758,7.6289,7.6289,7.6094,7.5976,0.0,0.0,0.0,4.354,4.331,4.331,4.3596,4.4162,4.4877,4.5801,4.8309,5.0469,5.1641,5.4922,5.7265,5.7812,5.9492,5.9492,5.7187,5.5898,5.4328,5.222,5.1745,5.3906,5.9062,6.0312,6.2734,6.6484,6.7617,6.8476,6.9101,7.0781,7.1719,7.2031,7.2031,7.1836,7.1445,6.9453,6.6797,6.375,6.1992,5.8203,5.3398,0.0,0.0,0.0,0.0,0.0,0.0,0.0,0.0,0.0,0.0,0.0,0.0,0.0,0.0,0.0,0.0,0.0,0.0,0.0,0.0,0.0,0.0,0.0,0.0,0.0,0.0,0.0,0.0,0.0,0.0,0.0,0.0,0.0,0.0,0.0,6.4531,6.7422,7.0039,7.1719,7.1992,7.2344,7.3125,7.4492,7.6758,7.8515,7.9648,7.9961,8.0156,8.0156,8.0429,8.0859,8.1445,8.1445,8.1719,8.2304,8.2617,8.2578,8.2304,8.2617,8.2265,8.1445,8.1445,8.1094,8.0547,8.0273,8.0156,8.0078,7.9219,7.8555,7.8047,7.8047,7.7851,7.7617,0.0,0.0,4.4255,4.3451,4.3286,4.3573,4.441,4.4641,4.5712,4.8355,5.0976,5.3281,5.5156,5.8398,6.0469,6.0469,6.2031,6.1601,5.8242,5.7851,5.6647,5.4167,5.5815,5.8359,6.1758,6.3515,6.5703,6.832,6.9961,7.164,7.3281,7.332,7.3789,7.4609,7.4609,7.414,7.3281,7.2422,7.0625,6.8047,6.4609,6.1133,5.7695,0.0,0.0,0.0,0.0,0.0,0.0,0.0,0.0,0.0,0.0,0.0,0.0,0.0,0.0,0.0,0.0,0.0,0.0,0.0,0.0,0.0,0.0,0.0,0.0,0.0,0.0,0.0,0.0,0.0,0.0,0.0,0.0,0.0,6.1445,6.4883,6.7734,6.9531,7.3476,7.6367,7.7187,7.8047,7.8867,7.9687,7.9726,7.9765,7.9765,8.0586,8.1054,8.1054,8.1875,8.2344,8.2344,8.2383,8.2383,8.2383,8.3203,8.3164,8.2383,8.3203,8.3086,8.2265,8.2265,8.2226,8.2148,8.1328,8.0976,8.0898,8.0039,7.9687,7.9687,7.9687,7.9219,7.8437,4.5781,4.557,4.5349,4.512,4.5086,4.5177,4.5423,4.5611,4.6417,4.8437,5.1016,5.3594,5.5976,5.9297,6.1601,6.2226,6.3281,6.2969,6.0664,5.929,5.7728,5.584,5.9173,6.2187,6.4492,6.625,6.8398,7.0976,7.2031,7.2812,7.332,7.3945,7.4375,7.4609,7.4609,7.4453,7.418,7.332,7.2539,7.164,6.8789,6.5195,6.1484,0.0,0.0,0.0,0.0,0.0,0.0,0.0,0.0,0.0,0.0,0.0,0.0,0.0,0.0,0.0,0.0,0.0,0.0,0.0,0.0,0.0,0.0,0.0,0.0,0.0,0.0,0.0,0.0,0.0,0.0,0.0,0.0,6.6719,6.6445,6.8828,7.1719,7.4726,7.7187,7.875,7.8984,7.9219,7.9726,8.0586,8.0625,8.0937,8.1562,8.1797,8.1953,8.1953,8.2773,8.3242,8.3242,8.3867,8.4179,8.4179,8.3789,8.3476,8.3242,8.2851,8.2187,8.1367,8.1367,8.1015,8.039,8.0156,8.0078,8.0039,7.9805,7.9687,7.9687,7.9687,7.957,7.9336,4.6036,4.5911,4.5796,4.5796,4.5834,4.5866,4.593,4.6055,4.7187,5.0,5.2031,5.4492,5.7812,6.0273,6.2031,6.293,6.3086,6.2527,6.1049,5.9658,5.9444,6.0663,6.3164,6.5547,6.7695,6.9453,7.125,7.3086,7.3945,7.457,7.4922,7.5469,7.5703,7.5703,7.5703,7.5508,7.5117,7.4609,7.418,7.3672,7.1797,6.8476,6.4609,6.4219,6.1445,5.7773,5.8242,5.789,5.6914,5.539,0.0,0.0,0.0,0.0,0.0,0.0,0.0,0.0,0.0,0.0,0.0,0.0,0.0,0.0,0.0,0.0,0.0,0.0,0.0,0.0,0.0,0.0,0.0,0.0,6.7812,7.1015,7.1836,7.3242,7.4922,7.6953,7.8398,7.9336,7.9687,8.0039,8.0625,8.1484,8.1523,8.1758,8.2265,8.2656,8.2851,8.2851,8.3359,8.3594,8.3594,8.375,8.3828,8.3828,8.3672,8.3398,8.3047,8.3281,8.289,0.0,8.2461,8.2344,8.1836,8.1484,8.1328,0.0,0.0,0.0,0.0,0.0,7.8984,7.8633,4.5957,4.5863,4.5796,4.5796,4.588,4.5956,4.6088,4.6211,4.7851,5.2148,5.3476,5.5625,5.9922,6.1289,6.2187,6.3086,6.2223,6.1339,6.0517,6.0132,6.2005,6.664,6.7265,6.8633,7.1094,7.2656,7.3906,7.4883,7.5664,7.6445,7.7187,7.7187,7.7187,7.7187,7.7187,7.6758,7.6055,7.5937,7.5469,7.4687,7.3789,7.1055,6.7383,6.6523,6.375,6.0351,6.0469,5.9922,5.914,5.875,0.0,0.0,0.0,0.0,0.0,0.0,0.0,0.0,0.0,0.0,0.0,0.0,0.0,0.0,0.0,0.0,0.0,0.0,0.0,0.0,0.0,0.0,0.0,0.0,6.9297,7.289,7.668,7.7265,7.7344,7.7344,7.8125,7.8906,7.9648,8.039,8.1211,8.2109,8.2148,8.2187,8.2304,0.0,0.0,0.0,0.0,8.3594,8.3594,8.3047,8.2734,8.2734,8.3515,8.3476,8.2773,8.4258,8.4492,8.3789,8.457,8.4844,8.4687,8.3906,8.3554,8.3203,8.0898,8.0,7.9922,7.918,7.8437,7.7773,4.6075,4.5975,4.5873,4.5873,4.5998,4.6078,4.6093,4.6211,4.7851,5.2148,5.3476,5.5625,5.9922,6.1797,6.3086,6.3984,6.3214,6.2605,6.233,6.4704,6.6628,6.7617,6.9805,7.1914,7.3789,7.418,7.5117,7.6719,7.6875,7.7031,7.7187,7.7187,7.7187,7.7187,7.7187,7.7109,7.6914,7.6211,7.5781,7.5586,7.4687,7.3008,7.0937,7.0039,6.8789,6.7578,6.8242,6.793,6.6758,6.3984,6.3164,6.2695,5.9023,5.789,0.0,0.0,0.0,0.0,0.0,0.0,0.0,0.0,0.0,0.0,0.0,0.0,0.0,0.0,0.0,0.0,0.0,0.0,0.0,7.0508,7.4258,7.7031,7.7187,7.7812,7.8242,7.8242,7.8984,7.9531,7.9687,7.9844,8.0312,8.1172,8.125,8.1562,8.2265,8.2461,8.2539,8.2539,8.3242,8.3594,8.3594,8.4844,8.5469,8.5469,0.0,0.0,8.5429,8.5078,8.4804,8.4648,8.4844,8.4492,8.3828,8.3672,8.3203,8.25,8.1992,8.1797,8.1797,8.1601,8.1445,8.1328,4.6211,4.6084,4.5996,4.5996,4.6058,4.6133,4.6172,4.625,4.7539,5.1016,5.2187,5.4023,5.7461,5.9023,6.0156,6.1015,6.1804,6.258,6.3408,6.6223,6.8711,7.0508,7.2344,7.3906,7.5234,7.5664,7.6328,7.7187,7.7187,7.7187,7.7187,7.7187,7.7187,7.7187,7.7187,7.7187,7.7187,7.6758,7.6562,7.6484,7.5586,7.4726,7.3828,7.25,7.1211,7.0156,7.0547,7.043,6.9805,6.8086,6.7773,6.7695,6.5117,6.3437,6.164,0.0,0.0,0.0,0.0,0.0,0.0,0.0,0.0,0.0,0.0,0.0,0.0,0.0,0.0,6.5078,6.5508,0.0,7.1484,7.1914,7.5273,7.7695,7.7265,7.7969,7.8359,7.789,7.8594,7.9258,7.9648,8.0078,8.0703,8.1601,8.164,8.1836,8.2265,8.2695,8.3164,8.3594,8.4023,8.4453,8.4883,8.5312,8.5547,8.5547,8.5547,8.5547,8.5547,8.5547,8.5547,8.5547,8.5547,8.5312,8.4844,8.3945,8.3086,8.2304,8.2304,8.2031,8.164,8.164,8.1367,8.1015,4.6289,4.6211,4.6133,4.6133,4.6133,4.6172,4.6289,4.6289,4.7226,4.9844,5.0742,5.2226,5.5,5.5937,5.664,5.7344,6.039,6.2734,6.3828,6.6914,7.0156,7.3398,7.4219,7.5078,7.6133,7.6836,7.7187,7.7187,7.7187,7.7187,7.7187,7.7187,7.7187,7.7187,7.7187,7.7187,7.7187,7.7187,7.7187,7.7148,7.6445,7.5937,7.5508,7.4101,7.2578,7.1172,7.1015,7.0625,7.0273,7.0781,7.1094,7.1211,7.1015,6.8594,6.5039,6.0898,5.7344,0.0,0.0,0.0,0.0,0.0,0.0,0.0,0.0,6.5625,6.6719,6.6797,6.793,6.8672,6.7969,7.0664,7.3008,7.3008,7.5508,7.7461,7.7461,7.8203,7.8476,7.7773,7.832,7.8984,7.9648,8.0351,8.1094,8.1992,8.2187,8.2383,8.2539,8.3398,8.4179,8.4883,8.4883,8.5234,8.5937,8.5429,8.5156,8.5156,8.5312,8.539,8.5429,8.6289,8.6601,8.6445,8.6289,8.6211,8.6094,8.4492,8.3437,8.2812,8.2812,8.2383,8.1719,8.1367,8.082,8.0195,4.6289,4.6289,4.6289,4.6289,4.6289,4.6289,4.6289,4.6289,4.7226,4.9844,5.0273,5.1601,5.4922,5.539,5.5469,5.5586,6.1445,6.457,6.3203,6.8398,7.2422,7.4375,7.4531,7.5351,7.7031,7.7148,7.7187,7.7187,7.7187,7.7187,7.7187,7.7187,7.7187,7.7187,7.7187,7.7187,7.7187,7.7187,7.7187,7.7187,7.7109,7.6133,7.4726,7.4531,7.3867,7.289,7.2148,7.039,6.8828,7.1094,7.043,6.8984,7.1172,6.9492,6.6055,6.2461,5.9531,5.6719,5.3203,5.539,5.8711,5.9219,6.2031,6.5625,0.0,7.0586,7.2109,7.5156,7.5898,7.6015,7.5937,7.6289,7.6601,7.6601,7.7617,7.8359,7.8359,7.9062,7.9531,7.9414,7.9492,7.9609,7.9687,7.9805,8.0195,8.1094,8.1875,8.2656,8.3398,8.4297,8.4804,8.4883,8.4883,8.4961,8.5039,8.5703,8.6054,8.6054,8.6836,8.7226,8.7226,8.8047,8.8047,8.7304,8.6523,8.6211,8.6133,8.5156,8.4687,8.4609,8.4609,8.4531,8.4297,8.2734,8.2109,8.1992,4.6289,4.6289,4.6289,4.6289,4.6289,4.6289,4.6289,4.6289,4.668,4.7773,4.8359,4.9219,5.0664,5.1719,5.2734,5.3711,5.918,6.2695,6.2969,6.8633,7.2539,7.3789,7.4805,7.5703,7.6445,7.6953,7.7187,7.7187,7.7187,7.7187,7.7187,7.7187,7.7187,7.7187,7.7187,7.7187,7.7187,7.7187,7.7187,7.7187,7.7187,7.6445,7.5312,7.4805,7.4375,7.3672,7.082,6.9101,0.0,6.9414,6.9062,6.8633,7.1211,6.9648,6.6289,6.3242,6.0234,5.8125,5.918,6.0039,6.1992,6.7539,6.9492,7.0859,7.3828,7.5156,7.6055,7.6992,7.7617,7.7812,7.7305,7.7187,7.7383,7.7851,7.8242,7.8672,7.914,7.9922,8.0469,8.0469,8.1367,8.1562,8.0547,8.1367,8.2109,8.25,8.332,8.3984,8.4336,8.4687,8.5117,8.5625,8.5664,8.5898,8.6406,8.7226,8.7656,8.7656,8.8554,8.8945,8.8945,8.8789,8.7969,8.6719,8.6367,8.5898,8.5429,8.5039,8.4883,8.4883,8.4883,8.4883,8.4804,8.4062,8.3828,8.3828,4.6289,4.6289,4.6289,4.6289,4.6289,4.6289,4.6289,4.6289,4.6289,4.6289,4.6836,4.7344,4.7578,4.8945,5.043,5.1875,5.6289,5.9922,6.2148,6.75,7.1289,7.2851,7.4375,7.539,7.5898,7.6523,7.6953,7.7187,7.7187,7.7187,7.7226,7.7461,7.7578,7.7578,7.7773,7.789,7.789,7.789,7.7773,7.7578,7.7578,7.6875,7.582,7.5195,7.4062,7.2422,6.9258,6.7656,6.707,6.7031,6.625,6.582,6.8828,6.7265,6.4022,6.2228,5.9748,5.8476,6.2734,6.3867,6.5742,7.3594,7.5312,7.5508,7.7187,7.8047,7.8242,7.7383,7.7695,7.7969,7.7305,7.7383,7.7773,7.8398,7.8906,7.9375,7.9961,8.082,8.1445,8.1679,8.2812,8.3203,8.2187,8.3203,8.3867,8.3633,8.4414,8.4804,8.4531,8.4765,8.5312,8.6172,8.6211,8.6601,8.75,8.8086,8.8359,8.8398,8.9023,8.9297,8.9297,8.8672,8.7812,8.6875,8.664,8.6211,8.5625,8.5625,8.5625,8.5625,8.5625,8.5625,8.5625,8.5625,8.5312,8.4883,4.6289,4.6289,4.6289,4.6289,4.6289,4.6289,4.6289,4.6289,4.6289,4.6289,4.6328,4.6641,4.75,4.8398,4.9297,5.0195,5.3437,5.6875,6.0273,6.4609,6.8555,7.1875,7.289,7.418,7.5859,7.5937,7.6367,7.7187,7.7187,7.7187,7.7226,7.8047,7.8476,7.8476,7.9297,7.9609,7.9609,7.9609,7.918,7.8476,7.8476,7.7422,7.5898,7.5859,7.2734,6.8359,6.8047,6.6328,6.4219,6.4062,6.1367,5.875,6.2851,6.1328,5.8111,5.8806,5.7876,5.7539,6.1719,6.5976,7.0117,7.375,7.7109,7.9336,7.8633,7.8476,7.8242,7.7383,7.7226,7.7226,7.7187,7.789,7.8476,7.8515,7.9844,8.0937,8.0976,8.1719,8.2578,8.3437,8.3554,8.3906,0.0,8.4844,8.4492,8.3672,8.4414,8.4531,8.3672,8.4453,8.5312,8.6172,8.6211,8.6601,8.75,8.7539,8.7539,8.7539,8.7578,8.7578,8.7578,8.7539,8.7929,8.8594,8.7812,8.7461,8.7422,8.7422,8.7422,8.7422,8.7422,8.7422,8.7422,8.7422,8.6367,8.4883,4.6289,4.6289,4.6289,4.6289,4.6289,4.6289,4.6289,4.6289,4.6289,4.6289,4.6289,0.0,0.0,0.0,0.0,0.0,5.2812,5.543,5.7734,6.2461,6.6211,6.8515,7.1055,7.2969,7.414,7.4726,7.5195,7.5469,7.6055,7.6328,7.6367,7.7226,7.7656,7.7656,7.793,7.8047,7.8047,7.8047,7.789,7.7656,7.7656,7.5547,7.2383,7.1797,6.9101,6.5234,0.0,6.06,5.9813,5.9698,5.8726,5.8208,6.19,6.0512,5.7962,6.0027,6.0594,6.2055,6.8817,7.2148,7.4414,7.7265,7.8867,7.9492,7.8672,7.8047,7.7539,7.7265,7.7656,7.8242,7.875,7.9101,7.9687,8.082,8.1015,8.1406,8.2578,8.2969,8.3476,8.4375,8.4961,8.5429,0.0,0.0,0.0,8.4531,8.5273,8.5625,8.5351,8.5586,8.6172,8.7031,8.707,8.7187,8.75,8.8047,8.8281,8.8281,8.8867,8.8867,8.8281,8.8281,8.8164,8.789,8.7617,8.75,8.75,8.75,8.75,8.75,8.75,8.75,8.75,8.75,8.7148,8.664,4.6289,4.6289,4.6289,4.6289,4.6289,0.0,0.0,0.0,0.0,0.0,0.0,0.0,0.0,0.0,0.0,0.0,0.0,5.3164,5.5508,5.9375,6.2461,6.4492,6.7265,6.918,7.0078,7.0937,7.1523,7.1836,7.3633,7.4492,7.4531,7.668,7.7656,7.7695,7.7969,7.8086,7.8086,7.8086,7.7578,7.664,7.5703,7.3125,6.9648,6.8164,6.5273,0.0,5.875,5.6689,5.542,5.5596,5.5461,5.6001,6.0285,6.0843,6.0423,6.3341,6.3954,6.5322,7.2921,7.5664,7.7031,7.9922,8.039,8.0039,7.9492,7.8711,7.8086,7.8086,7.8555,7.918,8.0,8.0156,8.0742,8.2461,8.2304,8.2422,8.3867,8.4062,8.4375,8.5273,8.5859,8.6328,8.664,0.0,0.0,8.5898,8.6054,8.6211,8.6211,8.5898,8.6133,8.6992,8.7031,8.7187,8.75,8.8008,8.8281,8.8281,8.8828,8.8828,8.8281,8.8281,8.8164,8.7929,8.7929,8.8125,8.8398,8.8398,8.8398,8.8398,8.8398,8.8398,8.8398,8.8398,8.8398,8.832,4.6289,4.6289,4.6289,0.0,0.0,0.0,0.0,0.0,0.0,0.0,0.0,0.0,0.0,0.0,0.0,0.0,0.0,0.0,5.3594,5.5469,5.7578,6.0117,6.1914,6.3281,6.414,6.4961,6.582,6.664,6.9922,7.1523,7.164,7.582,7.7773,7.7812,7.8555,7.8906,7.8906,7.8906,7.7539,7.5078,7.2617,7.0039,6.7461,6.4922,6.1328,5.7617,5.7422,5.4726,5.1298,5.201,5.1933,5.2607,5.8412,6.2105,6.4927,6.8277,6.7793,6.7578,7.4219,7.6719,7.8242,8.1484,8.164,8.1015,8.1015,8.0195,7.9453,7.9453,7.9336,7.9531,8.0429,8.0742,8.1445,8.3125,8.3554,8.3945,8.4765,8.4922,8.5273,8.6172,8.6289,8.664,8.7461,8.8281,0.0,8.7734,0.0,8.6328,8.6328,8.5508,8.5429,8.6289,8.6289,8.664,8.75,8.75,8.7539,8.7578,8.7578,8.7578,8.7617,8.7617,8.8047,8.8789,8.8789,8.9258,9.0,9.0,9.0,9.0,9.0,9.0,9.0,9.0,9.0,8.9765,0.0,0.0,0.0,0.0,0.0,0.0,0.0,0.0,0.0,0.0,0.0,0.0,0.0,0.0,0.0,0.0,0.0,0.0,5.1016,5.3359,5.5547,5.7461,5.9805,6.1484,6.2344,6.2578,6.2812,6.3047,6.4531,6.5273,6.5312,6.7109,6.793,6.793,6.8125,6.8242,6.8242,6.8242,6.7851,6.7187,6.6523,6.4336,6.1367,6.0039,5.7226,5.3945,5.3242,5.2294,5.1357,5.1396,5.386,5.769,6.2379,6.5189,6.761,7.1792,7.3075,7.4219,7.9258,8.0781,8.1211,8.207,8.164,8.1015,8.1015,7.8359,7.5898,7.5898,7.4336,7.3476,7.4961,7.7383,7.9492,8.0508,8.2851,8.4648,8.4883,8.5469,8.6172,8.707,8.7695,8.8164,8.8359,8.9179,8.9844,0.0,8.8906,8.8047,8.8047,8.7265,8.7226,8.8047,8.7461,8.7265,8.75,8.75,8.7812,8.8398,8.8398,8.8711,8.9375,8.9375,8.9453,8.9687,8.9687,8.9804,9.0,9.0,9.0,9.0,9.0,9.0,9.0,9.0,9.0,8.9922,0.0,0.0,0.0,0.0,0.0,0.0,0.0,0.0,0.0,0.0,0.0,0.0,0.0,0.0,0.0,0.0,0.0,0.0,0.0,5.0742,5.2383,5.3711,5.5508,5.6875,5.7734,5.8125,5.8711,5.9453,6.0703,6.1719,6.2461,6.3711,6.4297,6.4297,6.4297,6.4297,6.4297,6.4297,6.3867,0.0,0.0,5.9883,5.7305,5.5664,5.3828,5.207,5.1562,5.1641,5.2539,5.6211,5.9375,6.2617,6.7265,6.9922,7.2148,7.6562,7.7148,7.7226,8.1211,8.2304,8.2304,8.2304,8.1914,8.1172,7.9687,7.7461,7.5312,7.3789,7.2305,7.2148,7.5039,7.7187,7.9375,8.2109,8.4179,8.5586,8.5976,8.6445,8.6953,8.7422,8.8203,8.8711,8.8711,8.9844,9.0781,0.0,9.0039,8.9453,8.9804,8.9062,8.8789,8.9258,8.8828,8.8594,8.8594,8.8594,8.8828,8.9258,8.9258,8.9531,9.0,9.0,9.0195,9.0586,0.0,9.0781,9.1133,9.1133,9.1133,9.1133,9.1133,9.1133,9.1133,9.1133,9.1133,9.1094,0.0,0.0,0.0,0.0,0.0,0.0,0.0,0.0,0.0,4.6445,4.6367,4.6289,4.6289,4.6289,0.0,0.0,0.0,0.0,0.0,0.0,4.9101,5.0,5.0703,5.1484,5.2344,5.3125,5.4297,5.5898,5.7422,5.8906,6.0351,6.1875,6.2539,6.2422,6.2422,6.2344,6.2265,6.2265,6.1367,5.9805,5.7617,5.5781,5.4219,0.0,5.125,5.125,5.1367,5.1953,5.4023,6.2695,6.5586,6.6601,7.2344,7.5195,7.7148,8.1015,8.0117,7.8515,8.1484,8.2304,8.2304,8.2304,8.2304,8.1406,7.7969,7.6836,7.5508,7.2031,7.0976,7.1953,7.6328,7.7226,7.8906,8.3867,8.4961,8.5508,8.6484,8.6836,8.7148,8.7617,8.8398,8.8906,8.9023,9.0508,9.1484,9.1484,9.0781,9.0664,9.1445,9.0664,9.0117,9.0,9.0117,9.0117,9.0,9.0117,9.0156,9.0156,9.0156,9.0234,9.0351,9.0351,9.0742,9.1484,0.0,0.0,9.2617,9.2617,9.2617,9.2617,9.2617,9.2617,9.2617,9.2617,9.2617,9.25,0.0,0.0,0.0,0.0,0.0,0.0,0.0,0.0,0.0,0.0,4.6758,4.6289,0.0,0.0,0.0,0.0,0.0,0.0,0.0,0.0,0.0,4.9101,4.9258,4.9726,5.0625,5.0781,5.1328,5.2305,5.2617,5.2891,5.3203,5.3516,5.3281,5.2656,5.2656,5.2266,5.1562,5.1562,5.1406,5.1094,5.0625,5.0273,5.0039,5.0312,0.0,0.0,5.1172,5.1953,5.4023,6.2695,6.5586,6.7109,7.5859,7.8789,7.9336,8.0781,8.1328,8.1523,8.2148,8.2304,8.2304,8.2304,8.2304,8.1406,7.7969,7.4961,7.1914,6.8476,6.5508,6.4805,6.918,7.0586,7.2265,7.6015,7.8437,8.0351,8.1914,8.3359,8.5312,8.8164,8.9258,9.0078,9.0781,9.1758,9.2383,0.0,9.2226,9.2226,9.2383,9.1562,9.0742,9.0039,9.0703,9.0742,9.0,9.0703,9.1054,9.1054,9.1054,9.1445,9.2148,9.2148,9.2226,9.2383,9.2383,0.0,9.2617,9.2617,9.2617,9.2617,9.2617,9.2617,9.2617,9.2617,9.2617,9.2578,0.0,0.0,0.0,0.0,0.0,0.0,0.0,4.6992,4.7305,4.8164,4.7891,4.7656,4.7656,4.7266,4.6992,0.0,0.0,0.0,0.0,0.0,0.0,4.8203,4.8203,4.8633,4.9492,4.9531,5.0156,5.1406,0.0,5.0547,5.1367,5.0508,4.9883,4.9531,4.9531,4.9297,4.8906,4.8906,4.8906,4.8906,4.8906,4.8906,4.8984,4.9883,0.0,0.0,5.125,5.2266,5.4336,6.0742,6.3515,6.6133,7.6953,8.0703,8.0781,7.9414,8.0586,8.1914,8.0117,8.0937,8.2304,8.2304,8.2304,8.0937,7.5703,7.3203,7.0508,6.5273,6.2851,6.289,6.6797,6.8594,7.0625,7.4023,7.789,8.0742,8.1562,8.3945,8.6406,8.8476,8.9453,9.0351,9.1211,9.2109,9.2617,9.2617,9.2617,9.2617,9.2617,9.2187,9.1992,9.2031,9.2422,9.2656,9.2695,9.3125,9.332,9.332,9.332,9.3554,9.3945,9.3476,9.3281,9.3242,9.2812,0.0,9.2617,9.2617,9.2617,9.2617,9.2617,9.2617,9.2617,9.2617,9.2617,9.2617,0.0,0.0,0.0,0.0,0.0,0.0,4.75,4.7773,4.8203,4.9062,4.918,4.9258,4.9414,4.8516,4.7812,0.0,0.0,0.0,0.0,0.0,0.0,0.0,0.0,0.0,4.8594,0.0,0.0,5.0859,4.9531,0.0,0.0,0.0,0.0,0.0,4.8633,4.8516,4.8359,4.8359,4.8359,0.0,0.0,4.8359,4.8476,0.0,0.0,0.0,0.0,5.2539,5.4648,5.8945,6.168,6.5078,7.5508,7.9258,7.9492,7.793,7.9258,8.082,7.9062,8.039,8.2304,8.2304,8.2304,8.0508,7.3555,7.1992,7.0039,6.3125,6.1719,6.2773,6.625,6.7695,6.9492,7.2969,7.6758,7.9726,8.1015,8.3711,8.6406,8.8711,8.957,9.0429,9.1484,9.2187,9.2617,9.2617,0.0,0.0,9.289,9.289,9.3281,9.414,9.4375,9.4687,9.5195,9.539,9.539,9.5195,9.5195,9.5195,9.5156,9.4297,9.3984,9.4101,9.3047,0.0,0.0,9.2695,9.2617,9.2617,9.2617,9.2617,9.2617,9.2617,9.2617,9.2617,0.0,0.0,0.0,0.0,0.0,0.0,4.7578,4.8281,4.9101,4.9961,5.0078,5.0351,5.1094,4.9726,4.8476,0.0,0.0,0.0,0.0,0.0,0.0,0.0,0.0,0.0,0.0,0.0,0.0,4.9141,4.8984,0.0,0.0,0.0,0.0,0.0,0.0,4.7266,4.6523,4.6523,0.0,0.0,0.0,0.0,0.0,0.0,0.0,0.0,0.0,5.2539,5.4648,5.8945,6.207,6.5039,7.0078,7.1719,7.2656,7.707,7.8047,7.8437,8.2031,8.2656,8.2304,8.2304,8.2304,8.0508,7.3555,7.1992,7.0039,6.3125,6.1719,6.2773,6.625,6.5742,6.5937,6.9414,6.9687,7.1406,7.6914,7.8633,8.1953,8.9023,8.9961,9.0664,9.2304,9.2539,9.2617,9.2617,0.0,0.0,9.3789,9.3789,9.4179,9.5039,9.5859,9.5937,9.5195,9.5976,9.5976,9.5195,9.5195,9.5195,9.5156,9.4297,9.4336,9.5,9.332,0.0,0.0,9.2929,9.2617,9.2617,9.2617,9.2617,9.2617,9.2617,9.2617,9.2617,0.0,0.0,0.0,0.0,0.0,0.0,4.8281,4.9101,4.9961,5.082,5.0937,5.1055,5.1367,5.0781,4.9844,4.8516,0.0,0.0,0.0,0.0,0.0,0.0,0.0,0.0,0.0,0.0,4.6992,4.7344,4.7344,0.0,0.0,0.0,0.0,0.0,0.0,4.6601,4.6289,4.6289,0.0,0.0,0.0,0.0,0.0,0.0,0.0,0.0,0.0,0.0,5.4258,5.5976,5.8281,6.0742,6.2461,6.3672,6.543,7.0156,7.4609,7.789,7.75,8.0547,8.375,8.3203,8.3476,8.1797,7.3828,7.2422,7.0664,6.3242,6.1719,6.2109,6.3515,6.3633,6.414,6.6055,6.8242,7.164,7.7187,8.0039,8.3867,9.0039,9.0781,9.0625,9.0273,9.1679,9.2812,9.3359,0.0,0.0,9.539,9.4961,9.5078,9.5937,9.6328,9.6562,9.6719,9.7031,9.7031,9.6719,9.6719,9.6719,9.6679,9.5859,9.5664,9.5898,9.414,0.0,0.0,9.2969,9.2617,9.2617,9.2617,9.2617,9.2617,9.2617,9.2617,9.2617,0.0,0.0,0.0,0.0,0.0,4.7891,4.8789,4.9648,5.0508,5.1289,5.1406,5.1406,5.1406,5.1406,5.0742,4.9062,4.8359,0.0,0.0,0.0,0.0,0.0,0.0,0.0,0.0,0.0,4.668,4.668,4.6953,4.6953,0.0,0.0,4.6562,4.6289,0.0,0.0,0.0,0.0,0.0,0.0,0.0,0.0,0.0,0.0,0.0,0.0,0.0,0.0,0.0,0.0,0.0,5.7226,5.7734,5.8906,6.0937,6.5547,7.0781,7.5078,7.5156,7.9023,8.3164,8.3828,8.3476,8.1133,7.4023,7.1875,6.957,6.3047,6.1719,6.1719,6.1719,6.2422,6.3281,6.414,6.7031,7.1367,7.7617,8.0586,8.4101,8.9531,9.0195,8.9804,8.8789,9.1054,9.2969,0.0,0.0,0.0,9.6406,9.6133,9.6211,9.6836,9.6836,9.7148,9.7695,9.7695,9.7695,9.7695,9.7695,9.7695,9.7656,9.6875,9.664,9.6758,0.0,0.0,0.0,9.3164,9.2734,9.2969,9.2695,9.2617,9.2617,9.2617,9.2617,9.2617,0.0,0.0,0.0,0.0,0.0,0.0,4.8789,4.9648,5.0508,5.1289,5.1406,5.1406,5.1406,5.1406,5.0742,4.9062,4.8906,0.0,0.0,0.0,0.0,0.0,0.0,0.0,0.0,0.0,4.7578,4.7578,4.8437,4.8437,4.7578,4.7578,4.7148,4.6289,0.0,0.0,0.0,0.0,0.0,0.0,0.0,0.0,4.8984,0.0,0.0,0.0,0.0,0.0,0.0,0.0,0.0,0.0,0.0,5.8515,6.0234,6.539,6.6953,6.8867,7.7344,7.9101,7.957,8.3828,8.1719,7.7656,7.4101,7.0,6.5976,6.2422,6.1719,6.1719,6.1719,6.2422,6.3281,6.414,6.5078,6.8672,7.7305,7.8515,8.0781,8.6836,8.7539,8.7851,8.8633,9.1054,0.0,0.0,0.0,0.0,9.6445,9.7265,9.7695,9.7695,9.7695,9.7695,9.7695,9.7695,9.7695,9.7695,9.7695,9.7695,9.7656,9.6875,9.6914,0.0,0.0,0.0,0.0,9.3672,9.3125,9.3789,9.2929,9.2617,9.2617,9.2617,9.2617,9.2617,0.0,0.0,0.0,0.0,0.0,0.0,4.7969,4.9258,5.0273,5.0547,5.1055,5.1406,5.1406,5.1406,5.0742,4.9062,4.8906,0.0,0.0,0.0,0.0,0.0,0.0,0.0,0.0,4.7461,4.7891,4.8476,4.875,4.875,4.8476,4.7891,4.7461,4.7148,4.6562,4.6289,0.0,0.0,0.0,0.0,0.0,4.8633,4.9062,0.0,0.0,0.0,0.0,0.0,0.0,0.0,0.0,0.0,0.0,0.0,0.0,6.0976,6.457,6.8398,7.1094,7.3789,7.6015,7.6797,7.6406,7.4609,6.9961,6.8359,6.664,6.2539,6.1719,6.1719,6.1719,6.1914,6.2578,6.4062,6.4531,6.8125,7.793,7.9336,8.2226,9.0078,8.9414,8.9101,9.1172,0.0,0.0,0.0,0.0,0.0,9.7265,9.7578,9.7695,9.7695,9.7695,9.7695,9.7695,9.7695,9.7695,9.7695,9.7695,9.7695,9.7695,9.7422,0.0,0.0,0.0,0.0,0.0,9.4961,9.4179,9.3945,9.4258,9.3633,9.2656,9.3281,9.3125,9.2617,0.0,0.0,0.0,0.0,0.0,0.0,4.7539,4.8516,4.9336,4.9687,5.0156,5.0469,5.0469,5.0469,4.9883,4.8516,4.8398,0.0,0.0,0.0,0.0,0.0,0.0,0.0,4.7578,4.793,4.8516,4.9375,4.9687,4.9687,4.9375,4.8828,4.8242,4.7578,4.7031,4.6601,0.0,0.0,0.0,0.0,4.832,4.9101,4.9531,0.0,0.0,0.0,0.0,0.0,0.0,0.0,0.0,0.0,0.0,0.0,0.0,0.0,6.1836,6.5703,6.7656,7.0156,7.2422,7.3515,7.2969,7.1328,6.8125,6.6523,6.4961,6.2265,6.1719,6.1719,6.1719,6.1953,6.3086,6.582,6.5703,6.8672,7.8359,7.8867,8.0976,8.832,8.8906,8.9336,0.0,0.0,0.0,0.0,0.0,0.0,9.7656,9.7695,9.7695,9.7695,9.7695,9.7695,9.7695,9.7695,9.7695,9.7695,9.7695,9.7695,9.7695,9.7695,0.0,0.0,0.0,0.0,0.0,9.5664,9.4883,9.4453,9.5,9.414,9.2695,9.3594,9.3359,9.2617,0.0,0.0,0.0,0.0,0.0,0.0,0.0,4.7578,4.7891,4.8711,4.8867,4.8906,4.8906,4.8906,4.8555,4.7695,4.7617,0.0,0.0,0.0,0.0,0.0,0.0,0.0,4.7656,4.8555,4.9414,5.0273,5.1016,5.1016,5.0273,5.0234,4.9336,4.7773,4.7656,4.7109,4.6289,0.0,0.0,0.0,4.8555,4.9414,0.0,0.0,0.0,0.0,0.0,0.0,0.0,0.0,0.0,0.0,0.0,0.0,0.0,0.0,0.0,0.0,0.0,6.7695,6.8672,7.2695,7.0703,6.7734,6.7734,6.4609,0.0,6.1719,6.1719,6.1719,6.1719,6.2617,6.4648,6.8515,6.8086,7.0078,7.8203,7.7812,7.8515,8.3398,8.6914,8.8984,8.8984,0.0,0.0,0.0,0.0,0.0,9.7656,9.7695,9.7695,9.7695,9.7695,9.7695,9.7695,9.7695,9.7695,9.7695,9.7695,9.7695,9.7695,9.7695,0.0,0.0,0.0,0.0,0.0,9.6015,9.5312,9.5195,9.5312,9.4258,9.2695,9.3633,9.3398,9.2617,0.0,0.0,0.0,0.0,0.0,0.0,0.0,0.0,0.0,0.0,4.8476,4.8906,4.8906,4.8906,4.8555,0.0,0.0,0.0,0.0,0.0,0.0,0.0,0.0,0.0,4.8594,4.9453,5.0312,5.1133,5.1328,5.1289,5.1094,5.0508,4.9961,4.9531,4.8203,4.7109,4.6289,4.6289,0.0,0.0,4.8555,4.9414,0.0,0.0,0.0,0.0,5.1406,5.1406,0.0,0.0,0.0,0.0,0.0,0.0,0.0,0.0,5.8164,5.9023,6.1562,0.0,6.3476,6.4492,6.3984,6.3242,0.0,6.2422,6.1719,6.1719,6.1719,6.1719,6.1719,6.4609,6.664,6.5664,6.8476,7.1953,7.5312,8.0976,8.5469,8.7265,8.9961,9.1679,9.1679,0.0,0.0,0.0,0.0,9.75,9.7695,9.7695,9.7695,9.7695,9.7695,9.7695,9.7695,9.7695,9.7695,9.7695,9.7695,9.7695,9.7695,9.7695,0.0,0.0,0.0,0.0,9.7656,9.7265,9.6367,9.5312,9.6601,9.5273,9.2773,9.4336,9.3906,9.2617,0.0,0.0,0.0,0.0,0.0,0.0,0.0,0.0,0.0,0.0,4.7422,4.7695,4.7695,4.7695,4.7539,0.0,0.0,0.0,0.0,0.0,0.0,0.0,0.0,4.8008,4.8867,4.9766,5.0586,5.1406,5.1406,5.1406,5.1406,5.0937,5.0547,5.0117,4.8398,4.7344,4.6875,4.6484,4.7031,4.8242,4.8711,0.0,0.0,0.0,0.0,0.0,5.1406,5.1406,0.0,5.1953,5.2383,5.2851,0.0,0.0,0.0,0.0,5.7265,5.8086,5.9023,6.0156,6.1211,6.1601,6.1719,6.1719,6.1719,6.1719,6.1719,6.1719,6.1719,6.1836,6.2226,6.4531,6.7265,6.9805,7.1875,7.4492,7.8203,8.4101,8.8203,8.8633,9.1367,9.3203,0.0,0.0,0.0,0.0,0.0,9.7695,0.0,9.7695,9.7695,9.7695,9.7695,9.7695,9.7695,9.7695,9.7695,9.7695,9.7695,9.7695,9.7695,9.7695,9.7695,0.0,0.0,0.0,9.7695,9.7695,9.6953,9.5937,9.7187,9.5859,9.3398,9.5156,9.4453,9.2695,0.0,0.0,0.0,0.0,0.0,0.0,0.0,0.0,0.0,0.0,0.0,0.0,0.0,0.0,0.0,0.0,0.0,0.0,0.0,0.0,0.0,0.0,4.7344,4.8203,4.9062,4.9922,5.0703,5.1406,5.1406,5.1406,5.1406,5.1406,5.0976,5.0117,4.8516,4.7734,4.7539,4.668,4.7305,4.8906,4.8906,0.0,0.0,0.0,0.0,0.0,0.0,0.0,0.0,5.1406,5.1875,5.2539,5.2656,0.0,0.0,0.0,0.0,0.0,5.7812,5.9023,6.0586,6.2109,6.2109,6.1875,6.2539,6.2187,6.1719,6.1719,6.2344,6.3047,6.3672,6.5586,6.9297,7.6094,7.6406,7.7656,8.3047,8.6758,8.8906,8.8906,9.1992,0.0,0.0,0.0,0.0,0.0,0.0,0.0,0.0,9.7695,9.7695,9.7695,9.7695,9.7695,9.7695,9.7695,9.7695,9.7695,9.7695,9.7695,9.7695,9.7695,9.7695,0.0,0.0,0.0,9.7695,9.7695,9.7226,9.6562,9.7383,9.6211,9.4297,9.5898,9.5,9.3203,0.0,0.0,0.0,0.0,0.0,0.0,0.0,0.0,0.0,0.0,0.0,0.0,0.0,0.0,0.0,0.0,0.0,0.0,0.0,0.0,0.0,4.7383,4.8242,4.9101,4.9961,5.0781,5.1289,5.1406,5.1406,5.1406,5.1406,5.1406,5.0976,5.0156,4.9141,4.8281,4.7539,4.668,4.7305,4.8906,4.8906,0.0,0.0,0.0,0.0,0.0,0.0,0.0,0.0,5.1406,5.1484,5.1719,5.2461,0.0,0.0,0.0,0.0,0.0,5.75,5.8633,6.0469,6.4961,6.3867,6.2656,6.6367,6.4336,6.1719,6.1719,6.5195,6.8047,6.75,7.4062,7.9023,7.7461,7.9414,8.1953,8.4375,8.7656,8.9804,8.9804,0.0,0.0,0.0,0.0,0.0,0.0,0.0,0.0,0.0,9.7695,9.7695,9.7695,9.7695,9.7695,9.7695,9.7695,9.7695,9.7695,9.7695,9.7695,9.7695,9.7695,9.7695,0.0,0.0,9.7695,9.7695,9.7695,9.7226,9.6562,9.7383,9.6601,9.5117,9.6133,9.5781,9.4726,0.0,0.0,0.0,0.0,0.0,0.0,0.0,0.0,0.0,0.0,0.0,0.0,0.0,0.0,0.0,0.0,0.0,0.0,0.0,0.0,4.6914,4.8242,4.8672,4.9297,5.0195,5.0976,5.1406,5.1406,5.1406,5.1406,5.1406,5.1406,5.1211,5.0781,4.9492,4.8672,4.8242,4.7383,4.7734,4.8945,0.0,0.0,0.0,0.0,0.0,0.0,0.0,0.0,0.0,0.0,5.1406,5.1484,5.1875,0.0,0.0,0.0,0.0,0.0,5.7422,5.8555,6.1015,6.8476,6.7773,6.5742,6.7734,6.8437,6.7461,6.3281,6.6172,6.9453,6.9531,7.3476,7.8047,8.2109,8.6015,8.9179,9.0937,9.2109,9.2812,0.0,0.0,0.0,0.0,0.0,0.0,0.0,0.0,0.0,0.0,0.0,9.7695,9.7695,9.7695,9.7695,9.7695,9.7695,9.7695,9.7695,9.7695,9.7695,9.7695,9.7695,9.7695,9.7695,0.0,9.7695,9.7695,9.7695,9.7461,9.7187,9.7578,9.6953,9.5898,9.582,9.6133,9.6367,0.0,0.0,0.0,0.0,0.0,0.0,0.0,0.0,0.0,0.0,0.0,0.0,0.0,0.0,0.0,0.0,0.0,0.0,0.0,4.6289,4.707,4.8828,4.8906,4.9414,5.0469,5.1094,5.1406,5.1406,5.1406,5.1406,5.1406,5.1406,5.1406,5.1328,4.9844,4.9219,4.9141,4.8281,4.8398,4.9258,0.0,0.0,0.0,0.0,0.0,0.0,0.0,0.0,0.0,0.0,0.0,0.0,0.0,0.0,0.0,5.3672,5.5195,5.6719,5.7656,5.9258,6.25,6.9922,7.0,6.8711,7.0742,7.3125,7.3164,6.6992,6.9492,7.293,7.3359,7.4453,7.8008,8.6172,9.0586,9.3828,9.6172,9.6094,0.0,0.0,0.0,0.0,0.0,0.0,0.0,0.0,0.0,0.0,0.0,0.0,9.7695,9.7695,9.7695,9.7695,9.7617,9.7617,9.7656,9.7695,9.7656,9.7617,9.7617,9.7578,9.7578,9.7617,9.7617,9.7656,9.7695,9.7695,9.7695,9.7695,9.7695,9.7304,9.6719,9.6015,9.6601,9.75,0.0,0.0,0.0,0.0,0.0,0.0,0.0,0.0,0.0,0.0,0.0,0.0,0.0,0.0,0.0,0.0,0.0,0.0,0.0,4.6289,4.707,4.8828,4.8906,4.9648,5.1289,5.1367,5.1406,5.1406,5.1406,5.1406,5.1406,5.1406,5.1406,5.1367,5.0508,5.0117,5.0039,4.918,4.9297,5.0117,5.0156,0.0,0.0,0.0,0.0,0.0,0.0,0.0,0.0,0.0,0.0,0.0,0.0,0.0,5.1836,5.3516,5.6875,5.9726,5.8281,6.1445,6.5508,6.6992,6.7773,7.0273,7.8242,7.7851,7.543,7.4062,7.8476,8.2344,8.1601,8.3515,8.5703,8.7265,8.9062,9.1758,9.5898,0.0,0.0,0.0,0.0,0.0,0.0,0.0,0.0,0.0,0.0,0.0,0.0,0.0,0.0,9.7695,9.7695,9.7617,9.7422,9.7422,9.7539,9.7695,9.75,9.7422,9.7422,9.7148,9.7187,9.7422,9.7422,9.7539,9.7695,9.7695,9.7695,9.7695,9.7695,9.7656,9.7617,9.7539,9.7617,9.7578,0.0,0.0,0.0,0.0,0.0,0.0,0.0,0.0,0.0,0.0,0.0,0.0,0.0,0.0,0.0,0.0,0.0,0.0,0.0,4.6289,4.707,4.8828,4.8906,4.9687,5.1367,5.1406,5.1406,5.1406,5.1406,5.1406,5.1406,5.1406,5.1406,5.1367,5.0547,5.0195,5.0195,4.9844,4.9883,5.0234,5.0742,5.1133,0.0,0.0,0.0,0.0,0.0,0.0,0.0,0.0,5.1406,5.1406,5.1406,5.1758,5.2422,5.3633,5.5937,5.8125,5.8594,6.2461,6.7383,7.1484,7.2734,7.3828,7.7109,8.0976,8.2578,7.7969,8.0976,8.4453,8.4687,8.5976,8.8164,9.1719,9.1445,9.2304,0.0,0.0,0.0,0.0,0.0,0.0,0.0,0.0,0.0,0.0,0.0,0.0,0.0,0.0,0.0,9.7539,9.75,9.7383,9.7148,9.7169,9.7192,9.7254,9.7206,9.7151,9.7153,9.7037,9.7037,9.716,9.7135,9.7187,9.7265,9.7422,9.75,9.7539,9.7656,9.7695,9.7695,9.7695,9.7695,9.7656,0.0,0.0,0.0,0.0,0.0,0.0,0.0,0.0,0.0,0.0,0.0,0.0,0.0,0.0,0.0,0.0,0.0,0.0,4.6289,4.6289,4.707,4.8828,4.8906,4.9687,5.1367,5.1406,5.1406,5.1406,5.1406,5.1406,5.1406,5.1406,5.1406,5.1367,5.082,5.0586,5.0547,5.0312,5.0195,5.0234,5.0508,5.0625,0.0,0.0,0.0,0.0,0.0,0.0,0.0,0.0,5.1406,5.1406,5.1406,5.1992,5.2851,5.375,5.6172,5.8711,5.9101,6.3945,6.9726,7.3008,7.5898,7.8047,7.8633,8.2422,8.4765,8.0898,8.375,8.6875,8.664,8.7304,8.9219,9.332,9.2461,9.289,0.0,0.0,0.0,0.0,0.0,0.0,0.0,0.0,0.0,0.0,0.0,0.0,0.0,0.0,0.0,0.0,9.7323,9.716,9.6887,9.6841,9.6826,9.6786,9.676,9.6797,9.6865,9.6788,9.6788,9.6861,9.6877,9.6926,9.7004,9.7199,9.7252,9.7304,9.7422,9.7461,9.7461,9.7461,9.7461,9.7461,0.0,0.0,0.0,0.0,0.0,0.0,0.0,0.0,0.0,0.0,0.0,0.0,0.0,0.0,0.0,0.0,0.0,0.0,4.6289,4.6289,4.707,4.8828,4.8906,4.9687,5.1367,5.1406,5.1406,5.1406,5.1406,5.1406,5.1406,5.1406,5.1406,5.1406,5.1406,5.1406,5.1328,5.0547,5.0195,5.0117,4.9258,4.8906,4.8906,0.0,0.0,0.0,0.0,0.0,0.0,0.0,5.1406,5.1406,5.1406,5.1992,5.2891,5.3789,5.832,6.2461,6.0,6.6211,7.2773,7.0195,7.5976,8.2773,8.4492,8.2226,8.0508,8.3086,8.7734,9.0547,8.8008,8.8164,8.9297,9.1054,9.1328,0.0,0.0,0.0,0.0,0.0,0.0,0.0,0.0,0.0,0.0,0.0,0.0,0.0,0.0,0.0,0.0,0.0,9.7145,9.6865,9.6596,9.6596,9.648,9.6288,9.6288,9.6403,9.6596,9.6403,9.6403,9.6596,9.6596,9.6749,9.698,9.698,9.6982,9.6992,9.6992,9.6992,9.6992,9.6992,9.6992,9.6992,0.0,0.0,0.0,0.0,0.0,0.0,0.0,0.0,0.0,0.0,0.0,0.0,0.0,0.0,0.0,0.0,0.0,0.0,4.6289,4.6289,4.707,4.8828,4.8906,4.9687,5.1367,5.1406,5.1406,5.1406,5.1406,5.1406,5.1406,5.1406,5.1406,5.1406,5.1406,5.1094,5.0547,5.0312,4.9844,4.9258,4.8984,4.8906,4.8906,0.0,0.0,0.0,0.0,0.0,0.0,0.0,0.0,0.0,5.1406,5.2422,5.4258,5.7539,6.1523,6.5312,6.7578,7.3359,7.8828,7.9297,8.1328,8.3672,8.5429,8.5,8.414,8.3672,8.8672,9.2344,8.9726,8.9961,0.0,9.4492,0.0,0.0,0.0,0.0,0.0,0.0,0.0,0.0,0.0,0.0,0.0,0.0,0.0,0.0,0.0,0.0,0.0,0.0,9.7066,9.6788,9.6403,9.6403,9.6365,9.6288,9.6288,9.6326,9.6403,9.6326,9.6326,9.6403,9.6403,9.6442,9.6519,9.6634,9.6828,9.7006,9.7006,9.7006,9.7006,9.7006,9.7006,9.7006,0.0,0.0,0.0,0.0,0.0,0.0,0.0,0.0,0.0,0.0,4.6289,4.6289,0.0,0.0,0.0,0.0,0.0,0.0,4.6289,4.6289,4.6914,4.832,4.8398,4.918,5.0898,5.125,5.1406,5.1406,5.1406,5.1406,5.1406,5.1055,5.0937,5.0898,5.0547,5.0156,4.9648,4.9297,4.8867,4.8359,4.8008,4.7851,4.7851,0.0,0.0,0.0,0.0,0.0,0.0,0.0,0.0,0.0,5.1406,5.3789,5.6797,5.8008,6.3008,6.8398,6.9648,7.5625,8.1836,8.3242,8.539,8.7187,8.7187,8.6679,8.6094,8.5703,9.0039,9.3633,9.2734,9.3008,0.0,0.0,0.0,0.0,0.0,0.0,0.0,0.0,0.0,0.0,0.0,0.0,0.0,0.0,0.0,0.0,0.0,0.0,0.0,0.0,9.6976,9.6749,9.6288,9.6365,9.6365,9.6288,9.6288,9.6288,9.6288,9.6288,9.6288,9.6288,9.6288,9.6288,9.6326,9.6442,9.6557,9.6711,9.6711,9.6711,9.6711,9.6711,9.6711,9.6711,0.0,0.0,0.0,0.0,0.0,0.0,0.0,0.0,0.0,4.6289,4.6289,4.6289,0.0,0.0,0.0,4.6289,4.6289,4.6289,4.6289,4.6289,4.668,4.7578,4.7695,4.8476,5.0039,5.0781,5.1172,5.1172,5.1328,5.1406,5.1367,5.0586,5.0195,5.0156,4.9297,4.8867,4.8711,4.793,4.7539,4.7422,4.6601,4.6289,4.6289,4.6289,0.0,0.0,0.0,0.0,0.0,0.0,0.0,0.0,5.1406,5.5273,5.9297,5.664,6.3242,7.0937,6.8672,7.5039,8.2617,8.3984,8.8554,9.2109,8.9726,8.8008,8.7187,8.8164,9.1445,9.4531,9.5898,9.6406,0.0,0.0,0.0,0.0,0.0,0.0,0.0,0.0,0.0,0.0,0.0,0.0,0.0,0.0,0.0,0.0,0.0,0.0,0.0,9.6992,9.6989,9.6782,9.6304,9.6476,9.648,0.0,9.6288,9.6288,9.6288,9.6288,9.6288,9.6288,9.6288,9.6288,9.6288,9.6288,9.6288,9.6288,9.6288,9.6288,9.6288,9.6288,9.6288,9.6288,0.0,0.0,0.0,0.0,0.0,0.0,0.0,0.0,4.6289,4.6289,4.6289,4.6289,4.6289,4.6289,0.0,4.6289,4.6289,4.6289,4.6289,4.6289,4.668,4.7578,4.8242,4.8789,4.918,4.9336,4.9453,4.9453,5.0742,5.1406,5.1367,5.0586,5.0195,5.0156,4.9297,4.8516,4.7851,4.7695,4.7226,4.6562,4.6367,4.6289,4.6289,4.6289,4.6289,0.0,0.0,0.0,0.0,0.0,0.0,0.0,5.1406,5.3242,5.6015,5.9336,6.3476,6.8437,7.5117,7.957,8.3476,8.8398,9.164,9.3476,9.289,9.25,9.1015,8.6601,9.1172,9.5429,9.375,0.0,0.0,0.0,0.0,0.0,0.0,0.0,0.0,0.0,0.0,0.0,0.0,0.0,0.0,0.0,0.0,0.0,0.0,0.0,0.0,9.6992,9.6795,9.6549,9.6293,9.6345,9.6326,0.0,9.6288,9.6288,9.6288,9.6288,9.6288,9.6288,9.6288,9.6288,9.6288,9.6288,9.6288,9.6288,9.6288,9.6288,9.6288,9.6288,9.6288,9.6288,0.0,0.0,0.0,0.0,0.0,0.0,0.0,0.0,4.7266,4.6406,4.6289,4.6289,4.6289,4.6289,0.0,0.0,4.6289,4.6289,4.6289,4.6289,4.6484,4.6953,4.7812,4.8281,4.8281,4.8672,4.8906,4.8906,4.9766,5.0195,5.0195,4.9336,4.8945,4.8906,4.8047,4.7383,4.6992,4.6992,4.6719,4.6289,4.6289,4.6562,4.6914,4.6914,4.7187,4.7617,4.8047,0.0,0.0,0.0,0.0,0.0,0.0,0.0,5.7383,5.8828,6.3711,6.9922,7.5703,8.0039,8.457,9.1445,9.3554,9.4101,9.4961,9.5156,9.4258,9.1094,9.3672,9.6211,0.0,0.0,0.0,0.0,0.0,0.0,0.0,0.0,0.0,0.0,0.0,0.0,0.0,0.0,0.0,0.0,0.0,0.0,0.0,9.7383,9.7232,9.6815,9.6792,9.6615,9.6291,9.6413,9.6403,9.6288,9.6288,9.6288,9.6288,9.6288,9.6288,9.6288,9.6288,9.6288,9.6288,9.6288,9.6288,9.6288,9.6288,9.6288,9.6288,9.6288,9.6288,9.6288,0.0,0.0,0.0,0.0,0.0,0.0,0.0,0.0,0.0,4.6484,4.6289,4.6289,4.6289,4.6289,4.6289,0.0,0.0,0.0,4.6289,4.6289,4.6289,4.6289,4.6992,4.7383,4.7383,4.8086,4.8437,4.8437,4.8437,4.8437,4.8437,4.7851,4.7617,4.7578,4.668,4.6289,4.6328,4.6445,4.6523,4.6523,4.668,4.7187,4.7812,4.7812,4.8281,4.8906,4.9062,4.9609,5.0234,5.0351,0.0,0.0,0.0,0.0,5.9023,5.7148,6.2851,7.0312,7.2812,7.8555,8.5625,9.3125,9.4414,9.4375,9.6094,9.6367,9.6367,9.664,9.6719,9.6914,0.0,0.0,0.0,0.0,0.0,0.0,0.0,0.0,0.0,0.0,0.0,0.0,0.0,0.0,0.0,0.0,0.0,0.0,9.7031,9.7169,9.7076,9.663,9.6788,9.6673,9.6288,9.648,9.6442,9.6288,9.6288,9.6288,9.6288,9.6288,9.6288,9.6288,9.6288,9.6288,9.6288,9.6288,9.6288,9.6288,9.6288,9.6288,9.6288,9.6288,9.6288,9.6288,0.0,0.0,0.0,0.0,0.0,0.0,0.0,0.0,0.0,0.0,4.6289,4.6289,4.6289,4.6289,4.6289,4.6289,4.6289,4.6289,4.6289,0.0,0.0,4.6289,4.6406,4.6484,4.6484,4.6601,4.6641,4.6641,4.6641,4.6641,4.6641,4.7305,4.7617,4.7578,4.668,4.6289,4.6367,4.7109,4.7422,4.75,4.8242,4.8633,4.8711,4.8711,4.8789,4.8984,4.9766,5.0117,5.0312,5.1016,5.1328,0.0,0.0,0.0,5.5117,5.625,5.8633,6.2109,6.7578,7.6719,8.6211,9.25,9.3984,9.4375,9.6094,9.5937,9.5781,0.0,9.7539,0.0,0.0,0.0,0.0,0.0,0.0,0.0,0.0,0.0,0.0,0.0,0.0,0.0,0.0,0.0,0.0,0.0,0.0,0.0,9.703,9.6818,9.6652,9.6596,9.648,9.6365,9.6288,9.6326,9.6326,9.6288,9.6288,9.6288,9.6288,9.6288,9.6288,9.6288,9.6288,9.6288,9.6288,9.6288,9.6288,9.6288,9.6288,9.6288,9.6288,9.6288,9.6288,9.6288,0.0,0.0,0.0,0.0,0.0,0.0,0.0,0.0,0.0,0.0,0.0,4.6289,4.6289,4.6289,4.6289,4.6289,4.6289,4.6289,4.6289,4.6289,4.6289,4.6289,4.6289,4.6289,4.6289,4.6289,4.6289,4.6289,4.6289,4.6289,4.6328,4.668,4.6875,4.6836,4.6484,4.6289,4.6367,4.7226,4.7617,4.7695,4.8555,4.918,4.9648,4.9648,5.0195,5.1094,5.1445,5.1601,5.1641,5.1992,5.1797,5.1484,5.1953,0.0,0.0,0.0,5.7812,6.0625,6.7148,7.6406,8.5156,8.9297,9.2109,9.4453,9.6679,9.6523,9.6289,9.7461,0.0,0.0,0.0,0.0,0.0,0.0,0.0,0.0,0.0,0.0,0.0,0.0,0.0,0.0,0.0,0.0,0.0,0.0,0.0,9.7015,9.6621,9.6615,9.6557,9.6442,9.6365,9.6288,9.6288,9.6288,9.6288,9.6288,9.6288,9.6288,9.6288,9.6288,9.6288,9.6288,9.6288,9.6288,9.6288,9.6288,9.6288,9.6288,9.6288,9.6288,9.6288,9.6288,9.6288,9.6288,0.0,0.0,0.0,0.0,0.0,0.0,0.0,0.0,0.0,0.0,0.0,4.6289,4.6289,0.0,0.0,0.0,4.6289,4.6289,4.6289,4.6289,4.6289,4.6289,4.6289,4.6289,4.6289,4.6289,4.6289,4.6289,4.6289,4.6289,4.6289,4.6289,4.6289,4.6289,4.6289,4.6289,4.6367,4.7461,4.793,4.8008,4.9101,5.0078,5.0859,5.0859,5.1758,5.3047,5.3047,5.3047,5.3047,5.3047,5.2617,5.2187,5.2812,5.3633,0.0,0.0,0.0,6.0937,6.7422,7.4453,8.1133,8.5976,8.957,9.2851,9.6289,9.6758,9.6679,0.0,0.0,0.0,0.0,0.0,0.0,0.0,0.0,0.0,0.0,0.0,0.0,0.0,0.0,0.0,0.0,0.0,0.0,0.0,0.0,9.6711,9.6326,9.6442,9.6442,9.6288,9.6288,9.6288,9.6288,9.6288,9.6288,9.6288,9.6288,9.6288,9.6288,9.6288,9.6288,9.6288,9.6288,9.6288,9.6288,9.6288,9.6288,9.6288,9.6288,9.6288,9.6288,9.6288,9.6288,9.6288,0.0,0.0,0.0,0.0,0.0,0.0,0.0,0.0,0.0,0.0,0.0,4.6289,4.6289,4.6289,4.6289,4.6289,4.6289,4.6289,4.6289,4.6289,4.6289,4.6289,4.6289,0.0,4.6289,4.6289,4.6289,4.6289,4.6289,4.6289,4.6289,4.6289,4.6289,4.6289,4.6289,4.6289,4.6406,4.8125,4.8828,4.8984,5.0625,5.1797,5.2578,5.2578,5.3125,5.3945,5.3945,5.3945,5.3945,5.3945,5.3906,5.3867,5.3906,5.4531,5.539,0.0,0.0,0.0,6.6836,6.918,7.2734,8.3554,8.6445,8.8125,9.3984,9.5937,9.6523,9.6562,0.0,0.0,0.0,0.0,0.0,0.0,0.0,0.0,0.0,0.0,0.0,0.0,0.0,0.0,0.0,0.0,0.0,0.0,0.0,9.6519,9.6326,9.6326,9.6326,9.6288,9.6288,9.6288,9.6288,9.6288,9.6288,9.6288,9.6288,9.6288,9.6288,9.6288,9.6288,9.6288,9.6288,9.6288,9.6288,9.6288,9.6288,9.6288,9.6288,9.6288,9.6288,9.6288,9.6288,9.6288,0.0,0.0,0.0,0.0,0.0,0.0,0.0,0.0,0.0,0.0,0.0,0.0,0.0,4.6289,4.6289,4.6289,4.6289,4.6289,4.6289,4.6289,4.6289,4.6289,4.6289,4.6289,4.6289,4.6289,4.6289,4.6289,4.6289,4.6289,4.6289,4.6289,4.625,4.6172,4.625,4.6289,4.6406,4.8164,4.8906,4.9375,5.4922,5.7344,5.7773,5.8867,5.9844,6.0625,6.0625,6.0625,6.0937,6.3125,6.168,5.8945,5.8945,5.7265,5.5586,5.6992,5.8476,6.0156,6.2539,6.6211,7.0625,7.5781,7.918,8.2383,8.6758,8.9687,9.1797,9.2929,0.0,0.0,0.0,0.0,0.0,0.0,0.0,0.0,0.0,0.0,0.0,0.0,0.0,0.0,0.0,0.0,0.0,0.0,0.0,0.0,9.6288,9.6288,9.6288,9.6288,9.6288,9.6288,9.6288,9.6288,9.6288,9.6288,9.6288,9.6288,9.6288,9.6288,9.6288,9.6288,9.6288,9.6288,9.6288,9.6288,9.6288,9.6288,9.6288,9.6288,9.6288,9.6288,9.6288,9.6211,0.0,0.0,0.0,0.0,0.0,0.0,0.0,0.0,4.7891,4.7891,0.0,0.0,0.0,0.0,4.6914,4.6641,4.6328,4.6172,4.6172,4.6172,4.6172,4.6172,4.6172,4.6172,4.6211,4.6523,4.6562,4.6289,4.6562,4.6523,4.6211,4.6172,4.6133,4.6054,4.6132,4.6335,4.6758,4.8203,4.918,5.0195,5.5625,5.8359,5.9453,6.2344,6.414,6.5351,6.6797,6.7305,6.7656,6.9922,6.7265,6.3008,6.3008,5.9648,5.5976,5.7109,5.8281,5.9336,5.9844,6.332,6.75,7.039,7.375,7.7383,8.1367,8.5625,8.9023,9.0117,0.0,0.0,0.0,0.0,0.0,0.0,0.0,0.0,0.0,0.0,0.0,0.0,0.0,0.0,0.0,0.0,0.0,0.0,0.0,0.0,9.6288,9.6288,9.6288,9.6288,9.6288,9.6288,9.6288,9.6288,9.6288,9.6288,9.6288,9.6288,9.6288,9.6288,9.6288,9.6288,9.6288,9.6288,9.6288,9.6288,9.6288,9.6288,9.6288,9.6288,9.6249,9.598,9.5865,9.5712,0.0,0.0,0.0,0.0,0.0,0.0,4.8788,4.8632,4.8554,4.8554,0.0,0.0,0.0,0.0,0.0,4.7265,4.6445,4.5937,4.5898,4.5898,4.5898,4.5898,4.5898,4.5976,4.6093,4.6914,4.6992,4.6289,4.6992,4.6914,4.6093,4.5976,4.5898,4.5896,4.5905,4.648,4.7499,4.8359,4.9726,5.1523,5.2734,5.4765,5.7578,6.2812,6.5859,6.789,7.207,7.3555,0.0,7.3672,0.0,0.0,6.5508,6.1406,5.668,5.664,5.7851,5.9219,0.0,0.0,0.0,6.7969,7.0469,7.3086,7.8281,8.4023,8.8281,8.8359,0.0,0.0,0.0,0.0,0.0,0.0,0.0,0.0,0.0,0.0,0.0,0.0,0.0,0.0,0.0,0.0,0.0,0.0,0.0,9.6288,9.6288,9.6288,9.6288,9.6288,9.6288,9.6288,9.6288,9.6288,9.6288,9.6288,9.6288,9.6288,9.6288,9.6288,9.6288,9.6288,9.6288,9.6288,9.6288,9.6288,9.6288,9.6288,9.6288,9.6288,9.6172,9.5289,9.4982,9.4828,0.0,0.0,0.0,0.0,0.0,5.0453,5.0453,4.9857,4.9431,0.0,0.0,0.0,4.8488,4.8488,4.8153,4.7301,4.6991,4.6552,4.5932,4.5893,4.5893,4.5893,4.5893,4.5932,4.597,4.6206,4.6211,4.6016,4.6211,4.6206,4.597,4.5932,4.588,4.5841,4.5857,4.6754,4.8242,4.8564,4.9726,5.2226,6.1875,6.6055,6.7383,7.457,7.7422,0.0,0.0,7.9453,7.9687,0.0,7.7578,6.957,0.0,5.9726,5.8359,5.7734,5.875,5.9922,5.9375,0.0,0.0,0.0,0.0,0.0,0.0,7.5898,7.9453,8.6094,0.0,0.0,0.0,0.0,0.0,0.0,0.0,0.0,0.0,0.0,0.0,0.0,0.0,0.0,0.0,0.0,0.0,0.0,9.6288,9.6288,9.6288,9.6288,9.6288,9.6288,9.6288,9.6288,9.6288,9.6288,9.6288,9.6288,9.6288,9.6288,9.6288,9.6288,9.6288,9.6288,9.6288,9.6288,9.6288,9.6288,9.6288,9.6288,9.6288,9.5942,9.5328,9.5097,9.4595,9.3939,0.0,0.0,5.1166,5.1147,5.1383,5.1511,5.1511,5.1337,5.1222,0.0,0.0,0.0,4.9952,4.9644,4.9067,4.8182,4.7794,4.737,4.6852,4.6506,4.6313,4.6313,4.5988,4.5796,4.5873,4.6219,4.6247,4.5896,4.6247,4.6219,4.5873,4.5796,4.5796,4.5796,4.5834,4.687,4.8596,4.9041,5.1523,5.5664,6.1758,6.5859,6.9061,7.6147,7.9102,0.0,0.0,0.0,8.5595,8.7259,8.2506,0.0,0.0,6.0508,6.1328,5.9101,5.9375,6.0312,5.9844,6.0664,6.1836,6.2344,0.0,0.0,6.7812,7.0742,7.4765,0.0,0.0,0.0,0.0,0.0,0.0,0.0,0.0,0.0,0.0,0.0,0.0,0.0,0.0,0.0,0.0,0.0,0.0,9.6326,9.6288,9.6288,9.6288,9.6288,9.6288,9.6288,9.6288,9.6288,9.6288,9.6288,9.6288,9.6288,9.6288,9.6288,9.6288,9.6288,9.6288,9.6288,9.6288,9.6288,9.6288,9.5942,9.598,9.6249,9.5903,9.5443,9.4905,9.4174,9.3669,9.3054,0.0,0.0,5.1258,5.1331,5.1857,5.2204,5.2242,5.2762,5.3205,0.0,5.3186,5.2916,5.2127,5.1414,5.0587,4.9644,4.8854,4.8312,4.812,4.743,4.7045,4.7024,4.6219,4.5796,4.5911,4.6583,4.6583,4.5873,4.6583,4.6544,4.5796,4.5663,4.5663,4.5796,4.5911,4.6959,4.8748,4.973,5.4159,6.0312,5.8008,6.0974,0.0,0.0,7.67,7.893,8.6649,8.9906,9.0248,8.8435,8.4561,0.0,0.0,6.3157,6.4805,6.1094,6.0234,6.0508,6.039,6.1015,6.1719,6.1719,6.2265,0.0,6.4297,6.781,7.2254,0.0,0.0,0.0,0.0,0.0,0.0,0.0,0.0,0.0,0.0,0.0,0.0,0.0,0.0,0.0,0.0,9.6019,9.6057,9.6172,9.6249,9.6288,9.6288,9.6288,9.6288,9.6288,9.6288,9.6288,9.6288,9.6288,9.6288,9.6288,9.6288,9.6288,9.6288,9.6288,9.6288,9.6288,9.6288,9.6249,9.6095,9.5328,9.5443,9.6095,9.5212,9.4789,9.452,9.3054,9.2438,9.2245,5.1773,5.1906,5.2141,5.282,5.2974,5.301,5.3007,5.3107,5.3224,5.32,5.32,5.3161,5.2969,5.28,5.2088,5.0587,5.0298,4.9586,4.8203,4.7972,4.7875,4.7889,4.7101,4.666,4.666,4.6142,4.5834,4.5663,4.5834,4.5796,4.5624,4.5586,4.5586,4.568,4.6429,4.7442,4.8646,5.0289,5.4952,6.1758,6.7305,7.187,7.6245,8.4297,8.6935,8.6675,8.9213,9.0098,8.8833,8.1167,7.9741,7.9463,0.0,0.0,6.6875,6.5351,6.3203,6.1133,6.043,6.0937,6.1719,6.1719,6.1836,0.0,6.6562,6.602,6.6884,0.0,7.4697,0.0,0.0,0.0,0.0,0.0,0.0,0.0,0.0,0.0,0.0,0.0,0.0,0.0,0.0,9.4214,9.4483,9.5212,9.5903,9.6288,9.6288,9.6288,9.6288,9.6288,9.6288,9.6288,9.6288,9.6288,9.6288,9.6288,9.6288,9.6288,9.6288,9.6288,9.6288,9.6288,9.6288,9.5903,9.5251,9.5058,9.5097,9.5174,9.4291,9.3559,9.2977,9.263,9.2091,9.1441,5.1907,5.2329,5.2794,5.3241,5.3587,5.3836,5.3853,5.4203,5.4454,5.4451,5.443,5.443,5.443,5.4087,5.3531,5.2644,5.2184,5.1588,5.0702,4.9875,4.9394,4.9393,4.8163,4.7489,4.7486,4.666,4.6257,4.6257,4.5796,4.5586,4.5586,4.6026,4.6275,4.6352,4.7255,4.8445,5.0014,5.4359,5.9922,6.5976,6.7695,0.0,7.5938,8.3133,8.5976,8.6565,8.9636,9.0636,8.9521,8.2741,8.106,0.0,7.389,7.008,6.793,6.7178,6.4309,6.1315,6.0852,6.1172,6.1601,6.1601,6.164,0.0,0.0,6.3845,6.4648,7.094,6.9842,6.9195,0.0,0.0,0.0,0.0,0.0,0.0,0.0,0.0,0.0,0.0,0.0,0.0,0.0,9.421,9.3866,9.4291,9.4789,9.5174,9.5635,9.5635,9.5865,9.6288,9.6288,9.6288,9.6288,9.6288,9.6288,9.6288,9.6288,9.6288,9.6288,9.6288,9.6288,9.6288,9.5865,9.5405,9.4943,9.4134,9.3749,9.371,9.3287,9.2864,9.2438,9.2014,9.1556,9.121,5.2389,5.2965,5.3486,5.364,5.4276,5.472,5.472,5.5412,5.6011,5.6186,5.6186,5.6494,5.7324,5.6126,5.5489,5.6148,5.4803,5.3763,5.3455,5.2184,5.1279,5.0952,4.9433,4.8529,4.8333,4.7545,4.7083,4.6908,4.618,4.5834,4.5873,4.6583,4.7006,4.7276,4.8295,5.0028,5.2627,5.8936,6.4916,6.9972,6.7897,6.9941,7.4889,8.0975,8.3538,8.4544,8.9793,9.1675,9.1059,8.6803,8.4773,8.3045,7.7455,7.3073,6.9763,6.8398,6.4902,6.1502,6.1495,6.149,6.146,6.1444,6.1523,6.1601,0.0,0.0,0.0,0.0,0.0,0.0,0.0,0.0,0.0,0.0,0.0,0.0,0.0,0.0,0.0,0.0,0.0,0.0,0.0,9.3936,9.3631,9.3482,9.3789,9.4174,9.4712,9.4905,9.5328,9.6057,9.6211,9.6288,9.6288,9.6288,9.6288,9.6288,9.6288,9.6288,9.6288,9.6134,9.6057,9.6019,9.5135,9.4674,9.4405,9.3092,9.2399,9.2245,9.2245,9.2245,9.2168,9.1441,9.121,9.121,5.4199,5.4276,5.4605,5.528,5.5511,5.5549,5.5549,5.6291,5.7136,5.7923,5.8,5.943,6.318,6.0173,5.905,6.2039,5.8813,5.5917,5.4451,5.4182,5.3395,5.1819,5.0914,5.0048,4.926,4.8433,4.7606,4.6908,4.6775,4.6737,4.6737,4.6852,4.7278,4.8068,4.9702,5.2705,5.6811,6.1331,6.5827,7.047,7.6778,7.9736,0.0,8.843,8.8517,8.5504,9.1333,9.3407,9.2792,0.0,8.8483,8.8738,0.0,7.6746,7.4395,7.0568,6.6005,6.2198,6.2176,6.1772,6.1324,6.1307,6.1328,6.1367,6.1484,0.0,6.1797,6.2383,0.0,0.0,0.0,0.0,0.0,0.0,0.0,0.0,0.0,0.0,0.0,0.0,0.0,0.0,0.0,0.0,0.0,9.2707,9.4013,9.4552,9.3897,9.4595,9.5058,9.5135,9.5903,9.6288,9.6288,9.6288,9.6288,9.6288,9.6288,9.6288,9.6288,9.5481,9.5135,9.5097,9.4214,9.3443,9.2784,9.2592,9.2053,9.1364,9.1364,9.1364,9.1325,9.1248,9.121,9.1248,5.4605,5.4874,5.5318,5.5626,5.5703,5.5857,5.6395,5.7197,5.7905,5.8258,5.8319,6.0288,6.5473,6.1402,6.1245,6.8567,0.0,6.2166,0.0,0.0,6.0166,6.1425,5.5981,5.3437,5.4555,5.1299,4.9183,4.8355,4.7815,4.7619,4.7619,4.8105,4.8817,4.9798,5.3957,5.7641,6.125,6.8963,7.2686,7.3979,0.0,0.0,0.0,8.6122,8.7379,8.7003,9.1948,9.337,9.2716,0.0,8.9415,0.0,0.0,7.9922,7.3735,7.3421,6.8371,6.332,6.5288,6.5697,6.5423,6.494,6.4895,6.4351,6.1913,0.0,6.1406,0.0,0.0,0.0,0.0,0.0,0.0,0.0,0.0,0.0,0.0,0.0,0.0,0.0,0.0,0.0,0.0,0.0,0.0,0.0,0.0,9.0136,9.0787,9.2979,9.448,9.4982,9.5865,9.6288,9.6288,9.6288,9.6288,9.6288,9.5789,9.552,9.552,9.4674,9.4251,9.4208,9.3364,9.2864,9.263,9.213,9.1787,9.1595,9.1595,9.1518,9.1402,9.1556,9.1595,9.1595,5.4951,5.5318,5.5703,5.5703,5.5895,5.6434,5.7527,5.8219,5.8696,5.8965,5.9004,6.1574,6.8428,6.3092,6.3466,7.4625,6.9258,6.6987,0.0,0.0,6.5534,6.8944,6.1065,5.7456,5.9302,5.5249,5.2011,4.976,4.9124,4.868,4.8487,4.9356,5.0202,5.126,5.6232,6.08,6.5268,7.3599,7.7763,7.9191,8.3817,8.4176,8.2173,8.4628,8.6624,8.8612,9.2638,9.3251,9.2292,9.3251,9.118,0.0,8.8992,8.2984,7.5821,7.6482,7.2161,6.7628,6.9871,6.9706,6.8924,6.9066,6.7576,0.0,0.0,0.0,0.0,0.0,0.0,0.0,0.0,0.0,6.2461,6.2148,0.0,6.3149,0.0,0.0,0.0,0.0,0.0,0.0,0.0,0.0,0.0,0.0,0.0,0.0,8.7914,9.0748,9.2941,9.4252,9.5135,9.5597,9.5597,9.5597,9.5597,9.5558,9.4943,9.4635,9.4634,9.3828,9.3441,9.3435,9.2669,9.2438,9.2511,9.187,9.1707,9.1937,9.1976,9.1855,9.1721,9.1838,9.1915,9.1915,5.5665,5.5665,5.5703,5.5703,5.6395,5.7489,5.9181,5.9435,5.9765,6.0589,0.0,0.0,0.0,0.0,0.0,0.0,0.0,6.8488,7.1904,0.0,6.7331,7.0652,6.5053,6.1907,0.0,6.0151,5.6406,5.0664,5.0625,5.0202,4.9375,5.024,5.1106,5.1973,5.4647,6.0431,6.8488,7.2113,7.8352,8.6088,8.9588,8.9454,8.7192,0.0,8.8352,9.029,9.3743,0.0,0.0,9.5049,9.4972,0.0,0.0,0.0,0.0,0.0,0.0,7.6701,0.0,0.0,0.0,7.2663,0.0,0.0,0.0,0.0,6.1081,0.0,0.0,0.0,6.1523,6.1523,6.1289,6.043,6.0898,0.0,0.0,0.0,0.0,0.0,0.0,0.0,0.0,0.0,0.0,0.0,0.0,0.0,8.6111,8.7875,8.9988,9.2524,9.3331,9.3791,9.3791,9.3791,9.3791,9.3791,9.3753,9.3713,9.3743,9.3092,9.2823,9.2784,9.2207,9.1937,9.1925,9.1905,9.191,9.1937,9.213,9.2187,9.2146,9.1951,9.1912,9.1912,5.6665,5.7011,5.7242,5.6665,5.678,5.755,5.9242,5.9973,0.0,0.0,0.0,0.0,0.0,7.4781,7.5194,0.0,0.0,7.887,8.288,7.9139,0.0,0.0,0.0,6.8852,0.0,6.3261,5.8564,5.322,5.2068,5.1337,5.1068,5.1337,5.1933,5.299,5.8329,6.4517,7.1233,7.637,8.1129,8.5483,0.0,8.6488,8.3783,0.0,0.0,8.879,9.2711,9.361,0.0,9.421,9.4557,9.421,9.2213,8.9258,8.615,8.4132,8.0953,0.0,0.0,0.0,7.8135,7.845,0.0,0.0,0.0,0.0,0.0,0.0,0.0,0.0,6.3549,6.25,6.1815,6.3196,6.2253,6.0976,0.0,0.0,0.0,0.0,0.0,0.0,0.0,0.0,0.0,0.0,0.0,0.0,0.0,8.6291,8.9294,9.2367,9.3287,9.3708,9.3708,9.39,9.3977,9.3977,9.3557,9.3361,9.3358,9.2553,9.2212,9.2183,9.1988,9.1988,9.2078,9.2098,9.22,9.2378,9.2456,9.2092,9.1679,9.2187,9.1992,9.1445,5.755,5.7896,5.805,5.7126,5.7473,5.8973,0.0,0.0,0.0,0.0,7.0179,0.0,8.0624,0.0,7.9747,0.0,8.5228,8.4229,8.882,8.484,0.0,8.729,7.9921,0.0,0.0,0.0,6.2712,5.7653,5.4706,5.2935,5.2377,5.2685,5.3261,5.4314,5.9314,6.4685,7.0343,7.631,8.0098,8.2395,0.0,8.4857,0.0,0.0,8.9475,8.7151,0.0,9.3581,9.2985,9.4214,9.4789,9.4905,9.4326,9.2059,8.9527,8.8986,8.6496,8.4241,8.5884,8.5036,0.0,8.3799,7.9669,0.0,7.3343,0.0,6.6598,0.0,0.0,0.0,6.5972,6.3526,6.1732,6.3389,6.2252,6.0958,0.0,6.005,0.0,0.0,0.0,0.0,0.0,0.0,0.0,0.0,0.0,0.0,0.0,0.0,8.7452,9.1441,9.2399,9.2784,9.2784,9.3015,9.3192,9.317,9.2898,9.2743,9.2704,9.2238,9.1987,9.1992,9.2109,9.2226,9.2344,9.2344,9.2265,9.2148,9.2148,9.1601,9.0937,9.1836,9.1797,9.1172,5.8357,5.8357,5.8127,5.7319,5.8704,0.0,0.0,0.0,6.8859,0.0,7.3568,7.6488,7.7597,7.7214,8.0381,8.9294,8.5654,0.0,8.979,8.5577,0.0,0.0,8.3807,8.0586,8.1085,0.0,0.0,6.3411,5.8231,5.4878,5.3359,5.415,5.4939,5.578,5.7516,6.1125,6.629,7.2003,7.5714,7.8049,8.1483,8.5232,8.8829,8.9779,8.8117,8.6086,9.2678,9.3522,9.1949,9.5212,9.5751,9.5058,9.5058,9.4445,9.3753,9.3746,9.3743,9.3358,9.1748,8.8909,8.6799,8.8435,0.0,0.0,0.0,0.0,7.4797,0.0,0.0,0.0,0.0,0.0,6.1343,6.1488,6.1189,6.0943,6.0993,0.0,0.0,0.0,0.0,0.0,0.0,0.0,0.0,0.0,0.0,0.0,0.0,0.0,8.4544,8.9563,9.0559,9.1056,9.1056,9.1248,9.1339,9.1367,9.1758,9.1914,9.1953,9.2148,9.2226,9.2226,9.25,9.2578,9.2539,9.2539,9.2031,9.125,9.1289,9.0781,9.0156,9.0937,9.125,9.1172,5.9319,5.9204,5.9319,0.0,6.332,6.6628,0.0,0.0,0.0,0.0,7.6311,7.872,8.3355,8.6496,8.9448,9.2476,9.1518,0.0,0.0,0.0,0.0,9.0864,8.9205,8.6017,8.1201,7.566,0.0,6.5219,5.8847,5.5472,5.5032,5.4685,5.4934,5.578,5.7527,6.1135,6.6121,6.9566,7.5964,8.4262,8.8905,9.0295,0.0,0.0,9.1982,9.0146,9.4406,9.552,9.5135,9.6019,9.6172,9.598,9.598,9.5366,9.4674,9.4635,9.4212,9.3636,9.3176,9.1982,9.0825,9.0594,8.6722,8.2932,0.0,0.0,0.0,0.0,0.0,0.0,0.0,0.0,0.0,6.8058,6.3608,6.0127,6.075,0.0,0.0,0.0,0.0,0.0,0.0,0.0,0.0,0.0,0.0,0.0,0.0,0.0,0.0,8.7225,8.8144,8.8679,8.8833,8.9063,8.9198,8.9219,9.1406,9.2422,9.2422,9.2461,9.25,9.25,9.2578,9.2226,9.164,9.164,9.1133,9.039,9.1054,9.1172,9.0898,9.0508,9.0742,9.1172,6.0165,6.0089,6.0319,6.1204,0.0,0.0,7.1937,0.0,0.0,8.1747,8.3568,0.0,8.7006,9.0671,9.321,9.3672,9.371,0.0,9.4247,0.0,0.0,9.2328,9.1591,8.9436,8.557,7.98,0.0,6.9726,6.3306,5.8825,5.6263,5.6186,5.6379,5.69,5.8219,6.0819,6.4556,6.8945,7.6056,8.472,8.7981,0.0,0.0,9.2444,9.337,9.3676,9.5597,9.6288,9.6288,9.6288,9.6288,9.6288,9.6288,9.598,9.5558,9.5558,9.5212,9.4751,9.4368,9.3943,9.3403,9.2521,9.0485,8.8563,8.7683,8.5382,8.3235,0.0,0.0,0.0,0.0,0.0,0.0,0.0,0.0,0.0,0.0,0.0,0.0,0.0,0.0,0.0,0.0,0.0,0.0,0.0,0.0,0.0,0.0,0.0,0.0,8.5731,8.6726,8.671,8.5777,8.8633,8.9482,8.8437,9.125,9.2617,9.2578,9.2226,9.2031,9.1992,9.164,9.1406,9.1289,9.1289,9.1015,9.0586,9.0703,9.0976,9.125,9.0742,9.0898,9.1211,6.1127,6.1127,6.1358,0.0,0.0,0.0,0.0,8.1554,0.0,8.8325,0.0,9.1956,8.9154,9.1857,9.3906,9.4022,0.0,9.4368,9.5135,9.4445,9.3983,9.3868,9.2482,9.1556,9.121,8.4916,0.0,0.0,0.0,6.3053,5.7362,5.8,5.8346,5.8501,5.9204,6.0896,6.37,7.0246,7.6929,8.3246,8.4554,8.7349,9.0799,9.1565,9.3714,9.6288,9.6288,9.6288,9.6288,9.6288,9.6288,9.6288,9.6288,9.6288,9.6288,9.6288,9.6288,9.6134,9.5366,9.5174,9.4982,9.4099,9.3864,9.3631,9.2861,9.2056,9.1518,9.1402,8.7141,8.3456,0.0,0.0,0.0,0.0,0.0,0.0,0.0,0.0,0.0,0.0,0.0,0.0,0.0,0.0,0.0,0.0,0.0,0.0,0.0,0.0,0.0,8.3692,8.5181,0.0,8.2851,0.0,9.0469,8.832,9.0976,9.2383,9.2578,9.1719,9.1367,9.1445,9.0664,9.0703,9.1289,9.1289,9.1289,9.1211,9.0469,9.0703,9.1484,9.1484,9.1406,9.1328,6.2858,6.2858,6.2897,6.3051,0.0,7.3707,7.9554,8.1208,8.3439,8.8094,8.9228,8.9594,8.9702,9.2704,9.5058,9.5751,9.5865,0.0,0.0,0.0,0.0,9.4828,9.4482,9.3328,9.1248,8.6611,8.109,0.0,0.0,6.4209,5.9065,5.8517,5.8633,5.9296,5.945,6.3152,6.972,7.5131,0.0,8.7914,9.1525,9.3868,9.5212,9.5328,9.5751,9.6288,9.6288,9.6288,9.6288,9.6288,9.6288,9.6288,9.6288,9.6288,9.6288,9.6288,9.6288,9.6288,9.6134,9.6095,9.5865,9.4982,9.4751,9.4559,9.3676,9.3368,9.3097,9.2402,9.0864,8.9406,8.8679,0.0,0.0,0.0,0.0,0.0,0.0,0.0,0.0,0.0,0.0,0.0,0.0,0.0,0.0,0.0,0.0,0.0,0.0,0.0,0.0,0.0,8.0846,0.0,0.0,0.0,0.0,8.7695,8.957,9.1211,9.2578,9.1719,9.1679,9.2344,9.2226,9.1836,9.1289,9.1289,9.1289,9.1289,9.1133,9.1601,9.2383,9.2383,9.1914,9.1406,6.332,6.3666,6.4128,6.4589,0.0,0.0,0.0,8.5016,0.0,9.3941,9.4208,9.4279,9.5084,9.6245,9.7171,9.7556,9.7595,9.7595,9.7595,9.7595,9.7402,9.698,9.6134,0.0,9.3864,9.0101,8.4391,7.6671,0.0,6.7325,6.0142,5.9765,5.9573,5.9681,6.3646,6.7972,7.2739,0.0,0.0,8.9645,9.3484,9.552,9.6288,9.6288,9.6288,9.6288,9.6288,9.6288,9.6288,9.6288,9.6288,9.6288,9.6288,9.6288,9.6288,9.6288,9.6288,9.6288,9.6288,9.6288,9.6211,9.5751,9.5674,9.5558,9.5135,9.4712,9.4289,9.3903,9.3097,9.1562,8.849,8.3176,0.0,0.0,0.0,0.0,0.0,0.0,0.0,0.0,0.0,0.0,0.0,0.0,0.0,0.0,0.0,0.0,0.0,0.0,0.0,0.0,0.0,0.0,0.0,0.0,0.0,8.5508,8.9453,9.1797,9.2578,9.1719,9.1523,9.1914,9.1445,9.1289,9.1328,9.1797,9.1953,9.1953,9.1953,9.1953,9.1914,9.1914,9.1367,9.0742,6.7398,6.8167,6.8859,6.9552,7.3783,0.0,8.4863,9.0056,9.498,9.975,9.975,9.9596,10.0327,9.9596,9.898,9.8826,9.8788,9.8788,9.8788,9.8788,9.8788,9.8788,9.7557,9.6673,9.6326,9.3672,8.8221,0.0,0.0,0.0,6.2136,6.2521,6.2814,6.3276,6.9663,0.0,0.0,0.0,8.9226,9.1527,9.4368,9.5865,9.6288,9.6288,9.6288,9.6288,9.6288,9.6288,9.6288,9.6288,9.6288,9.6288,9.6288,9.6288,9.6288,9.6288,9.6288,9.6288,9.6288,9.6288,9.6288,9.6288,9.6288,9.6288,9.6288,9.5751,9.5289,9.5289,9.4445,9.2409,8.8221,8.4928,0.0,0.0,0.0,0.0,0.0,0.0,0.0,0.0,0.0,0.0,0.0,0.0,0.0,0.0,0.0,0.0,0.0,0.0,0.0,0.0,0.0,7.9258,7.875,0.0,8.9219,0.0,8.9883,9.2226,9.2578,9.1719,9.1406,9.1523,9.0859,9.0937,9.164,9.2304,9.25,9.2304,9.2304,9.1797,9.1015,9.1015,9.0469,8.9804,8.0785,8.1747,0.0,0.0,0.0,0.0,0.0,9.4557,9.7211,10.0712,10.1096,10.1096,10.1212,10.0519,9.9673,9.8865,9.8788,9.8788,9.8788,9.8788,9.8788,9.8788,9.8634,9.7866,9.6326,9.598,9.2023,0.0,0.0,7.4152,6.653,6.8158,7.0869,7.4556,7.6789,0.0,0.0,8.8344,9.1988,9.5789,9.6826,9.6865,9.6288,9.6288,9.6288,9.6288,9.6288,9.6288,9.6288,9.6288,9.6288,9.6288,9.6288,9.6288,9.6288,9.6288,9.6288,9.6288,9.6288,9.6288,9.6288,9.6288,9.6288,9.6288,9.6288,9.6249,9.6172,9.6172,9.4866,9.333,9.2133,8.7914,8.3512,0.0,0.0,0.0,0.0,0.0,7.2675,6.8744,0.0,0.0,0.0,0.0,0.0,0.0,6.2539,0.0,0.0,0.0,0.0,7.3828,0.0,7.6601,7.957,8.4375,0.0,9.0586,9.0351,9.1054,9.2578,9.1719,9.1719,9.2461,9.2383,9.2383,9.2461,9.2578,9.2148,9.1406,9.1406,9.0898,9.0117,9.0117,8.957,8.8828,0.0,0.0,0.0,0.0,0.0,0.0,0.0,9.8442,10.1481,10.3289,10.3212,10.2712,10.2096,10.1827,10.1212,10.0404,10.0288,10.0288,10.0288,10.0288,10.0288,10.0288,9.9865,9.9288,9.8596,9.7096,9.3522,0.0,0.0,0.0,0.0,7.1765,7.2958,7.7716,0.0,8.5522,8.8652,9.2716,9.5444,9.7058,9.7365,9.7019,9.6288,9.6288,9.6288,9.6288,9.6288,9.6288,9.6288,9.6288,9.6288,9.6288,9.6288,9.6288,9.6288,9.6288,9.6288,9.6288,9.6288,9.6288,9.6288,9.6288,9.6288,9.6288,9.6288,9.6288,9.6288,9.6288,9.5328,9.4366,9.4051,9.1518,8.8144,0.0,0.0,0.0,0.0,0.0,0.0,7.0642,0.0,7.3875,0.0,0.0,0.0,0.0,0.0,0.0,0.0,0.0,0.0,7.5469,0.0,7.957,8.3554,8.5859,8.7656,8.9023,9.0742,9.1914,9.2578,9.2226,9.2265,9.2617,9.2617,9.2617,9.2578,9.2031,9.1601,9.125,9.0703,9.0,8.9219,8.9219,8.8672,8.7969,8.7786,0.0,9.0556,0.0,9.4788,9.825,9.8519,10.1789,10.4482,10.5405,10.4982,10.4212,10.3095,10.2981,10.252,10.1404,10.1289,10.1289,10.1289,10.1289,10.1289,10.1289,10.0788,0.0,10.0096,9.8327,9.5559,9.1796,8.57,0.0,0.0,7.701,0.0,0.0,8.7917,9.068,9.2065,9.6404,9.8135,9.7865,9.7865,9.7402,9.6634,9.6403,9.6288,9.6288,9.6288,9.6288,9.6288,9.6288,9.6288,9.6288,9.6288,9.6288,9.6288,9.6288,9.6288,9.6288,9.6288,9.6288,9.6288,9.6288,9.6288,9.6288,9.6288,9.6288,9.6288,9.6288,9.5597,9.4982,9.4978,9.3823,9.1444,8.7187,0.0,0.0,0.0,7.8579,0.0,7.2237,7.3744,0.0,0.0,0.0,0.0,0.0,0.0,0.0,0.0,0.0,0.0,0.0,0.0,0.0,0.0,8.539,8.6992,8.9023,9.1445,9.2617,9.2617,9.2617,9.2617,9.2578,9.2344,9.2226,9.2148,9.1289,9.0781,9.0469,8.9844,8.9101,8.8359,8.8359,8.8008,8.7539,10.0096,10.1096,10.1096,10.1096,10.1904,10.2789,10.3712,10.4482,10.5405,10.629,10.6405,10.5672,10.4093,10.3905,10.3175,10.1481,10.1289,10.1289,10.1289,10.1289,10.1289,0.0,0.0,10.0904,10.0096,10.0096,9.8789,9.6211,0.0,0.0,8.4866,8.4747,8.7878,9.3599,9.5366,9.6211,9.6403,9.8981,9.9596,9.8788,9.8788,9.8249,9.7402,9.6596,9.6288,9.6288,9.6288,9.6288,9.6288,9.6288,9.6288,9.6288,9.6288,9.6288,9.6288,9.6288,9.6288,9.6288,9.6288,9.6288,9.6288,9.6288,9.6288,9.6288,9.6288,9.6288,9.6288,9.6288,9.5597,9.502,9.502,9.4252,9.233,8.8067,0.0,0.0,0.0,7.9823,0.0,7.3303,0.0,0.0,0.0,0.0,0.0,0.0,0.0,0.0,0.0,0.0,0.0,7.1914,7.0469,0.0,7.9726,8.1484,8.5781,9.2539,9.2578,9.2617,9.2617,9.2617,9.2617,9.2539,9.1679,9.1328,9.125,9.039,8.9492,8.8711,8.8711,8.8203,8.75,8.75,8.75,8.7617,10.0289,10.1789,10.2212,10.2212,10.2904,10.3597,10.3905,10.4097,10.4405,10.4713,10.471,10.4477,10.4016,10.3905,10.3367,0.0,10.1597,10.1289,0.0,10.1289,10.1289,10.1289,10.1289,10.1212,10.0904,10.0404,9.9711,9.8865,0.0,0.0,0.0,9.2749,9.5057,9.6326,9.7479,9.8327,9.8942,9.975,9.9942,9.9711,9.9712,9.9172,9.8287,9.7441,9.7133,9.7056,9.648,9.6288,9.6288,9.6288,9.6288,9.6288,9.6288,9.6288,9.6288,9.6288,9.6288,9.6288,9.6288,9.6288,9.6288,9.6288,9.6288,9.6288,9.6288,9.6288,9.6288,9.6288,9.6095,9.5903,9.5903,9.4712,9.2524,8.8879,8.9017,0.0,8.0072,0.0,8.2574,7.7433,7.7098,0.0,0.0,7.6211,0.0,0.0,0.0,0.0,0.0,0.0,0.0,0.0,7.8789,0.0,8.6679,8.5547,8.7539,9.2617,9.2617,9.2617,9.2578,9.1992,9.1719,9.1679,9.0781,9.039,9.0351,8.9453,8.8945,8.8633,8.8086,8.7734,8.75,8.75,8.75,8.7539,10.0712,10.1712,10.2097,10.2097,10.2597,10.302,10.3405,10.3712,10.3982,10.4289,10.4636,10.4787,10.4787,10.4482,0.0,10.3175,10.2597,10.2328,10.2328,10.1981,10.1789,10.1789,10.1481,10.1289,10.1289,0.0,0.0,10.0096,9.6597,9.4599,9.41,9.7289,9.8519,9.8057,9.8865,9.9596,10.0096,10.0404,10.0596,10.048,10.0211,9.9596,9.8673,9.7827,9.7326,9.698,9.648,9.6288,9.6288,9.6288,9.6288,9.6288,9.6288,9.6288,9.6288,9.6288,9.6288,9.6288,9.6288,9.6288,9.6288,9.6288,9.6288,9.6288,9.6288,9.6288,9.6288,9.6288,9.6288,9.6211,9.5903,9.4943,9.3291,9.0567,9.1021,8.9713,8.3934,0.0,8.5445,0.0,0.0,0.0,0.0,8.0039,0.0,0.0,0.0,0.0,0.0,0.0,0.0,7.9492,8.0937,0.0,8.8047,8.6836,8.8359,9.2617,9.2265,9.2109,9.207,9.1211,9.082,9.0742,8.9883,8.9492,8.9453,8.8594,8.8242,8.8203,8.7695,8.75,8.75,8.75,8.75,8.7539,10.152,10.152,0.0,0.0,10.152,0.0,10.2597,10.3405,10.4212,10.4905,10.5715,10.6176,10.6294,10.5597,10.4905,10.4098,0.0,0.0,0.0,10.3098,10.2713,10.2713,10.1904,10.1404,10.1404,10.1289,10.0904,10.0211,9.9365,9.898,9.898,9.898,9.898,9.9019,9.9827,10.0211,10.0211,10.1019,10.1289,10.1212,10.048,9.9711,9.8865,9.7942,9.7135,9.6442,9.6326,9.6288,9.6288,9.6288,9.6288,9.6288,9.6288,9.6288,9.6288,9.6288,9.6288,9.6288,9.6288,9.6288,9.6288,9.6288,9.6288,9.6288,9.6288,9.6288,9.6288,9.6288,9.6249,9.598,9.5135,9.4905,9.4289,9.2746,9.2438,9.1018,8.7033,8.9167,8.8629,0.0,0.0,0.0,0.0,8.3164,8.2226,0.0,0.0,0.0,0.0,0.0,7.7969,7.793,7.875,8.1133,8.5195,8.6054,8.8476,9.2422,9.1601,9.1211,9.1172,9.0312,8.9922,8.9844,8.8984,8.8633,8.8554,8.7812,8.75,8.75,8.75,8.75,8.75,8.75,8.75,8.7617,0.0,0.0,10.3289,10.3289,10.3289,10.3405,10.3597,10.3789,10.3982,10.4212,10.4405,10.4713,10.5291,10.579,10.602,10.579,10.4595,10.3903,10.3903,10.3711,10.3635,10.3598,10.279,10.2328,10.2328,10.1597,10.1212,10.1019,10.0788,10.0673,10.0673,10.0673,10.0673,10.0673,10.0904,10.1019,10.1019,10.1212,10.1289,10.1289,10.1096,10.0904,10.048,9.9058,9.8364,9.8018,9.6749,9.6288,9.6288,9.6288,9.6288,9.6288,9.6288,9.6288,9.6288,9.6288,9.6288,9.6288,9.6288,9.6288,9.6288,9.6288,9.6288,9.6288,9.6288,9.6288,9.6288,9.6288,9.5751,9.5251,9.5058,9.3941,9.2977,9.2553,9.1937,9.0329,8.688,8.7157,8.6917,0.0,8.4599,8.5351,8.7304,8.6758,8.5078,0.0,0.0,0.0,0.0,8.3125,8.5703,8.5078,8.5859,8.7109,8.8789,8.8984,8.9609,9.0625,9.039,9.0312,9.0273,8.9414,8.9023,8.8945,8.8125,8.7773,8.7773,8.7578,8.75,8.75,8.75,8.75,8.75,8.75,8.75,8.7422,10.3905,10.3905,10.3905,10.3905,10.3905,10.3905,10.3905,10.4212,10.4405,10.4405,10.4789,10.5213,10.5597,10.6097,10.6402,10.6399,10.5903,10.548,10.5095,10.471,10.4403,10.4405,10.3597,10.302,10.2597,10.2097,10.1712,10.1289,10.1289,10.1289,10.1289,10.1289,10.1289,10.1289,10.1289,10.1289,10.1289,10.1289,10.1289,10.1289,10.1289,10.1096,10.0596,9.9288,9.8557,9.8018,9.6749,9.6288,9.6288,9.6288,9.6288,9.6288,9.6288,9.6288,9.6288,9.6288,9.6288,9.6288,9.6288,9.6288,9.6288,9.6288,9.6288,9.6288,9.6288,9.6288,9.6288,9.6288,9.5597,9.4866,9.448,9.3361,9.2361,9.1976,9.0252,8.8413,8.6803,8.6685,0.0,8.6601,8.7226,8.8086,8.9179,8.8554,8.7109,8.4844,0.0,0.0,8.2031,8.4375,8.5586,8.5156,8.7109,8.8554,8.9414,8.9804,9.0,9.0,8.9609,8.9414,8.9375,8.8515,8.8164,8.8125,8.7695,8.75,8.75,8.75,8.75,8.75,8.75,8.75,8.7422,8.6953,8.6758,8.6601,10.4097,10.4097,10.4097,10.4289,10.4289,10.4289,10.4289,10.4905,10.529,10.529,10.5905,10.6405,10.6405,10.6521,10.6479,10.6395,10.721,10.729,10.6521,10.5672,10.5287,10.5287,10.4477,10.3711,10.2981,10.2713,10.2213,10.1289,10.1289,10.1289,10.1289,10.1289,10.1289,10.1289,10.1289,10.1289,10.1289,10.1289,10.1289,10.1289,10.1289,10.0788,10.0019,9.9134,9.825,9.7402,9.6596,9.6288,9.6288,9.6288,9.6288,9.6288,9.6288,9.6288,9.6288,9.6288,9.6288,9.6288,9.6288,9.6288,9.6288,9.6288,9.6288,9.6288,9.6288,9.6211,9.6095,9.6095,9.5289,9.4405,9.3631,9.2861,9.1937,9.0675,8.8221,8.6372,8.6122,0.0,8.7187,8.7461,8.9765,9.0976,9.0078,8.9219,8.8359,8.7578,8.4765,0.0,0.0,8.4414,8.2851,8.2304,8.5781,8.8008,8.8672,8.9414,8.9726,8.9609,8.8867,8.8515,8.8515,8.7812,8.75,8.75,8.75,8.75,8.75,8.75,8.7461,8.7422,8.7422,8.7344,8.7109,8.6172,8.5776,8.5517,10.4789,10.4905,10.5097,10.5905,10.602,10.602,10.602,10.6097,10.6213,10.6213,10.629,10.6405,10.6405,10.7098,10.7175,10.6479,10.7175,10.729,10.6521,10.6328,10.6213,10.6213,10.5403,10.4903,10.471,10.3289,10.2213,10.1289,10.1289,10.1289,10.1289,10.1289,10.1289,10.1289,10.1289,10.1289,10.1289,10.1289,10.1289,10.1289,10.1289,10.0788,10.0019,9.9134,9.825,9.7402,9.6596,9.6288,9.6288,9.6288,9.6288,9.6288,9.6288,9.6288,9.6288,9.6288,9.6288,9.6288,9.6288,9.6288,9.6288,9.6288,9.6288,9.6288,9.6288,9.5712,9.5212,9.5212,9.3983,9.2869,9.2707,9.213,9.0636,8.7645,8.6918,8.5776,8.3116,0.0,8.7187,8.7461,8.9765,9.0976,9.0078,8.9219,8.8359,8.7578,8.6992,8.5625,8.3242,8.539,8.5351,8.2383,8.6328,8.8554,8.8711,8.8828,8.8554,8.789,8.7734,8.7695,8.7695,8.7578,8.75,8.75,8.75,8.75,8.75,8.75,8.7383,8.7148,8.7148,8.6601,8.5781,8.5625,8.5114,8.4379,10.4405,10.4482,10.4713,10.5597,10.5713,10.5905,10.629,10.6405,10.6405,10.6405,10.6405,10.6405,10.6405,10.679,10.679,10.6405,10.679,10.679,10.6405,10.6405,10.6405,10.6405,10.602,10.5403,10.4477,10.3212,10.2213,10.1289,10.1289,10.1289,10.1289,10.1289,10.1289,10.1289,10.1289,10.1289,10.1289,10.1289,10.1289,10.1289,10.1289,10.1096,10.0596,9.9288,9.8557,9.8018,9.6749,9.6288,9.6288,9.6288,9.6288,9.6288,9.6288,9.6288,9.6288,9.6288,9.6288,9.6288,9.6288,9.6288,9.6288,9.6288,9.598,9.5597,9.5597,9.4943,9.4328,9.4287,9.3441,9.2672,9.2669,9.2168,9.062,8.7175,8.6794,0.0,0.0,8.5078,8.7344,8.75,8.9765,9.0976,9.0078,8.9219,8.8359,8.7578,8.75,8.6797,8.5195,8.664,8.6758,8.5156,8.7031,8.8047,8.8047,8.8047,8.7851,8.75,8.75,8.75,8.75,8.75,8.75,8.75,8.7344,8.7265,8.7265,8.7187,8.7031,8.6873,8.6429,8.593,8.5386,8.4371,8.3762,8.3272,10.3597,10.3597,10.3905,10.4713,10.4789,10.5097,10.602,10.6097,10.6213,10.6405,10.6405,10.6405,10.6405,10.6405,10.6405,10.6405,10.6405,10.6405,10.6405,10.6405,10.6405,10.6405,10.6405,10.5595,10.3901,10.3212,10.2405,10.1289,10.1289,10.1289,10.1289,10.1289,10.1289,10.1289,10.1289,10.1289,10.1289,10.1289,10.1289,10.1289,10.1289,10.1212,10.0904,9.9403,9.8672,9.8324,9.6826,9.6288,9.6288,9.6288,9.6288,9.6288,9.6288,9.6288,9.6249,9.6057,9.5865,9.5751,9.6211,9.6172,9.6019,9.6019,9.5328,9.4712,9.4674,9.402,9.3443,9.3477,9.2938,9.2536,9.2595,9.2263,9.0866,8.7411,0.0,0.0,0.0,8.5547,8.75,8.8281,8.9922,9.0664,8.9765,8.9101,8.8359,8.7578,8.75,8.75,8.75,8.75,8.75,8.75,8.75,8.75,8.75,8.75,8.75,8.75,8.75,8.75,8.75,8.75,8.7461,8.7383,8.7187,8.706,8.7034,8.6839,8.6644,8.6375,8.5693,8.517,8.4593,8.3125,8.2471,8.2201,10.252,10.2712,10.2981,10.3789,10.3982,10.4289,10.5097,10.5213,10.5482,10.629,10.6405,10.6405,10.6405,10.6405,10.6405,10.6405,10.6405,10.6405,10.6405,10.6405,10.6405,10.6405,10.6405,10.5595,10.3901,10.3789,10.2982,10.1289,10.1289,10.1289,10.1289,10.1289,10.1289,10.1289,10.1289,10.1289,10.1289,10.1289,10.1289,10.1289,10.1289,10.0904,10.0096,9.9134,9.8289,9.7479,9.6596,9.6288,9.6288,9.6288,9.6288,9.6288,9.6288,9.6288,9.6134,9.5328,9.4521,9.4214,9.5865,9.5712,9.5097,9.5097,9.4445,9.3828,9.3785,9.3169,9.263,9.2823,9.2207,9.1649,9.1904,9.2062,9.1049,8.7617,0.0,0.0,8.7148,8.664,8.7461,9.0625,9.0469,8.9765,8.8867,8.875,8.8359,8.7578,8.75,8.75,8.75,8.75,8.75,8.75,8.75,8.75,8.75,8.75,8.75,8.75,8.75,8.75,8.75,8.75,8.7344,8.7148,8.7109,8.6986,8.6825,8.6786,8.6208,8.5329,8.528,8.4132,8.2509,8.2394,8.1855,8.1208,10.1712,10.1789,10.2097,10.2904,10.3097,10.3405,10.4212,10.4405,10.4482,10.4789,10.529,10.5597,10.5597,10.6097,10.6405,10.6405,10.6405,10.6405,10.6405,10.6405,10.6405,10.6405,10.6405,10.5595,10.3901,10.3866,10.2982,10.1289,10.1289,10.1289,10.1289,10.1289,10.1289,10.1289,10.1289,10.1289,10.1289,10.1289,10.1289,10.1289,10.1289,10.1096,10.0788,9.9942,9.9096,9.8172,9.7364,9.6711,9.6288,9.6288,9.5942,9.5481,9.5481,9.5135,9.4635,9.4287,9.3977,9.3862,9.4516,9.448,9.4212,9.4172,9.3557,9.2941,9.2938,9.2399,9.1899,9.1976,9.196,9.1983,9.2067,9.2265,9.1328,8.789,0.0,8.9726,8.707,8.8242,8.9648,9.039,8.9726,8.9062,8.8711,8.8242,8.7812,8.7539,8.75,8.75,8.75,8.75,8.75,8.75,8.75,8.75,8.75,8.75,8.75,8.75,8.75,8.75,8.75,8.7344,8.7187,8.7108,8.6855,8.6687,8.6555,8.5901,8.5368,8.4907,8.3824,8.2971,8.224,8.1739,8.1362,8.1093,10.1289,10.1289,10.152,10.2097,10.2212,10.252,10.3405,10.3482,10.3597,10.3905,10.4597,10.5097,10.5097,10.5905,10.6405,10.6405,10.6405,10.6405,10.6405,10.6405,10.6405,10.6405,10.6405,10.5595,10.3901,10.3866,10.2982,10.1289,10.1289,10.1289,10.1289,10.1289,10.1289,10.1289,10.1289,10.1289,10.1289,10.1289,10.1289,10.1289,10.1289,10.1289,10.1212,10.0096,9.9288,9.8672,9.7556,9.6596,9.5903,9.5903,9.5289,9.4597,9.4595,9.3982,9.3328,9.3323,9.3127,9.29,9.29,9.2903,9.2982,9.3246,9.2707,9.213,9.2168,9.1825,9.1534,9.1683,9.1961,9.2226,9.2304,9.2461,9.1836,8.9492,9.0859,9.1172,8.8203,8.9336,9.0273,8.9648,8.8828,8.832,8.832,8.7812,8.75,8.75,8.75,8.75,8.75,8.75,8.75,8.75,8.75,8.75,8.75,8.75,8.75,8.75,8.75,8.7461,8.7383,8.7187,8.7014,8.6919,8.661,8.6324,8.594,8.5214,8.4561,8.3978,8.2778,8.2163,8.1855,8.1285,8.1093,8.1093,10.1289,10.1289,10.1289,10.1289,10.1289,10.1597,10.252,10.2597,10.2904,10.3789,10.4597,10.5097,10.5097,10.5905,10.6405,10.6405,10.6405,10.6405,10.6405,10.6405,10.6405,10.6405,10.6405,10.5595,10.3901,10.3866,10.2982,10.1289,10.1289,10.1289,10.1289,10.1289,10.1289,10.1289,10.1289,10.1289,10.1289,10.1289,10.1289,10.1289,10.1289,10.1289,10.1096,9.9403,9.8788,9.8558,9.6866,9.5712,9.4982,9.4982,9.4406,9.3676,9.3669,9.3127,9.2476,9.2476,9.1864,9.121,9.121,9.121,9.1402,9.2284,9.1825,9.1248,9.1441,9.1514,9.1638,9.2083,9.2187,9.2265,9.2539,9.2617,9.2617,9.2578,9.1875,9.1289,9.1289,8.9804,8.8711,8.8672,8.8008,8.75,8.75,8.75,8.75,8.75,8.75,8.75,8.75,8.75,8.75,8.75,8.75,8.75,8.75,8.75,8.75,8.75,8.75,8.7344,8.7109,8.7109,8.6884,8.6478,8.6478,8.5901,8.4907,8.4907,8.3862,8.2278,8.2278,8.1816,8.1093,8.1093,8.1093,8.1093,10.1289,10.1289,10.1289,10.1289,10.1289,10.1404,10.1597,10.1712,10.1789,10.202,10.2789,10.3597,10.4212,10.4482,10.5097,10.629,10.579,10.5713,10.6405,10.6405,10.6405,10.6405,10.579,10.498,10.3901,10.3289,10.2405,10.1289,10.1289,10.1289,10.1289,10.1289,10.1019,10.048,10.048,10.048,10.0404,9.9827,9.9904,10.0404,9.9788,9.9519,9.948,9.898,9.8058,9.6981,9.648,9.5328,9.406,9.4095,9.3554,9.2749,9.2133,9.1748,9.1595,9.1595,9.1402,9.121,9.121,9.1287,9.1479,9.171,9.1595,9.1479,9.171,9.1889,9.203,9.2185,9.2344,9.25,9.2578,9.2617,9.2383,9.1797,9.1484,9.0859,8.9648,8.9023,8.8476,8.7929,8.7656,8.75,8.75,8.75,8.75,8.75,8.75,8.75,8.75,8.75,8.75,8.75,8.75,8.75,8.75,8.75,8.75,8.75,8.7304,8.7187,8.7109,8.6794,8.6621,8.644,8.5709,8.5214,8.483,8.3593,8.2778,8.224,8.1701,8.1285,8.1093,8.1093,8.1093,8.1093,10.1289,10.1289,10.1289,10.1289,10.1289,10.1289,10.1289,10.1289,10.1289,10.1289,10.2097,10.2789,10.3289,10.3712,10.4289,10.529,10.4905,10.4789,10.5405,10.5405,10.529,10.4905,10.4097,10.352,10.3403,10.2481,10.152,10.0288,10.0673,10.0596,10.0288,10.0673,10.0404,9.9596,9.9596,9.9596,9.9558,9.9019,9.9096,9.9519,9.9019,9.8596,9.825,9.7943,9.6981,9.5749,9.5403,9.4403,9.3213,9.3246,9.2669,9.1864,9.1364,9.121,9.121,9.121,9.121,9.121,9.1287,9.1402,9.1518,9.171,9.1716,9.1721,9.1954,9.211,9.2226,9.2344,9.25,9.25,9.2148,9.2109,9.1797,9.0937,9.0508,8.9883,8.8867,8.8437,8.8047,8.7578,8.75,8.75,8.75,8.75,8.75,8.75,8.75,8.75,8.75,8.75,8.75,8.75,8.7383,8.7344,8.7344,8.7265,8.7265,8.7344,8.7109,8.6928,8.6845,8.6621,8.6286,8.5824,8.5176,8.4522,8.3785,8.274,8.2124,8.1778,8.1285,8.1093,8.1093,8.1093,8.1093,8.1093,10.1289,10.1289,10.1289,10.1289,10.1289,10.1289,10.1289,10.1289,10.1289,10.1289,10.202,10.252,10.2597,10.3212,10.3712,10.3905,10.3905,10.3905,10.3905,10.3789,10.3405,10.2597,10.1712,10.1481,10.2213,10.152,10.0327,9.8788,9.9596,9.9596,9.8827,9.9634,9.9519,9.8673,9.8711,9.8671,9.8709,9.8596,9.8634,9.8671,9.8517,9.7979,9.721,9.6365,9.5557,9.4674,9.3862,9.3054,9.2399,9.2399,9.1825,9.121,9.121,9.121,9.1248,9.1248,9.1248,9.1287,9.1479,9.1556,9.163,9.1991,9.1981,9.1914,9.2187,9.2187,9.2187,9.2422,9.2422,9.2148,9.1328,9.1172,9.0898,9.0039,8.9219,8.8672,8.8594,8.7969,8.75,8.75,8.75,8.75,8.75,8.75,8.75,8.75,8.75,8.75,8.75,8.75,8.75,8.7461,8.7226,8.7108,8.706,8.6865,8.6865,8.706,8.6865,8.665,8.6363,8.6363,8.5786,8.4791,8.4714,8.3785,8.2278,8.2201,8.1778,8.1093,8.1093,8.1093,8.1093,8.1093,8.1093,8.1093,10.1212,10.1289,10.1289,10.1289,10.1289,10.1289,10.1289,10.1289,10.1289,10.1289,10.152,10.1789,10.252,10.2212,10.2404,10.3789,10.3905,10.3905,10.3905,10.3289,10.2789,10.2597,10.1212,10.0096,9.9635,9.9442,9.9172,9.8788,9.898,9.8981,9.8788,9.8981,9.8634,9.7788,9.7787,9.7787,9.7749,9.7096,9.7211,9.7672,9.6365,9.5712,9.5443,9.4593,9.3746,9.3054,9.2823,9.2207,9.1479,9.1479,9.1364,9.121,9.121,9.1325,9.1441,9.1441,9.1556,9.1748,9.1787,9.1937,9.1925,9.1392,9.1349,9.1601,9.2344,9.1992,9.1523,9.1562,9.1054,9.0508,9.0312,9.0273,9.0,8.9101,8.8828,8.8476,8.7851,8.7617,8.75,8.75,8.75,8.75,8.75,8.75,8.75,8.75,8.75,8.75,8.75,8.75,8.7383,8.7187,8.7148,8.7026,8.6855,8.6675,8.6675,8.6855,8.6636,8.6163,8.5483,8.533,8.4753,8.3835,8.317,8.2663,8.224,8.1624,8.1246,8.1093,8.1093,8.1093,8.1093,8.1093,8.1093,8.1093,10.0712,10.1019,10.1289,10.1289,10.1289,10.1289,10.1289,10.1289,10.1289,10.1289,10.1289,10.152,10.1904,10.1597,10.1712,10.2597,10.2712,10.2712,10.2712,10.1904,10.1212,10.0789,9.9558,9.8481,9.7634,9.7596,9.7596,9.7595,9.7979,9.7979,9.7635,9.8018,9.771,9.6903,9.6903,9.6903,9.6903,9.648,9.6288,9.6249,9.5328,9.452,9.3749,9.3284,9.2592,9.1864,9.1864,9.1595,9.121,9.121,9.121,9.121,9.1325,9.1402,9.1534,9.1661,9.1489,9.1295,9.145,9.1256,9.093,9.0614,9.0586,9.0781,9.125,9.1015,9.0664,9.0664,9.0312,8.9883,8.9453,8.9375,8.9101,8.8242,8.8125,8.7969,8.7578,8.75,8.75,8.75,8.75,8.75,8.75,8.75,8.75,8.75,8.75,8.7422,8.7304,8.7304,8.7187,8.6953,8.6863,8.6549,8.6055,8.5863,8.556,8.5291,8.556,8.5291,8.4412,8.4324,8.3785,8.2945,8.2509,8.2086,8.1701,8.1246,8.1093,8.1093,8.1093,8.1093,8.1093,8.1093,8.1093,8.1093,10.0212,10.0712,10.1289,10.1289,10.1289,10.1289,10.1289,10.1289,10.1289,10.1289,10.1289,10.1289,10.1289,10.1289,10.1289,10.1289,10.1289,10.1212,10.1096,10.0289,9.9481,9.8634,9.775,9.698,9.6326,9.6288,9.6288,9.6288,9.6942,9.6942,9.6326,9.698,9.6942,9.6288,9.6288,9.6211,9.6095,9.6095,9.5558,9.4789,9.4635,9.3749,9.2476,9.2322,9.1825,9.121,9.121,9.121,9.121,9.1248,9.1248,9.1287,9.1479,9.149,9.145,9.1682,9.1133,9.0547,9.0781,9.0312,8.9765,8.9765,8.9765,8.9726,8.9609,8.9687,8.9765,8.9765,8.9687,8.9336,8.8633,8.8476,8.8281,8.7617,8.75,8.75,8.75,8.75,8.75,8.75,8.75,8.75,8.75,8.75,8.7461,8.7422,8.7422,8.7304,8.707,8.7053,8.6873,8.6522,8.6359,8.5863,8.4945,8.4753,8.4253,8.3374,8.4099,8.4099,8.3374,8.3394,8.2925,8.2086,8.2086,8.1739,8.1093,8.1093,8.1093,8.1093,8.1093,8.1093,8.1093,8.1093,8.1093,8.1093,9.9981,10.0712,10.1289,10.1289,10.1289,10.1289,10.1289,10.1289,10.1289,10.1289,10.1289,10.1289,10.1289,10.1289,10.1289,10.1289,10.1289,10.1019,10.0289,9.9442,9.8596,9.7711,9.6903,9.6403,9.6288,9.6288,9.6288,9.6288,9.6403,9.6403,9.6288,9.6403,9.6403,9.6288,9.6288,9.5903,9.5174,9.5174,9.4674,9.383,9.3133,9.2707,9.2438,9.1633,9.1287,9.121,9.121,9.121,9.1248,9.1402,9.1441,9.1479,9.1748,9.1488,9.1072,9.1093,9.0625,9.0078,9.0117,9.0039,8.9804,8.9062,8.8867,8.8672,8.8008,8.8398,8.8867,8.8867,8.832,8.7812,8.7695,8.7656,8.7617,8.7539,8.75,8.75,8.75,8.75,8.75,8.75,8.75,8.75,8.75,8.75,8.7383,8.7187,8.7148,8.707,8.6836,8.6825,8.6394,8.5439,8.5382,8.4868,8.3835,8.3817,8.3317,8.2509,8.2624,8.2586,8.2509,8.2471,8.2047,8.1246,8.1246,8.1208,8.1093,8.1093,8.1093,8.1093,8.1093,8.1093,8.1093,8.1093,8.1093,8.1093,9.8673,9.9712,10.0596,10.0596,10.1019,10.1289,10.1289,10.1289,10.1289,10.1289,10.1289,10.1289,10.1289,10.1289,10.1289,10.1289,10.0904,10.0481,10.0096,9.8827,9.7904,9.7519,9.6749,9.6288,9.6288,9.6288,9.6288,9.6288,9.6288,9.6288,9.6288,9.6288,9.6288,9.6288,9.5789,9.5366,9.4982,9.448,9.3787,9.3018,9.2669,9.2207,9.171,9.1364,9.121,9.121,9.1325,9.1364,9.1402,9.1633,9.1399,9.1046,9.1319,9.0898,9.0312,9.039,8.9883,8.9258,8.9258,8.8945,8.8515,8.8125,8.8047,8.7929,8.7578,8.7773,8.8047,8.8047,8.7734,8.75,8.75,8.75,8.75,8.75,8.75,8.75,8.75,8.75,8.75,8.75,8.7383,8.7265,8.7265,8.7187,8.707,8.6953,8.6908,8.6612,8.5951,8.5882,8.5406,8.4335,8.4324,8.3824,8.2901,8.2855,8.2432,8.1662,8.1662,8.1662,8.1662,8.1662,8.1439,8.1093,8.1093,8.1093,8.1093,8.1093,8.1093,8.1093,8.1093,8.1093,8.1093,8.1093,8.1093,8.1093]},{"header":{"parameterUnit":"m.s-1","parameterCategory":1,"la1":30.6,"la2":28.766,"lo1":-90.7593,"lo2":-88.6598,"dx":0.0162,"dy":0.0183,"nx":116,"ny":114,"refTime":"2022-11-09T06:00:00:Z","depth":0,"parameterNumber":3,"parameterNumberName":"V-component_of_WINDS"},"data":[0.0,0.0,0.0,0.0,0.0,0.0,0.0,0.0,0.0,0.0,0.0,0.0,0.0,0.0,0.0,0.0,0.0,0.0,0.0,0.0,0.0,0.0,0.0,0.0,0.0,0.0,0.0,0.0,0.0,0.0,0.0,0.0,0.0,0.0,0.0,0.0,0.0,0.0,0.0,0.0,0.0,0.0,0.0,0.0,0.0,0.0,0.0,0.0,0.0,0.0,0.0,0.0,0.0,0.0,0.0,0.0,0.0,0.0,0.0,0.0,0.0,0.0,0.0,0.0,0.0,0.0,0.0,0.0,0.0,0.0,0.0,0.0,0.0,0.0,0.0,0.0,0.0,0.0,0.0,0.0,0.0,0.0,0.0,0.0,0.0,0.0,0.0,0.0,0.0,0.0,0.0,0.0,0.0,0.0,0.0,0.0,0.0,0.0,0.0,0.0,0.0,0.0,0.0,0.0,0.0,0.0,0.0,0.0,0.0,0.0,0.0,0.0,0.0,0.0,0.0,0.0,0.0,0.0,0.0,0.0,0.0,0.0,0.0,0.0,0.0,0.0,0.0,0.0,0.0,0.0,0.0,0.0,0.0,0.0,0.0,0.0,0.0,0.0,0.0,0.0,0.0,0.0,0.0,0.0,0.0,0.0,0.0,0.0,0.0,0.0,0.0,0.0,0.0,0.0,0.0,0.0,0.0,0.0,0.0,0.0,0.0,0.0,0.0,0.0,0.0,0.0,0.0,0.0,0.0,0.0,0.0,0.0,0.0,0.0,0.0,0.0,0.0,0.0,0.0,0.0,0.0,0.0,0.0,0.0,0.0,0.0,0.0,0.0,0.0,0.0,0.0,0.0,0.0,0.0,0.0,0.0,0.0,0.0,0.0,0.0,0.0,0.0,0.0,0.0,0.0,0.0,0.0,0.0,0.0,0.0,0.0,0.0,0.0,0.0,0.0,0.0,0.0,0.0,0.0,0.0,0.0,0.0,0.0,0.0,0.0,0.0,0.0,0.0,0.0,0.0,0.0,0.0,0.0,0.0,0.0,0.0,0.0,0.0,0.0,0.0,0.0,0.0,0.0,0.0,0.0,0.0,0.0,0.0,0.0,0.0,0.0,0.0,0.0,0.0,0.0,0.0,0.0,0.0,0.0,0.0,0.0,0.0,0.0,0.0,0.0,0.0,0.0,0.0,0.0,0.0,0.0,0.0,0.0,0.0,0.0,0.0,0.0,0.0,0.0,0.0,0.0,0.0,0.0,0.0,0.0,0.0,0.0,0.0,0.0,0.0,0.0,0.0,0.0,0.0,0.0,0.0,0.0,0.0,0.0,0.0,0.0,0.0,0.0,0.0,0.0,0.0,0.0,0.0,0.0,0.0,0.0,0.0,0.0,0.0,0.0,0.0,0.0,0.0,0.0,0.0,0.0,0.0,0.0,0.0,0.0,0.0,0.0,0.0,0.0,0.0,0.0,0.0,0.0,0.0,0.0,0.0,0.0,0.0,0.0,0.0,0.0,0.0,0.0,0.0,0.0,0.0,0.0,0.0,0.0,0.0,0.0,0.0,0.0,0.0,0.0,0.0,0.0,0.0,0.0,0.0,0.0,0.0,0.0,0.0,0.0,0.0,0.0,0.0,0.0,0.0,0.0,0.0,0.0,0.0,0.0,0.0,0.0,0.0,0.0,0.0,0.0,0.0,0.0,0.0,0.0,0.0,0.0,0.0,0.0,0.0,0.0,0.0,0.0,0.0,0.0,0.0,0.0,0.0,0.0,0.0,0.0,0.0,0.0,0.0,0.0,0.0,0.0,0.0,0.0,0.0,0.0,0.0,0.0,0.0,0.0,0.0,0.0,0.0,0.0,0.0,0.0,0.0,0.0,0.0,0.0,0.0,0.0,0.0,0.0,0.0,0.0,0.0,0.0,0.0,0.0,0.0,0.0,0.0,0.0,0.0,0.0,0.0,0.0,0.0,0.0,0.0,0.0,0.0,0.0,0.0,0.0,0.0,0.0,0.0,0.0,0.0,0.0,0.0,0.0,0.0,0.0,0.0,0.0,0.0,0.0,0.0,0.0,0.0,0.0,0.0,0.0,0.0,0.0,0.0,0.0,0.0,0.0,0.0,0.0,0.0,0.0,0.0,0.0,0.0,0.0,0.0,0.0,0.0,0.0,0.0,0.0,0.0,0.0,0.0,0.0,0.0,0.0,0.0,0.0,0.0,0.0,0.0,0.0,0.0,0.0,0.0,0.0,0.0,0.0,0.0,0.0,0.0,0.0,0.0,0.0,0.0,0.0,0.0,0.0,0.0,0.0,0.0,0.0,0.0,0.0,0.0,0.0,0.0,0.0,0.0,0.0,0.0,0.0,0.0,0.0,0.0,0.0,0.0,0.0,0.0,0.0,0.0,0.0,0.0,0.0,0.0,0.0,0.0,0.0,0.0,0.0,0.0,0.0,0.0,0.0,0.0,0.0,0.0,0.0,0.0,0.0,0.0,0.0,0.0,0.0,0.0,0.0,0.0,0.0,0.0,0.0,0.0,0.0,0.0,0.0,0.0,0.0,0.0,0.0,0.0,0.0,0.0,0.0,0.0,0.0,0.0,0.0,0.0,0.0,0.0,0.0,0.0,0.0,0.0,0.0,0.0,0.0,0.0,0.0,0.0,0.0,0.0,0.0,0.0,0.0,0.0,0.0,0.0,0.0,0.0,0.0,0.0,0.0,0.0,0.0,0.0,0.0,0.0,0.0,0.0,0.0,0.0,0.0,0.0,0.0,0.0,0.0,0.0,0.0,0.0,0.0,0.0,0.0,0.0,0.0,0.0,0.0,0.0,0.0,0.0,0.0,0.0,0.0,0.0,0.0,0.0,0.0,0.0,0.0,0.0,0.0,0.0,0.0,0.0,0.0,0.0,0.0,0.0,0.0,0.0,0.0,0.0,0.0,0.0,0.0,0.0,0.0,0.0,0.0,0.0,0.0,0.0,0.0,0.0,0.0,0.0,0.0,0.0,0.0,0.0,0.0,0.0,0.0,0.0,0.0,0.0,0.0,0.0,0.0,0.0,0.0,0.0,0.0,0.0,0.0,0.0,0.0,0.0,0.0,0.0,0.0,0.0,0.0,0.0,0.0,0.0,0.0,0.0,0.0,0.0,0.0,0.0,0.0,0.0,0.0,0.0,0.0,0.0,0.0,0.0,0.0,0.0,0.0,0.0,0.0,0.0,0.0,0.0,0.0,0.0,0.0,0.0,0.0,0.0,0.0,0.0,0.0,0.0,0.0,0.0,0.0,0.0,0.0,0.0,0.0,0.0,0.0,0.0,0.0,0.0,0.0,0.0,0.0,0.0,0.0,0.0,0.0,0.0,0.0,0.0,0.0,0.0,0.0,0.0,0.0,0.0,0.0,0.0,0.0,0.0,0.0,0.0,0.0,0.0,0.0,0.0,0.0,0.0,0.0,0.0,0.0,0.0,0.0,0.0,0.0,0.0,0.0,0.0,0.0,0.0,0.0,0.0,0.0,0.0,0.0,0.0,0.0,0.0,0.0,0.0,0.0,0.0,0.0,0.0,0.0,0.0,0.0,0.0,0.0,0.0,0.0,0.0,0.0,0.0,0.0,0.0,0.0,0.0,0.0,0.0,0.0,0.0,0.0,0.0,0.0,0.0,0.0,0.0,0.0,0.0,0.0,0.0,0.0,0.0,0.0,0.0,0.0,0.0,0.0,0.0,0.0,0.0,0.0,0.0,0.0,0.0,0.0,0.0,0.0,0.0,0.0,0.0,0.0,0.0,0.0,0.0,0.0,0.0,0.0,0.0,0.0,0.0,0.0,0.0,0.0,0.0,0.0,0.0,0.0,0.0,0.0,0.0,0.0,0.0,0.0,0.0,0.0,0.0,0.0,0.0,0.0,0.0,0.0,0.0,0.0,0.0,0.0,0.0,0.0,0.0,0.0,0.0,0.0,0.0,0.0,0.0,0.0,0.0,0.0,0.0,0.0,0.0,0.0,0.0,0.0,0.0,0.0,0.0,0.0,0.0,0.0,0.0,0.0,0.0,0.0,0.0,0.0,0.0,0.0,0.0,0.0,0.0,0.0,0.0,0.0,0.0,0.0,0.0,0.0,0.0,0.0,0.0,0.0,0.0,0.0,0.0,0.0,0.0,0.0,0.0,0.0,0.0,0.0,0.0,0.0,0.0,0.0,0.0,0.0,0.0,0.0,0.0,0.0,0.0,0.0,0.0,0.0,0.0,0.0,0.0,0.0,0.0,0.0,0.0,0.0,0.0,0.0,0.0,0.0,0.0,0.0,0.0,0.0,0.0,0.0,0.0,0.0,0.0,0.0,0.0,0.0,0.0,0.0,0.0,0.0,0.0,0.0,0.0,0.0,0.0,0.0,0.0,0.0,0.0,0.0,0.0,0.0,0.0,0.0,0.0,0.0,0.0,0.0,0.0,0.0,0.0,0.0,0.0,0.0,0.0,0.0,0.0,0.0,0.0,0.0,0.0,0.0,0.0,0.0,0.0,0.0,0.0,0.0,0.0,0.0,0.0,0.0,0.0,0.0,0.0,0.0,0.0,0.0,0.0,0.0,0.0,0.0,0.0,0.0,0.0,0.0,0.0,0.0,0.0,0.0,0.0,0.0,0.0,0.0,0.0,0.0,0.0,0.0,0.0,0.0,0.0,0.0,0.0,0.0,0.0,0.0,0.0,0.0,0.0,0.0,0.0,0.0,0.0,0.0,0.0,0.0,0.0,0.0,0.0,0.0,0.0,0.0,0.0,0.0,0.0,0.0,0.0,0.0,0.0,0.0,0.0,0.0,0.0,0.0,0.0,0.0,0.0,0.0,0.0,0.0,0.0,0.0,0.0,0.0,0.0,0.0,0.0,0.0,0.0,0.0,0.0,0.0,0.0,0.0,0.0,0.0,0.0,0.0,0.0,0.0,0.0,0.0,0.0,0.0,0.0,0.0,0.0,0.0,0.0,0.0,0.0,0.0,0.0,0.0,0.0,0.0,0.0,0.0,0.0,0.0,0.0,0.0,0.0,0.0,0.0,0.0,0.0,0.0,0.0,0.0,0.0,0.0,0.0,0.0,0.0,0.0,0.0,0.0,0.0,0.0,0.0,0.0,0.0,0.0,0.0,0.0,0.0,0.0,0.0,0.0,0.0,0.0,0.0,0.0,0.0,0.0,0.0,0.0,0.0,0.0,0.0,0.0,0.0,0.0,0.0,0.0,0.0,0.0,0.0,0.0,0.0,0.0,0.0,0.0,0.0,0.0,0.0,0.0,0.0,0.0,0.0,0.0,0.0,0.0,0.0,0.0,0.0,0.0,0.0,0.0,0.0,0.0,0.0,0.0,0.0,0.0,0.0,0.0,0.0,0.0,0.0,0.0,0.0,0.0,0.0,0.0,0.0,0.0,0.0,0.0,0.0,0.0,0.0,0.0,0.0,0.0,0.0,0.0,0.0,0.0,0.0,0.0,0.0,0.0,0.0,0.0,0.0,0.0,0.0,0.0,0.0,0.0,0.0,0.0,0.0,0.0,0.0,0.0,0.0,0.0,0.0,0.0,0.0,0.0,0.0,0.0,0.0,0.0,0.0,0.0,0.0,0.0,0.0,0.0,0.0,0.0,0.0,0.0,0.0,0.0,0.0,0.0,0.0,0.0,0.0,0.0,0.0,0.0,0.0,0.0,0.0,0.0,0.0,0.0,0.0,0.0,0.0,0.0,0.0,0.0,0.0,0.0,0.0,0.0,0.0,0.0,0.0,0.0,0.0,0.0,0.0,0.0,0.0,0.0,0.0,0.0,0.0,0.0,0.0,0.0,0.0,0.0,0.0,0.0,0.0,0.0,0.0,0.0,0.0,0.0,0.0,0.0,0.0,0.0,0.0,0.0,0.0,0.0,0.0,0.0,0.0,0.0,0.0,0.0,0.0,0.0,0.0,0.0,0.0,0.0,0.0,0.0,0.0,0.0,0.0,0.0,0.0,0.0,0.0,0.0,0.0,0.0,0.0,0.0,0.0,0.0,0.0,0.0,0.0,0.0,0.0,0.0,0.0,0.0,0.0,0.0,0.0,0.0,0.0,0.0,0.0,0.0,0.0,0.0,0.0,0.0,0.0,0.0,0.0,0.0,0.0,0.0,0.0,0.0,0.0,0.0,0.0,0.0,0.0,0.0,0.0,0.0,0.0,0.0,0.0,0.0,0.0,0.0,0.0,0.0,-0.2032,-0.3555,-0.3824,-0.6056,0.0,0.0,0.0,0.0,0.0,0.0,0.0,-0.7072,-0.7416,-0.7499,-0.7489,-0.757,-0.7667,-0.7979,-0.503,-0.3732,-0.3804,0.0,0.0,0.0,0.0,0.0,0.0,0.0,0.0,0.0,0.0,0.0,0.0,0.0,0.0,0.0,0.0,0.0,0.0,0.0,0.0,0.0,0.0,0.0,0.0,0.0,0.0,0.0,0.0,0.0,0.0,0.0,0.0,0.0,0.0,0.0,0.0,0.0,0.0,0.0,0.0,0.0,0.0,0.0,0.0,0.0,0.0,0.0,0.0,0.0,0.0,0.0,0.0,0.0,0.0,0.0,0.0,0.0,0.0,0.0,0.0,0.0,0.0,0.0,0.0,0.0,0.0,0.0,0.0,0.0,0.0,0.0,0.0,0.0,0.0,0.0,0.0,0.0,0.0,0.0,0.0,0.0,0.0,0.0,0.0,0.0,0.0,0.0,0.0,0.0,0.0,0.0,0.0,0.0,-0.1287,-0.1384,-0.4908,-0.7482,-0.7956,-0.7999,-0.7999,-0.8044,-0.7557,0.0,0.0,0.0,0.0,-0.7259,-0.7746,-0.7984,-0.798,-0.7055,-0.6609,-0.6457,-0.2018,0.0,-0.0215,-0.4591,0.0,0.0,0.0,0.0,0.0,0.0,0.0,0.0,0.0,0.0,0.0,0.0,0.0,0.0,0.0,0.0,0.0,0.0,0.0,0.0,0.0,0.0,0.0,0.0,0.0,0.0,0.0,0.0,0.0,0.0,0.0,0.0,0.0,0.0,0.0,0.0,0.0,0.0,0.0,0.0,0.0,0.0,0.0,0.0,0.0,0.0,0.0,0.0,0.0,0.0,0.0,0.0,0.0,0.0,0.0,0.0,0.0,0.0,0.0,0.0,0.0,0.0,0.0,0.0,0.0,0.0,0.0,0.0,0.0,0.0,0.0,0.0,0.0,0.0,0.0,0.0,0.0,0.0,0.0,0.0,0.0,0.0,0.0,0.0,0.0,0.0,0.0,0.0,0.0,0.0,0.0,0.0,-0.6322,-0.6901,-0.7528,-0.7918,-0.8014,-0.8041,-0.797,-0.7952,-0.7945,0.0,0.0,0.0,-0.7903,-0.7841,-0.7945,-0.8038,-0.8001,-0.3349,-0.1099,-0.0999,-0.038,0.0,-0.0,-0.0709,-0.0667,0.0,0.0,0.0,0.0,0.0,0.0,0.0,0.0,0.0,0.0,0.0,0.0,0.0,0.0,0.0,0.0,0.0,0.0,0.0,0.0,0.0,0.0,0.0,0.0,0.0,0.0,0.0,0.0,0.0,0.0,0.0,0.0,0.0,0.0,0.0,0.0,0.0,0.0,0.0,0.0,0.0,0.0,0.0,0.0,0.0,0.0,0.0,0.0,0.0,0.0,0.0,0.0,0.0,0.0,0.0,0.0,0.0,0.0,0.0,0.0,0.0,0.0,0.0,0.0,0.0,0.0,0.0,0.0,0.0,0.0,0.0,0.0,0.0,0.0,0.0,0.0,0.0,0.0,0.0,0.0,0.0,0.0,0.0,0.0,0.0,0.0,0.0,0.0,0.0,0.0,0.0,0.0,0.0,-0.8045,-0.8031,-0.8031,-0.5256,-0.3479,-0.3485,-0.348,0.0,0.0,-0.3528,-0.354,-0.3472,-0.3514,-0.3518,-0.3448,-0.1115,0.0,0.0,0.0,0.0,0.0,0.0,0.0,0.0,0.0,0.0,0.0,0.0,0.0,0.0,0.0,0.0,0.0,0.0,0.0,0.0,0.0,0.0,0.0,0.0,0.0,0.0,0.0,0.0,0.0,0.0,0.0,0.0,0.0,0.0,0.0,0.0,0.0,0.0,0.0,0.0,0.0,0.0,0.0,0.0,0.0,0.0,0.0,0.0,0.0,0.0,0.0,0.0,0.0,0.0,0.0,0.0,0.0,0.0,0.0,0.0,0.0,0.0,0.0,0.0,0.0,0.0,0.0,0.0,0.0,0.0,0.0,0.0,0.0,0.0,0.0,0.0,0.0,0.0,0.0,0.0,0.0,0.0,0.0,0.0,0.0,0.0,0.0,0.0,0.0,0.0,0.0,0.0,0.0,0.0,0.0,0.0,0.0,0.0,0.0,-0.609,-0.5989,-0.5971,-0.5976,-0.2335,0.0,0.0,0.0,0.0,0.0,0.0,0.0,0.0,0.0,0.0,0.0,0.0,0.0,0.0,0.0,0.0,0.0,0.0,0.0,0.0,0.0,0.0,0.0,0.0,0.0,0.0,0.0,0.0,0.0,0.0,0.0,0.0,0.0,0.0,0.0,0.0,0.0,0.0,0.0,0.0,0.0,0.0,0.0,0.0,0.0,0.0,0.0,0.0,0.0,0.0,0.0,0.0,0.0,0.0,0.0,0.0,0.0,0.0,0.0,0.0,0.0,0.0,0.0,0.0,0.0,0.0,0.0,0.0,0.0,0.0,0.0,0.0,0.0,0.0,0.0,0.0,0.0,0.0,0.0,0.0,0.0,0.0,0.0,0.0,0.0,0.0,0.0,0.0,0.0,0.0,0.0,0.0,0.0,0.0,0.0,0.0,0.0,0.0,0.0,0.0,0.0,0.0,0.0,0.0,0.0,0.0,0.0,0.0,0.0,0.0,-0.6019,-0.0946,-0.0442,-0.0456,-0.0457,-0.0116,0.0,0.0,0.0,0.0,0.0,0.0,0.0,0.0,0.0,0.0,0.0,0.0,0.0,0.0,0.0,0.0,0.0,0.0,0.0,0.0,0.0,0.0,0.0,0.0,0.0,0.0,0.0,0.0,0.0,0.0,0.0,0.0,0.0,0.0,0.0,0.0,0.0,0.0,0.0,0.0,0.0,0.0,0.0,0.0,0.0,0.0,0.0,0.0,0.0,0.0,0.0,0.0,0.0,0.0,0.0,0.0,0.0,0.0,0.0,0.0,0.0,0.0,0.0,0.0,0.0,0.0,0.0,0.0,0.0,0.0,0.0,0.0,0.0,0.0,0.0,0.0,0.0,0.0,0.0,0.0,0.0,0.0,0.0,0.0,0.0,0.0,0.0,0.0,0.0,0.0,0.0,0.0,0.0,0.0,0.0,0.0,0.0,0.0,0.0,0.0,0.0,0.0,-0.4021,-0.456,-0.5115,-0.687,-0.7429,-0.7719,-0.7945,-0.5006,-0.2116,-0.0215,0.0,0.0,0.0,0.0,0.0,0.0,0.0,0.0,0.0,0.0,0.0,0.0,0.0,0.0,0.0,0.0,0.0,0.0,0.0,0.0,0.0,0.0,0.0,0.0,0.0,0.0,0.0,0.0,0.0,0.0,0.0,0.0,0.0,0.0,0.0,0.0,0.0,0.0,0.0,0.0,0.0,0.0,0.0,0.0,0.0,0.0,0.0,0.0,0.0,0.0,0.0,0.0,0.0,0.0,0.0,0.0,0.0,0.0,0.0,0.0,0.0,0.0,0.0,0.0,0.0,0.0,0.0,0.0,0.0,0.0,0.0,0.0,0.0,0.0,0.0,0.0,0.0,0.0,0.0,0.0,0.0,0.0,0.0,0.0,0.0,0.0,0.0,0.0,0.0,0.0,0.0,0.0,0.0,0.0,0.0,0.0,0.0,0.0,0.0,0.0,0.0,0.0,0.0,0.0,0.0,0.0,-0.6507,-0.7442,-0.7442,-0.7393,-0.7787,-0.7309,-0.5522,-0.2215,0.0,0.0,0.0,0.0,0.0,0.0,0.0,0.0,0.0,-0.0948,-0.2965,-0.1129,0.0,0.0,0.0,0.0,0.0,0.0,0.0,0.0,0.0,0.0,0.0,0.0,0.0,0.0,0.0,0.0,0.0,0.0,0.0,0.0,0.0,0.0,0.0,0.0,0.0,0.0,0.0,0.0,0.0,0.0,0.0,0.0,0.0,0.0,0.0,0.0,0.0,0.0,0.0,0.0,0.0,0.0,0.0,0.0,0.0,0.0,0.0,0.0,0.0,0.0,0.0,0.0,0.0,0.0,0.0,0.0,0.0,0.0,0.0,0.0,0.0,0.0,0.0,0.0,0.0,0.0,0.0,0.0,0.0,0.0,0.0,0.0,0.0,0.0,0.0,0.0,0.0,0.0,0.0,0.0,0.0,0.0,0.0,0.0,0.0,0.0,0.0,0.0,0.0,0.0,0.0,0.0,0.0,0.0,0.0,-0.1932,-0.7076,-0.8023,-0.7977,-0.7731,-0.7771,-0.5917,-0.0633,0.0,0.0,0.0,0.0,0.0,0.0,0.0,0.0,0.0,-0.0252,-0.2845,-0.8337,-0.3047,0.0,0.0,0.0,0.0,0.0,0.0,0.0,0.0,0.0,0.0,0.0,0.0,0.0,0.0,0.0,0.0,0.0,0.0,0.0,0.0,0.0,0.0,0.0,0.0,0.0,0.0,0.0,0.0,0.0,0.0,0.0,0.0,0.0,0.0,0.0,0.0,0.0,0.0,0.0,0.0,0.0,0.0,0.0,0.0,0.0,0.0,0.0,0.0,0.0,0.0,0.0,0.0,0.0,0.0,0.0,0.0,0.0,0.0,0.0,0.0,0.0,0.0,0.0,0.0,0.0,0.0,0.0,0.0,0.0,0.0,0.0,0.0,0.0,0.0,0.0,0.0,0.0,0.0,0.0,0.0,0.0,0.0,0.0,0.0,0.0,0.0,0.0,0.0,0.0,0.0,0.0,0.0,0.0,-0.5014,-0.5797,-0.6273,-0.7753,-0.795,-0.6651,-0.2778,-0.2191,-0.1621,-0.0211,0.0,0.0,0.0,0.0,0.0,0.0,0.0,0.0,0.0,-0.4406,-0.5686,-0.256,-0.0904,0.0,0.0,0.0,0.0,0.0,0.0,0.0,0.0,0.0,0.0,0.0,0.0,0.0,0.0,0.0,0.0,0.0,0.0,0.0,0.0,0.0,0.0,0.0,0.0,0.0,0.0,0.0,0.0,0.0,0.0,0.0,0.0,0.0,0.0,0.0,0.0,0.0,0.0,0.0,0.0,0.0,0.0,0.0,0.0,0.0,0.0,0.0,0.0,0.0,0.0,0.0,0.0,0.0,0.0,0.0,0.0,0.0,0.0,0.0,0.0,0.0,0.0,0.0,0.0,0.0,0.0,0.0,0.0,0.0,0.0,0.0,0.0,0.0,0.0,0.0,0.0,0.0,0.0,0.0,0.0,0.0,0.0,0.0,0.0,0.0,0.0,0.0,0.0,0.0,0.0,0.0,0.0,0.0,-0.6983,-0.7992,-0.7972,-0.7972,-0.7979,-0.6242,-0.0802,0.0,0.0,0.0,0.0,0.0,0.0,0.0,0.0,0.0,0.0,-0.1228,-0.3868,-0.7722,-0.6904,-0.0265,0.0,0.0,0.0,0.0,0.0,0.0,0.0,0.0,0.0,0.0,0.0,0.0,0.0,0.0,0.0,0.0,0.0,0.0,0.0,0.0,0.0,0.0,0.0,0.0,0.0,0.0,0.0,0.0,0.0,0.0,0.0,0.0,0.0,0.0,0.0,0.0,0.0,0.0,0.0,0.0,0.0,0.0,0.0,0.0,0.0,0.0,0.0,0.0,0.0,0.0,0.0,0.0,0.0,0.0,0.0,0.0,0.0,0.0,0.0,0.0,0.0,0.0,0.0,0.0,0.0,0.0,0.0,0.0,0.0,0.0,0.0,0.0,0.0,0.0,0.0,0.0,0.0,0.0,0.0,0.0,0.0,0.0,0.0,0.0,0.0,0.0,0.0,0.0,0.0,0.0,0.0,0.0,0.0,0.0,-0.6152,-0.7572,-0.7972,-0.7972,-0.7472,-0.5541,-0.0704,0.0,0.0,0.0,0.0,0.0,0.0,0.0,0.0,0.0,-0.0679,-0.3617,-0.945,-0.9121,-0.6107,-0.0291,0.0,0.0,0.0,0.0,0.0,0.0,0.0,0.0,0.0,0.0,0.0,0.0,0.0,0.0,0.0,0.0,0.0,0.0,0.0,0.0,0.0,0.0,0.0,0.0,0.0,0.0,0.0,0.0,0.0,0.0,0.0,0.0,0.0,0.0,0.0,0.0,0.0,0.0,0.0,0.0,0.0,0.0,0.0,0.0,0.0,0.0,0.0,0.0,0.0,0.0,0.0,0.0,0.0,0.0,0.0,0.0,0.0,0.0,0.0,0.0,0.0,0.0,0.0,0.0,0.0,0.0,0.0,0.0,0.0,0.0,0.0,0.0,0.0,0.0,0.0,0.0,0.0,0.0,0.0,0.0,0.0,0.0,0.0,0.0,0.0,0.0,0.0,0.0,0.0,0.0,0.0,0.0,0.0,0.0,-0.1307,-0.5035,-0.7985,-0.7985,-0.4429,-0.1207,-0.0201,0.0,0.0,0.0,0.0,0.0,0.0,0.0,0.0,0.0,-0.4836,-0.8381,-0.9733,-0.4808,-0.1308,-0.0,0.0,0.0,0.0,0.0,0.0,0.0,0.0,0.0,0.0,0.0,0.0,0.0,0.0,0.0,0.0,0.0,0.0,0.0,0.0,0.0,0.0,0.0,0.0,0.0,0.0,0.0,0.0,0.0,0.0,0.0,0.0,0.0,0.0,0.0,0.0,0.0,0.0,0.0,0.0,0.0,0.0,0.0,0.0,0.0,0.0,0.0,0.0,0.0,0.0,0.0,0.0,0.0,0.0,0.0,0.0,0.0,0.0,0.0,0.0,0.0,0.0,0.0,0.0,0.0,0.0,0.0,0.0,0.0,0.0,0.0,0.0,0.0,0.0,0.0,0.0,0.0,0.0,0.0,0.0,0.0,0.0,0.0,0.0,0.0,0.0,0.0,0.0,0.0,0.0,0.0,0.0,0.0,0.0,0.0,0.0,-0.2113,-0.4024,-0.4024,-0.181,0.0,0.0,0.0,0.0,0.0,0.0,0.0,0.0,0.0,0.0,0.0,-0.2969,-0.4925,-0.4851,-0.1879,0.0,0.0,0.0,0.0,0.0,0.0,0.0,0.0,0.0,0.0,0.0,0.0,0.0,0.0,0.0,0.0,0.0,0.0,0.0,0.0,0.0,0.0,0.0,0.0,0.0,0.0,0.0,0.0,0.0,0.0,0.0,0.0,0.0,0.0,0.0,0.0,0.0,0.0,0.0,0.0,0.0,0.0,0.0,0.0,0.0,0.0,0.0,0.0,0.0,0.0,0.0,0.0,0.0,0.0,0.0,0.0,0.0,0.0,0.0,0.0,0.0,0.0,0.0,0.0,0.0,0.0,0.0,0.0,0.0,0.0,0.0,0.0,0.0,0.0,0.0,0.0,0.0,0.0,0.0,0.0,0.0,0.0,0.0,0.0,0.0,0.0,0.0,0.0,0.0,0.0,0.0,0.0,0.0,0.0,0.0,0.0,0.0,0.0,0.0,0.0,0.0,0.0,0.0,0.0,0.0,0.0,0.0,0.0,0.0,0.0,0.0,0.0,0.0,0.0,0.0,0.0,0.0,0.0,0.0,0.0,0.0,0.0,0.0,0.0,0.0,0.0,0.0,0.0,0.0,0.0,0.0,0.0,0.0,0.0,0.0,0.0,0.0,0.0,0.0,0.0,0.0,0.0,0.0,0.0,0.0,0.0,0.0,0.0,0.0,0.0,0.0,0.0,0.0,0.0,0.0,0.0,0.0,0.0,0.0,0.0,0.0,0.0,0.0,0.0,0.0,0.0,0.0,0.0,0.0,0.0,0.0,0.0,0.0,0.0,0.0,0.0,0.0,0.0,0.0,0.0,0.0,0.0,0.0,0.0,0.0,0.0,0.0,0.0,0.0,0.0,0.0,0.0,0.0,0.0,0.0,0.0,0.0,0.0,0.0,0.0,0.0,0.0,0.0,0.0,0.0,0.0,0.0,0.0,0.0,0.0,0.0,0.0,0.0,0.0,0.0,0.0,0.0,0.0,0.0,0.0,0.0,0.0,0.0,0.0,0.0,0.0,0.0,0.0,0.0,0.0,0.0,0.0,0.0,0.0,0.0,0.0,0.0,0.0,0.0,0.0,0.0,0.0,0.0,0.0,0.0,0.0,0.0,0.0,0.0,0.0,0.0,0.0,0.0,0.0,0.0,0.0,0.0,0.0,0.0,0.0,0.0,0.0,0.0,0.0,0.0,0.0,0.0,0.0,0.0,0.0,0.0,0.0,0.0,0.0,0.0,0.0,0.0,0.0,0.0,0.0,0.0,0.0,0.0,0.0,0.0,0.0,0.0,0.0,0.0,0.0,0.0,0.0,0.0,0.0,0.0,0.0,0.0,0.0,0.0,0.0,0.0,0.0,0.0,0.0,0.0,0.0,0.0,0.0,0.0,0.0,0.0,0.0,0.0,0.0,0.0,0.0,0.0,0.0,0.0,0.0,0.0,0.0,0.0,0.0,0.0,0.0,0.0,0.0,0.0,0.0,0.0,0.0,0.0,0.0,0.0,0.0,0.0,0.0,0.0,0.0,0.0,0.0,0.0,0.0,0.0,0.0,0.0,0.0,0.0,0.0,0.0,0.0,0.0,0.0,0.0,0.0,0.0,0.0,0.0,0.0,0.0,0.0,0.0,0.0,0.0,0.0,0.0,0.0,0.0,0.0,0.0,0.0,0.0,0.0,0.0,0.0,0.0,0.0,0.0,0.0,0.0,0.0,0.0,0.0,0.0,0.0,0.0,0.0,0.0,0.0,0.0,0.0,0.0,0.0,0.0,0.0,0.0,0.0,0.0,0.0,0.0,0.0,0.0,0.0,0.0,0.0,0.0,0.0,0.0,0.0,0.0,0.0,0.0,0.0,0.0,0.0,0.0,0.0,0.0,0.0,0.0,0.0,0.0,0.0,0.0,0.0,0.0,0.0,0.0,0.0,0.0,0.0,0.0,0.0,0.0,0.0,0.0,0.0,0.0,0.0,0.0,0.0,0.0,0.0,0.0,0.0,0.0,0.0,0.0,0.0,0.0,0.0,0.0,0.0,0.0,0.0,0.0,0.0,0.0,0.0,0.0,0.0,0.0,0.0,0.0,0.0,0.0,0.0,0.0,0.0,0.0,0.0,0.0,0.0,0.0,0.0,0.0,0.0,0.0,0.0,0.0,0.0,0.0,0.0,0.0,0.0,0.0,0.0,0.0,0.0,0.0,0.0,0.0,0.0,0.0,0.0,0.0,0.0,-0.0419,-0.2173,-0.1434,0.0,0.0,0.0,0.0,0.0,0.0,0.0,0.0,0.0,0.0,0.0,0.0,0.0,0.0,0.0,0.0,0.0,0.0,0.0,0.0,0.0,0.0,0.0,0.0,0.0,0.0,0.0,0.0,0.0,0.0,0.0,0.0,0.0,0.0,0.0,0.0,0.0,0.0,0.0,0.0,0.0,0.0,0.0,0.0,0.0,0.0,0.0,0.0,0.0,0.0,0.0,0.0,0.0,0.0,0.0,0.0,0.0,0.0,0.0,0.0,0.0,0.0,0.0,0.0,0.0,0.0,0.0,0.0,0.0,0.0,0.0,0.0,0.0,0.0,0.0,0.0,0.0,0.0,0.0,0.0,0.0,0.0,0.0,0.0,0.0,0.0,0.0,0.0,0.0,0.0,0.0,0.0,0.0,0.0,0.0,0.0,0.0,0.0,0.0,0.0,0.0,0.0,0.0,0.0,0.0,0.0,0.0,0.0,0.0,0.0,0.0,0.0,0.0,-0.1268,-0.7611,-0.4936,0.0,0.0,0.0,0.0,0.0,0.0,0.0,0.0,0.0,0.0,0.0,0.0,0.0,0.0,0.0,0.0,0.0,0.0,0.0,0.0,0.0,0.0,0.0,0.0,0.0,0.0,0.0,0.0,0.0,0.0,0.0,0.0,0.0,0.0,0.0,0.0,0.0,0.0,0.0,0.0,0.0,0.0,0.0,0.0,0.0,0.0,0.0,0.0,0.0,0.0,0.0,0.0,0.0,0.0,0.0,0.0,0.0,0.0,0.0,0.0,0.0,0.0,0.0,0.0,0.0,0.0,0.0,0.0,0.0,0.0,0.0,0.0,0.0,0.0,0.0,0.0,0.0,0.0,0.0,0.0,0.0,0.0,0.0,0.0,0.0,0.0,0.0,0.0,0.0,0.0,0.0,0.0,0.0,0.0,0.0,0.0,0.0,0.0,0.0,0.0,0.0,0.0,0.0,0.0,0.0,0.0,-0.2778,-0.6419,-0.6011,-0.5913,-0.599,-0.6369,-0.6494,-0.6092,-0.3934,-0.4769,-0.5566,-0.1201,0.0,0.0,0.0,0.0,0.0,0.0,0.0,0.0,0.0,0.0,0.0,0.0,0.0,0.0,0.0,0.0,0.0,0.0,0.0,0.0,0.0,0.0,0.0,0.0,0.0,0.0,0.0,0.0,0.0,0.0,0.0,0.0,0.0,0.0,0.0,0.0,0.0,0.0,0.0,0.0,0.0,0.0,0.0,0.0,0.0,0.0,0.0,0.0,0.0,0.0,0.0,0.0,0.0,0.0,0.0,0.0,0.0,0.0,0.0,0.0,0.0,0.0,0.0,0.0,0.0,0.0,0.0,0.0,0.0,0.0,0.0,0.0,0.0,0.0,0.0,0.0,0.0,0.0,0.0,0.0,0.0,0.0,0.0,0.0,0.0,0.0,0.0,0.0,0.0,0.0,0.0,0.0,0.0,0.0,0.0,0.0,0.0,0.0,0.0,0.0,0.0,0.0,0.0,0.0,-0.4088,-0.9398,-0.9054,-0.8908,-0.8995,-0.9413,-0.9637,-0.903,-0.4707,-0.4893,-0.5428,-0.1114,0.0,0.0,0.0,0.0,0.0,0.0,0.0,0.0,0.0,0.0,0.0,0.0,0.0,0.0,0.0,0.0,0.0,0.0,0.0,0.0,0.0,0.0,0.0,0.0,0.0,0.0,0.0,0.0,0.0,0.0,0.0,0.0,0.0,0.0,0.0,0.0,0.0,0.0,0.0,0.0,0.0,0.0,0.0,0.0,0.0,0.0,0.0,0.0,0.0,0.0,0.0,0.0,0.0,0.0,0.0,0.0,0.0,0.0,0.0,0.0,0.0,0.0,0.0,0.0,0.0,0.0,0.0,0.0,0.0,0.0,0.0,0.0,0.0,0.0,0.0,0.0,0.0,0.0,0.0,0.0,0.0,0.0,0.0,0.0,0.0,0.0,0.0,0.0,0.0,0.0,0.0,0.0,0.0,0.0,0.0,0.0,0.0,0.0,0.0,0.0,0.0,0.0,0.0,0.0,-0.3587,-0.8469,-0.847,-0.8458,-0.845,-0.8469,-0.8866,-0.9269,-0.9292,-0.4889,0.0,0.0,0.0,0.0,0.0,0.0,0.0,0.0,0.0,0.0,0.0,0.0,0.0,0.0,0.0,0.0,0.0,0.0,0.0,0.0,0.0,0.0,0.0,0.0,0.0,0.0,0.0,0.0,0.0,0.0,0.0,0.0,0.0,0.0,0.0,0.0,0.0,0.0,0.0,0.0,0.0,0.0,0.0,0.0,0.0,0.0,0.0,0.0,0.0,0.0,0.0,0.0,0.0,0.0,0.0,0.0,0.0,0.0,0.0,0.0,0.0,0.0,0.0,0.0,0.0,0.0,0.0,0.0,0.0,0.0,0.0,0.0,0.0,0.0,0.0,0.0,0.0,0.0,0.0,0.0,0.0,0.0,0.0,0.0,0.0,0.0,0.0,0.0,0.0,0.0,0.0,0.0,0.0,0.0,0.0,0.0,0.0,0.0,0.0,0.0,0.0,0.0,0.0,0.0,0.0,0.0,-0.1027,-0.2242,-0.2244,-0.2234,-0.2267,-0.2315,-0.2419,-0.2509,-0.2507,-0.1276,0.0,0.0,0.0,0.0,0.0,0.0,0.0,0.0,0.0,0.0,0.0,0.0,0.0,0.0,0.0,0.0,0.0,0.0,0.0,0.0,0.0,0.0,0.0,0.0,0.0,0.0,0.0,0.0,0.0,0.0,0.0,0.0,0.0,0.0,0.0,0.0,0.0,0.0,0.0,0.0,0.0,0.0,0.0,0.0,0.0,0.0,0.0,0.0,0.0,0.0,0.0,0.0,0.0,0.0,0.0,0.0,0.0,0.0,0.0,0.0,0.0,0.0,0.0,0.0,0.0,0.0,0.0,0.0,0.0,0.0,0.0,0.0,0.0,0.0,0.0,0.0,0.0,0.0,0.0,0.0,0.0,0.0,0.0,0.0,0.0,0.0,0.0,0.0,0.0,0.0,0.0,0.0,0.0,0.0,0.0,0.0,0.0,0.0,0.0,0.0,0.0,0.0,0.0,0.0,0.0,0.0,0.0,0.0,0.0,0.0,0.0,0.0,0.0,0.0,0.0,0.0,0.0,0.0,0.0,0.0,0.0,0.0,0.0,0.0,0.0,0.0,0.0,0.0,0.0,0.0,0.0,0.0,0.0,0.0,0.0,0.0,0.0,0.0,0.0,0.0,0.0,0.0,0.0,0.0,0.0,0.0,0.0,0.0,0.0,0.0,0.0,0.0,0.0,0.0,0.0,0.0,0.0,0.0,0.0,0.0,0.0,0.0,0.0,0.0,0.0,0.0,0.0,0.0,0.0,0.0,0.0,0.0,0.0,0.0,0.0,0.0,0.0,0.0,0.0,0.0,0.0,0.0,0.0,0.0,0.0,0.0,0.0,0.0,0.0,0.0,0.0,0.0,0.0,0.0,0.0,0.0,0.0,0.0,0.0,0.0,0.0,0.0,0.0,0.0,0.0,0.0,0.0,0.0,0.0,0.0,0.0,0.0,0.0,0.0,0.0,0.0,0.0,0.0,0.0,0.0,0.0,0.0,0.0,0.0,0.0,0.0,0.0,0.0,0.0,0.0,0.0,0.0,0.0,0.0,0.0,0.0,0.0,0.0,0.0,0.0,0.0,0.0,0.0,0.0,0.0,0.0,0.0,0.0,0.0,0.0,0.0,0.0,0.0,0.0,0.0,0.0,0.0,0.0,0.0,0.0,0.0,0.0,0.0,0.0,0.0,0.0,0.0,0.0,0.0,0.0,0.0,0.0,0.0,0.0,0.0,0.0,0.0,0.0,0.0,0.0,0.0,0.0,0.0,0.0,0.0,0.0,0.0,0.0,0.0,0.0,0.0,0.0,0.0,0.0,0.0,0.0,0.0,0.0,0.0,0.0,0.0,0.0,0.0,0.0,0.0,0.0,0.0,0.0,0.0,0.0,0.0,0.0,0.0,0.0,0.0,0.0,0.0,0.0,0.0,0.0,0.0,0.0,0.0,0.0,0.0,0.0,0.0,0.0,0.0,0.0,0.0,0.0,0.0,0.0,0.0,0.0,0.0,0.0,0.0,0.0,0.0,0.0,0.0,0.0,0.0,0.0,0.0,0.0,0.0,0.0,0.0,0.0,0.0,0.0,0.0,0.0,0.0,0.0,0.0,0.0,0.0,0.0,0.0,0.0,0.0,0.0,0.0,0.0,0.0,0.0,0.0,0.0,0.0,0.0,0.0,0.0,0.0,0.0,0.0,0.0,0.0,0.0,0.0,0.0,0.0,0.0,0.0,0.0,0.0,0.0,0.0,0.0,0.0,0.0,0.0,0.0,0.0,0.0,0.0,0.0,0.0,0.0,0.0,0.0,0.0,0.0,0.0,0.0,0.0,0.0,0.0,0.0,0.0,0.0,0.0,0.0,0.0,0.0,0.0,0.0,0.0,0.0,0.0,0.0,0.0,0.0,0.0,0.0,0.0,0.0,0.0,0.0,0.0,0.0,0.0,0.0,0.0,0.0,0.0,0.0,0.0,0.0,0.0,0.0,0.0,0.0,0.0,0.0,0.0,0.0,0.0,0.0,0.0,0.0,0.0,0.0,0.0,0.0,0.0,0.0,0.0,0.0,0.0,0.0,0.0,0.0,0.0,0.0,0.0,0.0,0.0,0.0,0.0,0.0,0.0,0.0,0.0,0.0,0.0,0.0,0.0,0.0,0.0,0.0,0.0,0.0,0.0,0.0,0.0,0.0,0.0,0.0,0.0,0.0,0.0,0.0,0.0,0.0,0.0,0.0,0.0,0.0,0.0,0.0,0.0,0.0,0.0,0.0,0.0,0.0,0.0,0.0,0.0,0.0,0.0,0.0,0.0,0.0,0.0,0.0,0.0,0.0,0.0,0.0,0.0,0.0,0.0,0.0,0.0,0.0,0.0,0.0,0.0,0.0,0.0,0.0,0.0,0.0,0.0,0.0,0.0,0.0,0.0,0.0,0.0,0.0,0.0,0.0,0.0,0.0,0.0,0.0,0.0,0.0,0.0,0.0,0.0,0.0,0.0,0.0,0.0,0.0,0.0,0.0,0.0,0.0,0.0,0.0,0.0,0.0,0.0,0.0,0.0,0.0,0.0,0.0,0.0,0.0,0.0,0.0,0.0,0.0,0.0,0.0,0.0,0.0,0.0,0.0,0.0,0.0,0.0,0.0,0.0,0.0,0.0,0.0,0.0,0.0,0.0,0.0,0.0,0.0,0.0,0.0,0.0,0.0,0.0,0.0,0.0,0.0,0.0,0.0,0.0,0.0,0.0,0.0,0.0,0.0,0.0,0.0,0.0,0.0,0.0,0.0,0.0,0.0,0.0,0.0,0.0,0.0,0.0,0.0,0.0,0.0,0.0,0.0,0.0,0.0,0.0,0.0,0.0,0.0,0.0,0.0,0.0,0.0,0.0,0.0,0.0,0.0,0.0,0.0,0.0,0.0,0.0,0.0,0.0,0.0,0.0,0.0,0.0,0.0,0.0,0.0,0.0,0.0,0.0,0.0,0.0,0.0,0.0,0.0,0.0,0.0,0.0,0.0,0.0,0.0,0.0,0.0,0.0,0.0,0.0,0.0,0.0,0.0,0.0,0.0,0.0,0.0,0.0,0.0,0.0,0.0,0.0,0.0,0.0,0.0,0.0,0.0,0.0,0.0,0.0,0.0,0.0,0.0,0.0,0.0,0.0,0.0,0.0,0.0,0.0,0.0,0.0,0.0,0.0,0.0,0.0,0.0,0.0,0.0,0.0,0.0,0.0,0.0,0.0,0.0,0.0,0.0,0.0,0.0,0.0,0.0,0.0,0.0,0.0,0.0,0.0,0.0,0.0,0.0,0.0,0.0,0.0,0.0,0.0,0.0,0.0,0.0,0.0,0.0,0.0,0.0,0.0,0.0,0.0,0.0,0.0,0.0,0.0,0.0,0.0,0.0,0.0,0.0,0.0,0.0,0.0,0.0,0.0,0.0,0.0,0.0,0.0,0.0,0.0,0.0,0.0,0.0,0.0,0.0,0.0,0.0,0.0,0.0,0.0,0.0,0.0,0.0,0.0,0.0,0.0,0.0,0.0,0.0,0.0,0.0,0.0,0.0,0.0,0.0,0.0,0.0,0.0,0.0,0.0,0.0,0.0,0.0,0.0,0.0,0.0,0.0,0.0,0.0,0.0,0.0,0.0,0.0,0.0,0.0,0.0,0.0,0.0,0.0,0.0,0.0,0.0,0.0,0.0,0.0,0.0,0.0,0.0,0.0,0.0,0.0,0.0,0.0,0.0,0.0,0.0,0.0,0.0,0.0,0.0,0.0,0.0,0.0,0.0,0.0,0.0,0.0,0.0,0.0,0.0,0.0,0.0,0.0,0.0,0.0,0.0,0.0,0.0,0.0,0.0,0.0,0.0,0.0,0.0,0.0,0.0,0.0,0.0,0.0,0.0,0.0,0.0,0.0,0.0,0.0,0.0,0.0,0.0,0.0,0.0,0.0,0.0,0.0,0.0,0.0,0.0,0.0,0.0,0.0,0.0,0.0,0.0,0.0,0.0,0.0,0.0,0.0,0.0,0.0,0.0,0.0,0.0,0.0,0.0,0.0,0.0,0.0,0.0,0.0,0.0,0.0,0.0,0.0,0.0,0.0,0.0,0.0,0.0,0.0,0.0,0.0,0.0,0.0,0.0,0.0,0.0,0.0,0.0,0.0,0.0,0.0,0.0,0.0,0.0,0.0,0.0,0.0,0.0,0.0,0.0,0.0,0.0,0.0,0.0,0.0,0.0,0.0,0.0,0.0,0.0,0.0,0.0,0.0,0.0,0.0,0.0,0.0,0.0,0.0,0.0,0.0,0.0,0.0,0.0,0.0,0.0,0.0,0.0,0.0,0.0,0.0,0.0,0.0,0.0,0.0,0.0,0.0,0.0,0.0,0.0,0.0,0.0,0.0,0.0,0.0,0.0,0.0,0.0,0.0,0.0,0.0,0.0,0.0,0.0,0.0,0.0,0.0,0.0,0.0,0.0,0.0,0.0,0.0,0.0,0.0,0.0,0.0,0.0,0.0,0.0,0.0,0.0,0.0,0.0,0.0,0.0,0.0,0.0,0.0,0.0,0.0,0.0,0.0,0.0,0.0,0.0,0.0,0.0,0.0,0.0,0.0,0.0,0.0,0.0,0.0,0.0,0.0,0.0,0.0,0.0,0.0,0.0,0.0,0.0,0.0,0.0,0.0,0.0,0.0,0.0,0.0,0.0,0.0,0.0,0.0,0.0,0.0,0.0,0.0,0.0,0.0,0.0,0.0,0.0,0.0,0.0,0.0,0.0,0.0,0.0,0.0,0.0,0.0,0.0,0.0,0.0,0.0,0.0,0.0,0.0,0.0,0.0,0.0,0.0,0.0,0.0,0.0,0.0,0.0,0.0,0.0,0.0,0.0,0.0,0.0,0.0,0.0,0.0,0.0,0.0,0.0,0.0,0.0,0.0,0.0,0.0,0.0,0.0,0.0,0.0,0.0,0.0,0.0,0.0,0.0,0.0,0.0,0.0,0.0,0.0,0.0,0.0,0.0,0.0,0.0,0.0,0.0,0.0,0.0,0.0,0.0,0.0,0.0,0.0,0.0,0.0,0.0,0.0,0.0,0.0,0.0,0.0,0.0,0.0,0.0,0.0,0.0,0.0,0.0,0.0,0.0,0.0,0.0,0.0,0.0,0.0,0.0,0.0,0.0,0.0,0.0,0.0,0.0,0.0,0.0,0.0,0.0,0.0,0.0,0.0,0.0,0.0,0.0,0.0,0.0,0.0,0.0,0.0,0.0,0.0,0.0,0.0,0.0,0.0,0.0,0.0,0.0,0.0,0.0,0.0,0.0,0.0,0.0,0.0,0.0,0.0,0.0,0.0,0.0,0.0,0.0,0.0,0.0,0.0,0.0,0.0,0.0,0.0,0.0,0.0,0.0,0.0,0.0,0.0,0.0,0.0,0.0,0.0,0.0,0.0,0.0,0.0,0.0,0.0,0.0,0.0,0.0,0.0,0.0,0.0,0.0,0.0,0.0,0.0,0.0,0.0,0.0,0.0,0.0,0.0,0.0,0.0,0.0,0.0,0.0,0.0,0.0,0.0,0.0,0.0,0.0,0.0,0.0,0.0,0.0,0.0,0.0,0.0,0.0,0.0,0.0,0.0,0.0,0.0,0.0,0.0,0.0,0.0,0.0,0.0,0.0,0.0,0.0,0.0,0.0,0.0,0.0,0.0,0.0,0.0,0.0,0.0,0.0,0.0,0.0,0.0,0.0,0.0,0.0,0.0,0.0,0.0,0.0,0.0,0.0,0.0,0.0,0.0,0.0,0.0,0.0,0.0,0.0,0.0,0.0,0.0,0.0,0.0,0.0,0.0,0.0,0.0,0.0,0.0,0.0,0.0,0.0,0.0,0.0,0.0,0.0,0.0,0.0,0.0,0.0,0.0,0.0,0.0,0.0,0.0,0.0,0.0,0.0,0.0,0.0,0.0,0.0,0.0,0.0,0.0,0.0,0.0,0.0,0.0,0.0,0.0,0.0,0.0,0.0,0.0,0.0,0.0,0.0,0.0,0.0,0.0,0.0,0.0,0.0,0.0,0.0,0.0,0.0,0.0,0.0,0.0,0.0,0.0,0.0,0.0,0.0,0.0,0.0,0.0,0.0,0.0,0.0,0.0,0.0,0.0,0.0,0.0,0.0,0.0,0.0,0.0,0.0,0.0,0.0,0.0,0.0,0.0,0.0,0.0,0.0,0.0,0.0,0.0,0.0,0.0,0.0,0.0,0.0,0.0,0.0,0.0,0.0,0.0,0.0,0.0,0.0,0.0,0.0,0.0,0.0,0.0,0.0,0.0,0.0,0.0,0.0,0.0,0.0,0.0,0.0,0.0,0.0,0.0,0.0,0.0,0.0,0.0,0.0,0.0,0.0,0.0,0.0,0.0,0.0,0.0,0.0,0.0,0.0,0.0,0.0,0.0,0.0,0.0,0.0,0.0,0.0,0.0,0.0,0.0,0.0,0.0,0.0,0.0,0.0,0.0,0.0,0.0,0.0,0.0,0.0,0.0,0.0,0.0,0.0,0.0,0.0,0.0,0.0,0.0,0.0,0.0,0.0,0.0,0.0,0.0,0.0,0.0,0.0,0.0,0.0,0.0,0.0,0.0,0.0,0.0,0.0,0.0,0.0,0.0,0.0,0.0,0.0,0.0,0.0,0.0,0.0,0.0,0.0,0.0,0.0,0.0,0.0,0.0,0.0,0.0,0.0,0.0,0.0,0.0,0.0,0.0,0.0,0.0,0.0,0.0,0.0,0.0,0.0,0.0,0.0,0.0,0.0,0.0,0.0,0.0,0.0,0.0,0.0,0.0,0.0,0.0,0.0,0.0,0.0,0.0,0.0,0.0,0.0,0.0,0.0,0.0,0.0,0.0,0.0,0.0,0.0,0.0,0.0,0.0,0.0,0.0,0.0,0.0,0.0,0.0,0.0,0.0,0.0,0.0,0.0,0.0,0.0,0.0,0.0,0.0,0.0,0.0,0.0,0.0,0.0,0.0,0.0,0.0,0.0,0.0,0.0,0.0,0.0,0.0,0.0,0.0,0.0,0.0,0.0,0.0,0.0,0.0,0.0,0.0,0.0,0.0,0.0,0.0,0.0,0.0,0.0,0.0,0.0,0.0,0.0,0.0,0.0,0.0,0.0,0.0,0.0,0.0,0.0,0.0,0.0,0.0,0.0,0.0,0.0,0.0,0.0,0.0,0.0,0.0,0.0,0.0,0.0,0.0,0.0,0.0,0.0,0.0,0.0,0.0,0.0,0.0,0.0,0.0,0.0,0.0,0.0,0.0,0.0,0.0,0.0,0.0,0.0,0.0,0.0,0.0,0.0,0.0,0.0,0.0,0.0,0.0,0.0,0.0,0.0,0.0,0.0,0.0,0.0,0.0,0.0,0.0,0.0,0.0,0.0,0.0,0.0,0.0,0.0,0.0,0.0,0.0,0.0,0.0,0.0,0.0,0.0,0.0,0.0,0.0,0.0,0.0,0.0,0.0,0.0,0.0,0.0,0.0,0.0,0.0,0.0,0.0,0.0,0.0,0.0,0.0,0.0,0.0,0.0,0.0,0.0,0.0,0.0,0.0,0.0,0.0,0.0,0.0,0.0,0.0,0.0,0.0,0.0,0.0,0.0,0.0,0.0,0.0,0.0,0.0,0.0,0.0,0.0,0.0,0.0,0.0,0.0,0.0,0.0,0.0,0.0,0.0,0.0,0.0,0.0,0.0,0.0,0.0,0.0,0.0,0.0,0.0,0.0,0.0,0.0,0.0,0.0,0.0,0.0,0.0,0.0,0.0,0.0,0.0,0.0,0.0,0.0,0.0,0.0,0.0,0.0,0.0,0.0,0.0,0.0,0.0,0.0,0.0,0.0,0.0,0.0,0.0,0.0,0.0,0.0,0.0,0.0,0.0,0.0,0.0,0.0,0.0,0.0,0.0,0.0,0.0,0.0,0.0,0.0,0.0,0.0,0.0,0.0,0.0,0.0,0.0,0.0,0.0,0.0,0.0,0.0,0.0,0.0,0.0,0.0,0.0,0.0,0.0,0.0,0.0,0.0,0.0,0.0,0.0,0.0,0.0,0.0,0.0,0.0,0.0,0.0,0.0,0.0,0.0,0.0,0.0,0.0,0.0,0.0,0.0,0.0,0.0,0.0,0.0,0.0,0.0,0.0,0.0,0.0,0.0,0.0,0.0,0.0,0.0,0.0,0.0,0.0,0.0,0.0,0.0,0.0,0.0,0.0,0.0,0.0,0.0,0.0,0.0,0.0,0.0,0.0,0.0,0.0,0.0,0.0,0.0,0.0,0.0,0.0,0.0,0.0,0.0,0.0,0.0,0.0,0.0,0.0,0.0,0.0,0.0,0.0,0.0,0.0,0.0,0.0,0.0,0.0,0.0,0.0,0.0,0.0,0.0,0.0,0.0,0.0,0.0,0.0,0.0,0.0,0.0,0.0,0.0,0.0,0.0,0.0,0.0,0.0,0.0,0.0,0.0,0.0,0.0,0.0,0.0,0.0,0.0,0.0,0.0,0.0,0.0,0.0,0.0,0.0,0.0,0.0,0.0,0.0,0.0,0.0,0.0,0.0,0.0,0.0,0.0,0.0,0.0,0.0,0.0,0.0,0.0,0.0,0.0,0.0,0.0,0.0,0.0,0.0,0.0,0.0,0.0,0.0,0.0,0.0,0.0,0.0,0.0,0.0,0.0,0.0,0.0,0.0,0.0,0.0,0.0,0.0,0.0,0.0,0.0,0.0,0.0,0.0,0.0,0.0,0.0,0.0,0.0,0.0,0.0,0.0,0.0,0.0,0.0,0.0,0.0,0.0,0.0,0.0,0.0,0.0,0.0,0.0,0.0,0.0,0.0,0.0,0.0,0.0,0.0,0.0,0.0,0.0,0.0,0.0,0.0,0.0,0.0,0.0,0.0,0.0,0.0,0.0,0.0,0.0,0.0,0.0,0.0,0.0,0.0,0.0,0.0,0.0,0.0,0.0,0.0,0.0,0.0,0.0,0.0,0.0,0.0,0.0,0.0,0.0,0.0,0.0,0.0,0.0,0.0,0.0,0.0,0.0,0.0,0.0,0.0,0.0,0.0,0.0,0.0,0.0,0.0,0.0,0.0,0.0,0.0,0.0,0.0,0.0,0.0,0.0,0.0,0.0,0.0,0.0,0.0,0.0,0.0,0.0,0.0,0.0,0.0,0.0,0.0,0.0,0.0,0.0,0.0,0.0,0.0,0.0,0.0,0.0,0.0,0.0,0.0,0.0,0.0,0.0,0.0,0.0,0.0,0.0,0.0,0.0,0.0,0.0,0.0,0.0,0.0,0.0,0.0,0.0,0.0,0.0,0.0,0.0,0.0,0.0,0.0,0.0,0.0,0.0,0.0,0.0,0.0,0.0,0.0,0.0,0.0,0.0,0.0,0.0,0.0,0.0,0.0,0.0,0.0,0.0,0.0,0.0,0.0,0.0,0.0,0.0,0.0,0.0,0.0,0.0,0.0,0.0,0.0,0.0,0.0,0.0,0.0,0.0,0.0,0.0,0.0,0.0,0.0,0.0,0.0,0.0,0.0,0.0,0.0,0.0,0.0,0.0,0.0,0.0,0.0,0.0,0.0,0.0,0.0,0.0,0.0,0.0,0.0,0.0,0.0,0.0,0.0,0.0,0.0,0.0,0.0,0.0,0.0,0.0,0.0,0.0,0.0,0.0,0.0,0.0,0.0,0.0,0.0,0.0,0.0,0.0,0.0,0.0,0.0,0.0,0.0,0.0,0.0,0.0,0.0,0.0,0.0,0.0,0.0,0.0,0.0,0.0,0.0,0.0,0.0,0.0,0.0,0.0,0.0,0.0,0.0,0.0,0.0,0.0,0.0,0.0,0.0,0.0,0.0,0.0,0.0,0.0,0.0,0.0,0.0,0.0,0.0,0.0,0.0,0.0,0.0,0.0,0.0,0.0,0.0,0.0,0.0,0.0,0.0,0.0,0.0,0.0,0.0,0.0,0.0,0.0,0.0,0.0,0.0,0.0,0.0,0.0,0.0,0.0,0.0,0.0,0.0,0.0,0.0,0.0,0.0,0.0,0.0,0.0,0.0,0.0,0.0,0.0,0.0,0.0,0.0,0.0,0.0,0.0,0.0,0.0,0.0,0.0,0.0,0.0,0.0,0.0,0.0,0.0,0.0,0.0,0.0,0.0,0.0,0.0,0.0,0.0,0.0,0.0,0.0,0.0,0.0,0.0,0.0,0.0,0.0,0.0,0.0,0.0,0.0,0.0,0.0,0.0,0.0,0.0,0.0,0.0,0.0,0.0,0.0,0.0,0.0,0.0,0.0,0.0,0.0,0.0,0.0,0.0,0.0,0.0,0.0,0.0,0.0,0.0,0.0,0.0,0.0,0.0,0.0,0.0,0.0,0.0,0.0,0.0,0.7008,1.0644,1.0436,0.3395,0.3817,1.064,1.0627,1.0627,1.0212,0.318,0.0,0.0,0.0,0.0,0.0,0.0,0.0,0.0,0.0,0.0,0.0,0.0,0.0,0.0,0.0,0.0,0.0,0.0,0.0,0.0,0.0,0.0,0.0,0.0,0.0,0.0,0.0,0.0,0.0,0.0,0.0,0.0,0.0,0.0,0.0,0.0,0.0,0.0,0.0,0.0,0.0,0.0,0.0,0.0,0.0,0.0,0.0,0.0,0.0,0.0,0.0,0.0,0.0,0.0,0.0,0.0,0.0,0.0,0.0,0.0,0.0,0.0,0.0,0.0,0.0,0.0,0.0,0.0,0.0,0.0,0.0,0.0,0.0,0.0,0.0,0.0,0.0,0.0,0.0,0.0,0.0,0.0,0.0,0.0,0.0,0.0,0.0,0.0,0.0,0.0,0.0,0.0,0.0,0.0,0.0,0.0,0.0,0.0,0.0,0.0,0.0,0.0,0.0,0.3399,0.5305,0.529,1.318,1.7073,1.6848,0.9104,0.9534,1.708,1.7066,1.7066,1.6644,0.8689,0.5292,0.5296,0.5307,0.3184,0.0,0.0,0.0,0.0,0.0,0.0,0.0,0.0,0.0,0.0,0.0,0.0,0.0,0.0,0.0,0.0,0.0,0.0,0.0,0.0,0.0,0.0,0.0,0.0,0.0,0.0,0.0,0.0,0.0,0.0,0.0,0.0,0.0,0.0,0.0,0.0,0.0,0.0,0.0,0.0,0.0,0.0,0.0,0.0,0.0,0.0,0.0,0.0,0.0,0.0,0.0,0.0,0.0,0.0,0.0,0.0,0.0,0.0,0.0,0.0,0.0,0.0,0.0,0.0,0.0,0.0,0.0,0.0,0.0,0.0,0.0,0.0,0.0,0.0,0.0,0.0,0.0,0.0,0.0,0.0,0.0,0.0,0.0,0.0,0.0,0.0,0.0,0.0,0.0,0.0,0.0,0.0,0.0,0.0,0.0,0.0,0.0,0.0,0.0,1.1068,1.708,1.7032,1.7032,1.7012,1.6978,1.6978,1.6998,1.7032,1.6998,1.6998,1.7032,1.7032,1.706,1.71,1.71,1.0407,0.0212,0.0212,0.0212,0.0212,0.0212,0.0212,0.0212,0.0,0.0,0.0,0.0,0.0,0.0,0.0,0.0,0.0,0.0,0.0,0.0,0.0,0.0,0.0,0.0,0.0,0.0,0.0,0.0,0.0,0.0,0.0,0.0,0.0,0.0,0.0,0.0,0.0,0.0,0.0,0.0,0.0,0.0,0.0,0.0,0.0,0.0,0.0,0.0,0.0,0.0,0.0,0.0,0.0,0.0,0.0,0.0,0.0,0.0,0.0,0.0,0.0,0.0,0.0,0.0,0.0,0.0,0.0,0.0,0.0,0.0,0.0,0.0,0.0,0.0,0.0,0.0,0.0,0.0,0.0,0.0,0.0,0.0,0.0,0.0,0.0,0.0,0.0,0.0,0.0,0.0,0.0,0.0,0.0,0.0,0.0,0.0,0.0,0.0,0.0,0.0,1.5157,1.7066,1.6998,1.6998,1.6992,1.6978,1.6978,1.6985,1.6998,1.6985,1.6985,1.6998,1.6998,1.7005,1.7019,1.7039,1.4903,1.1911,1.1911,1.1911,1.1911,1.1911,1.1911,1.1911,0.0,0.0,0.0,0.0,0.0,0.0,0.0,0.0,0.0,0.0,0.0,0.0,0.0,0.0,0.0,0.0,0.0,0.0,0.0,0.0,0.0,0.0,0.0,0.0,0.0,0.0,0.0,0.0,0.0,0.0,0.0,0.0,0.0,0.0,0.0,0.0,0.0,0.0,0.0,0.0,0.0,0.0,0.0,0.0,0.0,0.0,0.0,0.0,0.0,0.0,0.0,0.0,0.0,0.0,0.0,0.0,0.0,0.0,0.0,0.0,0.0,0.0,0.0,0.0,0.0,0.0,0.0,0.0,0.0,0.0,0.0,0.0,0.0,0.0,0.0,0.0,0.0,0.0,0.0,0.0,0.0,0.0,0.0,0.0,0.0,0.0,0.0,0.0,0.0,0.0,0.0,0.0,1.471,1.706,1.6978,1.6992,1.6992,1.6978,1.6978,1.6978,1.6978,1.6978,1.6978,1.6978,1.6978,1.6978,1.6985,1.7005,1.7026,1.7053,1.7053,1.7053,1.7053,1.7053,1.7053,1.7053,0.0,0.0,0.0,0.0,0.0,0.0,0.0,0.0,0.0,0.0,0.0,0.0,0.0,0.0,0.0,0.0,0.0,0.0,0.0,0.0,0.0,0.0,0.0,0.0,0.0,0.0,0.0,0.0,0.0,0.0,0.0,0.0,0.0,0.0,0.0,0.0,0.0,0.0,0.0,0.0,0.0,0.0,0.0,0.0,0.0,0.0,0.0,0.0,0.0,0.0,0.0,0.0,0.0,0.0,0.0,0.0,0.0,0.0,0.0,0.0,0.0,0.0,0.0,0.0,0.0,0.0,0.0,0.0,0.0,0.0,0.0,0.0,0.0,0.0,0.0,0.0,0.0,0.0,0.0,0.0,0.0,0.0,0.0,0.0,0.0,0.0,0.0,0.0,0.0,0.0,0.0,0.0,1.1051,1.6413,1.5469,1.6578,1.7012,0.0,1.6978,1.6978,1.6978,1.6978,1.6978,1.6978,1.6978,1.6978,1.6978,1.6978,1.6978,1.6978,1.6978,1.6978,1.6978,1.6978,1.6978,1.6978,0.0,0.0,0.0,0.0,0.0,0.0,0.0,0.0,0.0,0.0,0.0,0.0,0.0,0.0,0.0,0.0,0.0,0.0,0.0,0.0,0.0,0.0,0.0,0.0,0.0,0.0,0.0,0.0,0.0,0.0,0.0,0.0,0.0,0.0,0.0,0.0,0.0,0.0,0.0,0.0,0.0,0.0,0.0,0.0,0.0,0.0,0.0,0.0,0.0,0.0,0.0,0.0,0.0,0.0,0.0,0.0,0.0,0.0,0.0,0.0,0.0,0.0,0.0,0.0,0.0,0.0,0.0,0.0,0.0,0.0,0.0,0.0,0.0,0.0,0.0,0.0,0.0,0.0,0.0,0.0,0.0,0.0,0.0,0.0,0.0,0.0,0.0,0.0,0.0,0.0,0.0,0.0,1.1028,1.2711,0.3783,1.247,1.6985,0.0,1.6978,1.6978,1.6978,1.6978,1.6978,1.6978,1.6978,1.6978,1.6978,1.6978,1.6978,1.6978,1.6978,1.6978,1.6978,1.6978,1.6978,1.6978,0.0,0.0,0.0,0.0,0.0,0.0,0.0,0.0,0.0,0.0,0.0,0.0,0.0,0.0,0.0,0.0,0.0,0.0,0.0,0.0,0.0,0.0,0.0,0.0,0.0,0.0,0.0,0.0,0.0,0.0,0.0,0.0,0.0,0.0,0.0,0.0,0.0,0.0,0.0,0.0,0.0,0.0,0.0,0.0,0.0,0.0,0.0,0.0,0.0,0.0,0.0,0.0,0.0,0.0,0.0,0.0,0.0,0.0,0.0,0.0,0.0,0.0,0.0,0.0,0.0,0.0,0.0,0.0,0.0,0.0,0.0,0.0,0.0,0.0,0.0,0.0,0.0,0.0,0.0,0.0,0.0,0.0,0.0,0.0,0.0,0.0,0.0,0.0,0.0,0.0,0.2546,0.8045,1.3819,1.4224,0.8213,1.3979,1.6998,1.6978,1.6978,1.6978,1.6978,1.6978,1.6978,1.6978,1.6978,1.6978,1.6978,1.6978,1.6978,1.6978,1.6978,1.6978,1.6978,1.6978,1.6978,1.6978,0.0,0.0,0.0,0.0,0.0,0.0,0.0,0.0,0.0,0.0,0.0,0.0,0.0,0.0,0.0,0.0,0.0,0.0,0.0,0.0,0.0,0.0,0.0,0.0,0.0,0.0,0.0,0.0,0.0,0.0,0.0,0.0,0.0,0.0,0.0,0.0,0.0,0.0,0.0,0.0,0.0,0.0,0.0,0.0,0.0,0.0,0.0,0.0,0.0,0.0,0.0,0.0,0.0,0.0,0.0,0.0,0.0,0.0,0.0,0.0,0.0,0.0,0.0,0.0,0.0,0.0,0.0,0.0,0.0,0.0,0.0,0.0,0.0,0.0,0.0,0.0,0.0,0.0,0.0,0.0,0.0,0.0,0.0,0.0,0.0,0.0,0.0,0.0,0.0,0.1908,0.7214,1.6604,1.7066,1.7046,1.6978,1.7012,1.7005,1.6978,1.6978,1.6978,1.6978,1.6978,1.6978,1.6978,1.6978,1.6978,1.6978,1.6978,1.6978,1.6978,1.6978,1.6978,1.6978,1.6978,1.6978,1.6978,0.0,0.0,0.0,0.0,0.0,0.0,0.0,0.0,0.0,0.0,0.0,0.0,0.0,0.0,0.0,0.0,0.0,0.0,0.0,0.0,0.0,0.0,0.0,0.0,0.0,0.0,0.0,0.0,0.0,0.0,0.0,0.0,0.0,0.0,0.0,0.0,0.0,0.0,0.0,0.0,0.0,0.0,0.0,0.0,0.0,0.0,0.0,0.0,0.0,0.0,0.0,0.0,0.0,0.0,0.0,0.0,0.0,0.0,0.0,0.0,0.0,0.0,0.0,0.0,0.0,0.0,0.0,0.0,0.0,0.0,0.0,0.0,0.0,0.0,0.0,0.0,0.0,0.0,0.0,0.0,0.0,0.0,0.0,0.0,0.0,0.0,0.0,0.0,0.0423,0.9322,1.5524,1.7032,1.7012,1.6992,1.6978,1.6985,1.6985,1.6978,1.6978,1.6978,1.6978,1.6978,1.6978,1.6978,1.6978,1.6978,1.6978,1.6978,1.6978,1.6978,1.6978,1.6978,1.6978,1.6978,1.6978,1.6978,0.0,0.0,0.0,0.0,0.0,0.0,0.0,0.0,0.0,0.0,0.0,0.0,0.0,0.0,0.0,0.0,0.0,0.0,0.0,0.0,0.0,0.0,0.0,0.0,0.0,0.0,0.0,0.0,0.0,0.0,0.0,0.0,0.0,0.0,0.0,0.0,0.0,0.0,0.0,0.0,0.0,0.0,0.0,0.0,0.0,0.0,0.0,0.0,0.0,0.0,0.0,0.0,0.0,0.0,0.0,0.0,0.0,0.0,0.0,0.0,0.0,0.0,0.0,0.0,0.0,0.0,0.0,0.0,0.0,0.0,0.0,0.0,0.0,0.0,0.0,0.0,0.0,0.0,0.0,0.0,0.0,0.0,0.0,0.0,0.0,0.0,0.0,1.4715,0.9729,1.4224,1.7026,1.7005,1.6992,1.6978,1.6978,1.6978,1.6978,1.6978,1.6978,1.6978,1.6978,1.6978,1.6978,1.6978,1.6978,1.6978,1.6978,1.6978,1.6978,1.6978,1.6978,1.6978,1.6978,1.6978,1.6978,1.6978,0.0,0.0,0.0,0.0,0.0,0.0,0.0,0.0,0.0,0.0,0.0,0.0,0.0,0.0,0.0,0.0,0.0,0.0,0.0,0.0,0.0,0.0,0.0,0.0,0.0,0.0,0.0,0.0,0.0,0.0,0.0,0.0,0.0,0.0,0.0,0.0,0.0,0.0,0.0,0.0,0.0,0.0,0.0,0.0,0.0,0.0,0.0,0.0,0.0,0.0,0.0,0.0,0.0,0.0,0.0,0.0,0.0,0.0,0.0,0.0,0.0,0.0,0.0,0.0,0.0,0.0,0.0,0.0,0.0,0.0,0.0,0.0,0.0,0.0,0.0,0.0,0.0,0.0,0.0,0.0,0.0,0.0,0.0,0.0,0.0,0.0,0.0,1.7053,1.6985,1.7005,1.7005,1.6978,1.6978,1.6978,1.6978,1.6978,1.6978,1.6978,1.6978,1.6978,1.6978,1.6978,1.6978,1.6978,1.6978,1.6978,1.6978,1.6978,1.6978,1.6978,1.6978,1.6978,1.6978,1.6978,1.6978,1.6978,0.0,0.0,0.0,0.0,0.0,0.0,0.0,0.0,0.0,0.0,0.0,0.0,0.0,0.0,0.0,0.0,0.0,0.0,0.0,0.0,0.0,0.0,0.0,0.0,0.0,0.0,0.0,0.0,0.0,0.0,0.0,0.0,0.0,0.0,0.0,0.0,0.0,0.0,0.0,0.0,0.0,0.0,0.0,0.0,0.0,0.0,0.0,0.0,0.0,0.0,0.0,0.0,0.0,0.0,0.0,0.0,0.0,0.0,0.0,0.0,0.0,0.0,0.0,0.0,0.0,0.0,0.0,0.0,0.0,0.0,0.0,0.0,0.0,0.0,0.0,0.0,0.0,0.0,0.0,0.0,0.0,0.0,0.0,0.0,0.0,0.0,0.0,1.7019,1.6985,1.6985,1.6985,1.6978,1.6978,1.6978,1.6978,1.6978,1.6978,1.6978,1.6978,1.6978,1.6978,1.6978,1.6978,1.6978,1.6978,1.6978,1.6978,1.6978,1.6978,1.6978,1.6978,1.6978,1.6978,1.6978,1.6978,1.6978,0.0,0.0,0.0,0.0,0.0,0.0,0.0,0.0,0.0,0.0,0.0,0.0,0.0,0.0,0.0,0.0,0.0,0.0,0.0,0.0,0.0,0.0,0.0,0.0,0.0,0.0,0.0,0.0,0.0,0.0,0.0,0.0,0.0,0.0,0.0,0.0,0.0,0.0,0.0,0.0,0.0,0.0,0.0,0.0,0.0,0.0,0.0,0.0,0.0,0.0,0.0,0.0,0.0,0.0,0.0,0.0,0.0,0.0,0.0,0.0,0.0,0.0,0.0,0.0,0.0,0.0,0.0,0.0,0.0,0.0,0.0,0.0,0.0,0.0,0.0,0.0,0.0,0.0,0.0,0.0,0.0,0.0,0.0,0.0,0.0,0.0,0.0,0.0,1.6978,1.6978,1.6978,1.6978,1.6978,1.6978,1.6978,1.6978,1.6978,1.6978,1.6978,1.6978,1.6978,1.6978,1.6978,1.6978,1.6978,1.6978,1.6978,1.6978,1.6978,1.6978,1.6978,1.6978,1.6978,1.6978,1.6978,1.6965,0.0,0.0,0.0,0.0,0.0,0.0,0.0,0.0,0.0,0.0,0.0,0.0,0.0,0.0,0.0,0.0,0.0,0.0,0.0,0.0,0.0,0.0,0.0,0.0,0.0,0.0,0.0,0.0,0.0,0.0,0.0,0.0,0.0,0.01,0.1913,0.1719,0.0,0.0,0.0,0.0,0.0,0.0,0.0,0.0,0.0,0.0,0.0,0.0,0.0,0.0,0.0,0.0,0.0,0.0,0.0,0.0,0.0,0.0,0.0,0.0,0.0,0.0,0.0,0.0,0.0,0.0,0.0,0.0,0.0,0.0,0.0,0.0,0.0,0.0,0.0,0.0,0.0,0.0,0.0,0.0,0.0,0.0,0.0,0.0,0.0,0.0,0.0,0.0,1.6978,1.6978,1.6978,1.6978,1.6978,1.6978,1.6978,1.6978,1.6978,1.6978,1.6978,1.6978,1.6978,1.6978,1.6978,1.6978,1.6978,1.6978,1.6978,1.6978,1.6978,1.6978,1.6978,1.6978,1.6971,1.6924,1.6904,1.7092,0.0,0.0,0.0,0.0,0.0,0.0,0.0213,0.0212,0.0212,0.0212,0.0,0.0,0.0,0.0,0.0,0.0206,0.0203,0.02,0.02,0.02,0.02,0.02,0.02,0.0201,0.0201,0.0102,0.0,0.0,0.0,0.0102,0.0201,0.0201,0.02,0.0501,0.5636,0.509,0.0207,0.0106,0.0,0.0,0.0,0.0,0.0,0.0,0.0,0.0,0.0,0.0,0.0,0.0,0.0,0.0,0.0,0.0,0.0,0.0,0.0,0.0,0.0,0.0,0.0,0.0,0.0,0.0,0.0,0.0,0.0,0.0,0.0,0.0,0.0,0.0,0.0,0.0,0.0,0.0,0.0,0.0,0.0,0.0,0.0,0.0,0.0,0.0,0.0,0.0,0.0,1.6978,1.6978,1.6978,1.6978,1.6978,1.6978,1.6978,1.6978,1.6978,1.6978,1.6978,1.6978,1.6978,1.6978,1.6978,1.6978,1.6978,1.6978,1.6978,1.6978,1.6978,1.6978,1.6978,1.6978,1.6978,1.6958,1.7016,1.6962,1.6934,0.0,0.0,0.0,0.0,0.0,0.6418,0.6418,0.6453,0.6398,0.0,0.0,0.0,0.6384,0.6384,0.6233,0.5808,0.577,0.5819,0.5741,0.5737,0.5737,0.5737,0.5737,0.5741,0.5746,0.2017,0.0,0.0,0.0,0.2017,0.5746,0.5741,0.5837,0.5832,0.7366,0.7196,0.5497,0.1696,0.0,0.0,0.0,0.0,0.0,0.0,0.0,0.0,0.0,0.0,0.0,0.0,0.0,0.0,0.0,0.0,0.0,0.0,0.0,0.0,0.0,0.0,0.0,0.0,0.0,0.0,0.0,0.0,0.0,0.0,0.0,0.0,0.0,0.0,0.0,0.0,0.0,0.0,0.0,0.0,0.0,0.0,0.0,0.0,0.0,0.0,0.0,0.0,1.6978,1.6978,1.6978,1.6978,1.6978,1.6978,1.6978,1.6978,1.6978,1.6978,1.6978,1.6978,1.6978,1.6978,1.6978,1.6978,1.6978,1.6978,1.6978,1.6978,1.6978,1.6978,1.6978,1.6978,1.6978,1.6917,1.7023,1.6982,1.668,1.6353,0.0,0.0,0.0781,0.324,0.6537,0.8851,0.8851,0.8937,0.8917,0.0,0.0,0.0,0.892,0.8865,0.8762,0.8387,0.8105,0.8033,0.8051,0.7991,0.7958,0.7958,0.8006,0.7972,0.7985,0.496,0.3335,0.331,0.3335,0.496,0.7985,0.7972,0.7972,0.7972,0.7979,0.7948,0.7806,0.4614,0.2024,0.0,0.0,0.0,0.0452,0.4657,0.6573,0.0,0.0,0.0,0.6736,0.6484,0.5589,0.0,0.0,0.0,0.0,0.0,0.0,0.0,0.0,0.0,0.0,0.0,0.0,0.0,0.0,0.0,0.0,0.0,0.0,0.0,0.0,0.0,0.0,0.0,0.0,0.0,0.0,0.0,0.0,0.0,0.0,0.0,0.0,0.0,0.0,1.6985,1.6978,1.6978,1.6978,1.6978,1.6978,1.6978,1.6978,1.6978,1.6978,1.6978,1.6978,1.6978,1.6978,1.6978,1.6978,1.6978,1.6978,1.6978,1.6978,1.6978,1.6978,1.6917,1.6924,1.6971,1.691,1.7044,1.6948,1.6817,1.6306,1.6199,0.0,0.0,0.2686,0.8015,0.8911,0.897,0.8977,0.8948,0.8904,0.0,0.902,0.8974,0.8957,0.895,0.892,0.8865,0.8395,0.8085,0.8052,0.815,0.8084,0.7975,0.8046,0.7972,0.7992,0.8004,0.8004,0.7985,0.8004,0.7998,0.7972,0.8052,0.8052,0.7972,0.7992,0.7648,0.7068,0.71,0.4381,0.0,0.0,0.0532,0.0,0.0,1.5257,1.6058,1.6059,1.6055,1.5913,1.5395,1.3204,0.0,0.0,0.0965,0.0,0.0,0.0,0.0,0.0,0.0,0.0,0.0,0.0,0.0,0.0,0.0592,0.1261,0.0,0.0,0.0,0.0,0.0,0.0,0.0,0.0,0.0,0.0,0.0,0.0,0.0,0.0,0.0,0.0,1.6931,1.6937,1.6958,1.6971,1.6978,1.6978,1.6978,1.6978,1.6978,1.6978,1.6978,1.6978,1.6978,1.6978,1.6978,1.6978,1.6978,1.6978,1.6978,1.6978,1.6978,1.6978,1.6971,1.6944,1.7023,1.7044,1.6944,1.7003,1.6927,1.6879,1.6199,1.6091,1.6058,0.7969,0.7873,0.8142,0.8839,0.9103,0.9347,0.9585,0.9245,0.9026,0.962,0.962,0.9613,0.9578,0.9191,0.895,0.892,0.8756,0.8743,0.8716,0.8675,0.8549,0.8014,0.7988,0.8018,0.8018,0.8032,0.7979,0.8052,0.7979,0.7972,0.8045,0.8038,0.8038,0.7952,0.7978,0.5615,0.1592,0.1536,0.0959,0.0,0.0,0.3452,0.8856,1.0911,1.3186,1.5478,1.5932,1.6089,1.6064,1.541,1.3165,1.0814,0.0,0.0,0.0,0.0,0.0,0.0,0.0,0.0,0.0,0.0,0.0,0.0,0.0,0.4472,0.8805,0.0,1.3003,0.0,0.0,0.0,0.0,0.0,0.0,0.0,0.0,0.0,0.0,0.0,0.0,0.0,0.0,1.7037,1.7085,1.7003,1.691,1.6978,1.6978,1.6978,1.6978,1.6978,1.6978,1.6978,1.6978,1.6978,1.6978,1.6978,1.6978,1.6978,1.6978,1.6978,1.6978,1.6978,1.6978,1.691,1.701,1.6975,1.6982,1.6996,1.7051,1.6707,1.6185,1.6125,1.6031,1.6123,0.9738,0.9817,0.9666,0.9388,0.9449,0.9614,0.9738,0.9557,0.9479,0.9724,0.9842,0.9842,0.9842,0.9537,0.9319,0.9401,0.9084,0.8864,0.894,0.8907,0.871,0.8487,0.8492,0.8267,0.8053,0.8018,0.8052,0.8052,0.7972,0.8038,0.8038,0.8012,0.7951,0.7965,0.8014,0.6701,0.4266,0.1305,0.0,0.0,0.0,0.0,1.339,1.2981,1.4002,1.5653,1.6007,1.6186,1.5986,1.5709,1.3565,0.0,1.4363,1.1727,0.729,0.573,0.5344,0.4557,0.0929,0.0,0.0,0.0,0.0,0.0,0.0,0.2788,0.5514,0.5739,0.7033,0.7578,0.0,0.0,0.0,0.0,0.0,0.0,0.0,0.0,0.0,0.0,0.0,0.0,0.0,1.6612,1.6762,1.7051,1.6927,1.6996,1.7078,1.7078,1.6904,1.6978,1.6978,1.6978,1.6978,1.6978,1.6978,1.6978,1.6978,1.6978,1.6978,1.6978,1.6978,1.6978,1.6904,1.7037,1.6955,1.6598,1.653,1.6524,1.6449,1.6374,1.6091,1.6018,1.6144,1.6083,0.971,0.9816,0.9792,0.9821,0.9815,0.9772,0.9772,0.9895,0.9876,0.9781,0.9781,0.9834,0.985,0.9897,0.9909,0.9774,0.9294,0.9118,0.9065,0.9084,0.9042,0.887,0.8939,0.8666,0.8197,0.817,0.809,0.7955,0.8039,0.7979,0.7985,0.8004,0.8077,0.8123,0.819,0.8484,0.8571,0.3863,0.2409,0.3055,0.3113,0.8278,1.5918,1.5374,1.5483,1.6051,1.6237,1.6371,1.6261,1.6088,1.4567,1.2782,1.4006,1.4867,1.467,1.1599,1.0715,0.9466,0.3627,0.2013,0.1744,0.0402,0.0,0.0,0.0,0.0,0.0,0.0,0.0,0.0,0.0,0.0,0.0,0.0,0.0,0.0,0.0,0.0,0.0,0.0,0.0,0.0,0.0,1.6141,1.6299,1.6694,1.6749,1.6817,1.6913,1.6948,1.7023,1.6937,1.6965,1.6978,1.6978,1.6978,1.6978,1.6978,1.6978,1.6978,1.6978,1.6951,1.6937,1.6931,1.6989,1.6907,1.6859,1.6205,1.6085,1.6058,1.6058,1.6058,1.6045,1.6123,1.6083,1.6083,0.9801,0.9815,0.9751,0.9747,0.9788,0.9795,0.9795,1.0306,1.0461,0.9823,0.9836,0.9812,0.9865,1.034,1.0412,0.9826,0.971,0.9734,0.9724,0.9676,0.9415,0.8904,0.8863,0.8825,0.8797,0.8758,0.8501,0.7955,0.8037,0.8031,0.8031,0.8051,0.8336,0.88,0.8764,0.882,0.8871,0.8756,1.0868,1.4337,1.423,1.4778,0.0,1.5195,1.5608,1.6233,1.6722,1.6891,1.6779,0.0,1.5801,1.5248,0.0,1.3532,1.463,1.1651,1.075,1.0548,0.9709,0.9508,0.7937,0.1605,0.0,0.0,0.0,0.0,0.0,0.0,0.0,0.0,0.0,0.0,0.0,0.0,0.0,0.0,0.0,0.0,0.0,0.0,0.0,0.0,0.0,0.0,0.0,1.6138,1.6154,1.6247,1.6134,1.668,1.6975,1.6989,1.691,1.6978,1.6978,1.6978,1.6978,1.6978,1.6978,1.6978,1.6978,1.7051,1.6989,1.6982,1.7037,1.6687,1.6152,1.6118,1.6024,1.611,1.611,1.611,1.6103,1.609,1.6083,1.609,0.9751,0.9799,0.9754,0.9808,0.9822,0.9849,0.9944,1.0343,1.0601,1.0404,1.0283,1.0359,1.037,1.2074,1.246,1.0554,0.0,1.0264,0.0,0.0,0.9664,0.9454,0.9117,0.8942,0.8885,0.893,0.8783,0.8526,0.8216,0.7969,0.7969,0.8374,0.8608,0.8893,0.8908,0.9129,0.9564,1.154,1.38,1.6062,0.0,0.0,0.0,1.3833,1.4622,1.6715,1.6834,1.7094,1.6975,0.0,1.6572,0.0,0.0,1.3733,1.2836,1.1629,1.1288,1.1165,1.0779,1.0699,0.9924,0.6969,0.6249,0.6196,0.6234,0.0,0.0,0.0,0.0,0.0,0.0,0.0,0.0,0.0,0.0,0.0,0.0,0.0,0.0,0.0,0.0,0.0,0.0,0.0,0.0,0.0,0.0,1.6096,1.6008,1.6395,1.6659,1.6962,1.6904,1.6978,1.6978,1.6978,1.6978,1.6978,1.7106,1.7058,1.7058,1.6907,1.6831,1.64,1.6463,1.6374,1.6125,1.6038,1.6185,1.6151,1.6151,1.6137,1.6117,1.6144,1.6151,1.6151,0.9813,0.9754,0.9822,0.9822,0.9856,0.9951,1.0273,1.0397,1.0614,1.0663,1.067,1.0719,1.0685,1.3554,1.4215,1.0986,1.1434,1.1962,0.0,0.0,1.0967,1.015,1.0219,1.0002,0.9127,0.8998,0.8937,0.8886,0.8441,0.8255,0.8223,0.8703,0.8852,0.8923,0.9032,0.9902,1.1362,1.3807,1.5116,1.5752,1.4591,1.5032,1.5973,1.3026,1.3914,1.6824,1.6752,1.6653,1.6689,1.6653,1.6693,0.0,1.6494,1.4819,1.2688,1.1772,1.1591,1.1469,1.1066,1.1352,1.1998,1.1868,1.1308,0.0,0.0,0.0,0.0,0.0,0.0,0.0,0.0,0.0,0.0,0.0,0.0,0.9015,0.0,0.0,0.0,0.0,0.0,0.0,0.0,0.0,0.0,0.0,0.0,0.0,1.6096,1.6001,1.6388,1.7044,1.6989,1.7071,1.7071,1.7071,1.7071,1.7065,1.6955,1.69,1.6686,1.6756,1.6476,1.6055,1.6132,1.6091,1.5896,1.2912,1.3501,1.6004,1.6011,1.4343,1.1668,1.1683,1.1693,1.1693,0.9815,0.9815,0.9822,0.9822,0.9944,1.0266,1.0568,1.048,1.0404,1.0683,0.0,0.0,0.0,0.0,0.0,0.0,0.0,1.5027,1.512,0.0,1.3699,1.0874,1.294,1.2736,0.0,0.9258,0.8934,0.8933,0.8927,0.8852,0.8817,0.8859,0.8897,0.8931,0.9513,1.1747,1.5027,1.5822,1.5763,1.4986,1.2591,1.3768,1.6554,0.0,1.3994,1.6124,1.6108,0.0,0.0,1.6119,1.6106,0.0,0.0,0.0,0.0,0.0,0.0,1.1634,0.0,0.0,0.0,1.5114,0.0,0.0,0.0,0.0,1.0358,0.0,0.0,0.0,0.0,0.0,0.0,0.0,0.0266,0.0,0.0,0.0,0.0,0.0,0.0,0.0,0.0,0.0,0.0,0.0,0.0,0.0,1.596,1.6088,1.6475,1.694,1.7087,1.696,1.696,1.696,1.696,1.696,1.6953,1.6735,1.6108,1.6205,1.6158,1.6152,1.6051,1.6004,1.5383,0.4817,0.6628,1.6004,1.6038,0.9689,0.0603,0.0602,0.0602,0.0602,0.9992,1.0053,1.0093,0.9992,1.0012,1.0148,1.0446,1.0575,0.0,0.0,0.0,0.0,0.0,1.386,1.4616,0.0,0.0,1.5152,1.5174,1.5204,0.0,0.0,0.0,1.4635,0.0,1.0586,0.9538,0.9504,0.9064,0.8937,0.889,0.8937,0.9157,0.9463,0.9761,1.0652,1.24,1.4499,1.5403,1.5265,0.0,1.564,1.6286,0.0,0.0,1.5856,1.4684,1.5245,0.0,1.6612,1.6673,1.6612,1.6467,1.6342,1.5967,1.4835,1.4639,0.0,0.0,0.0,1.4834,1.3304,0.0,0.0,0.0,0.0,0.0,0.0,0.0,0.0,0.0832,0.0,0.1619,0.6363,0.7093,0.7892,0.0,0.0,0.0,0.0,0.0,0.0,0.0,0.0,0.0,0.0,0.0,0.0,0.0,1.541,1.6147,1.6495,1.6449,1.6312,1.6312,1.6346,1.6359,1.6359,1.6497,1.6252,1.6042,1.6112,1.214,0.5436,0.5425,0.5425,0.5229,0.1407,0.2213,0.5448,0.5452,0.3216,0.0,0.0,0.0,0.0,1.0148,1.0209,1.0236,1.0073,1.0134,1.0399,0.0,0.0,0.0,0.0,1.2532,0.0,1.2589,0.0,1.514,0.0,1.4454,1.5611,1.5462,1.5533,0.0,1.2656,1.4632,0.0,0.0,0.0,1.0073,0.9777,0.94,0.9096,0.8882,0.8935,0.9272,0.9822,0.9793,1.01,1.0827,1.3971,1.5388,1.5643,0.0,1.6495,0.0,0.0,1.5576,1.6349,0.0,1.566,1.7024,1.7037,1.6927,1.6948,1.6632,1.644,1.6391,1.6091,1.6031,1.6184,1.6112,1.576,0.0,1.3272,1.4048,0.0,1.1616,0.0,1.0995,0.0,0.0,0.0,0.4613,0.4303,0.608,1.004,1.0697,1.0611,0.0,1.0588,0.0,0.0,0.0,0.0,0.0,0.0,0.0,0.0,0.0,0.0,0.0,0.0,1.6011,1.6123,1.6085,1.6152,1.6152,1.6192,1.4136,1.041,1.0379,1.0362,1.0357,1.0305,0.6634,0.0,0.0,0.0,0.0,0.0,0.0,0.0,0.0,0.0,0.0,0.0,0.0,0.0,1.029,1.029,1.0249,1.0107,1.0351,0.0,0.0,0.0,1.2142,0.0,1.3967,1.5909,1.614,1.6061,1.6171,1.6147,1.6068,0.0,1.6035,1.6054,0.0,0.0,1.5533,1.5118,1.5211,0.0,0.0,0.9902,0.9875,0.9553,0.8929,0.894,0.9194,0.9836,0.9883,1.0092,1.0945,1.3833,1.5404,1.5879,1.5839,1.5989,1.5863,1.422,1.4943,1.6928,1.6968,1.6912,1.7042,1.7003,1.7099,1.6975,1.6975,1.7078,1.6953,1.6319,1.6108,1.6042,1.6178,1.6077,1.5891,1.5395,0.0,0.0,0.0,0.0,1.1679,0.0,0.0,0.0,0.0,0.0,1.2759,1.098,1.0652,1.0472,0.9933,0.0,0.0,0.0,0.0,0.0,0.0,0.0,0.0,0.0,0.0,0.0,0.0,0.0,1.6051,1.6196,1.6172,1.6056,1.6056,1.609,1.0609,0.0,0.0,0.0,0.0,0.0,0.0,0.0,0.0,0.0,0.0,0.0,0.0,0.0,0.0,0.0,0.0,0.0,0.0,0.0,1.046,1.0439,1.046,0.0,1.1165,1.1748,0.0,0.0,0.0,0.0,1.2599,1.335,1.5825,1.6031,1.6175,1.6098,1.6137,0.0,0.0,0.0,0.0,1.6022,1.5529,1.5167,1.5233,1.4878,0.0,1.0476,0.998,0.9781,0.958,0.952,0.9686,0.9836,1.0273,1.0505,1.0768,1.1485,1.2542,1.3346,1.3485,1.3696,0.0,0.0,1.6426,1.6911,1.7071,1.7058,1.6989,1.6931,1.6958,1.6924,1.6924,1.703,1.6907,1.69,1.6824,1.6721,1.6849,1.6426,1.6015,1.5974,1.5877,1.5745,0.0,0.0,0.0,0.0,0.0,0.0,0.0,0.0,0.0,1.0779,1.0644,1.0602,1.0439,0.0,0.0,0.0,0.0,0.0,0.0,0.0,0.0,0.0,0.0,0.0,0.0,0.0,0.0,1.6166,1.6138,1.6036,1.6064,1.6105,1.0755,0.0,0.0,0.0,0.0,0.0,0.0,0.0,0.0,0.0,0.0,0.0,0.0,0.0,0.0,0.0,0.0,0.0,0.0,0.0,1.0609,1.0595,1.0636,1.0792,0.0,0.0,1.2684,0.0,0.0,1.4414,1.3236,0.0,1.495,1.5988,1.6435,1.6517,1.6524,0.0,1.6406,0.0,0.0,1.6488,1.5944,1.5569,1.5666,1.5692,0.0,1.0732,1.031,1.0108,0.9794,0.9781,0.9814,0.9777,1.0397,1.0724,1.0658,1.092,1.2216,1.4177,1.4329,0.0,0.0,1.6508,1.7094,1.6939,1.7071,1.6978,1.6978,1.6978,1.6978,1.6978,1.6978,1.6924,1.7065,1.7065,1.7003,1.692,1.7064,1.6776,1.6469,1.6522,1.6362,1.6015,1.6053,1.5825,1.5615,0.0,0.0,0.0,0.0,0.0,0.0,0.0,0.0,0.0,0.0,0.0,0.0,0.0,0.0,0.0,0.0,0.0,0.0,0.0,0.0,0.0,0.0,0.0,0.0,1.6083,1.161,0.9114,0.9016,0.912,0.6061,0.0,0.0,0.0,0.0,0.0,0.0,0.0,0.0,0.0,0.0,0.0,0.0,0.0,0.0,0.0,0.0,0.0,0.0,0.0,1.0778,1.0778,1.0819,0.0,0.0,0.0,0.0,1.438,0.0,1.5574,0.0,1.3948,1.3921,1.5784,1.6981,1.7002,0.0,1.7064,1.6989,1.7078,1.6995,1.6974,1.6515,1.6144,1.6083,1.5547,0.0,0.0,0.0,1.041,0.9857,0.9836,0.9895,0.9921,1.0439,1.0738,1.0803,1.144,1.3392,1.6181,1.6819,1.6979,1.7034,1.6971,1.6946,1.6978,1.6978,1.6978,1.6978,1.6978,1.6978,1.6978,1.6978,1.6978,1.6978,1.6978,1.6978,1.6951,1.703,1.6996,1.6962,1.7016,1.6551,1.6299,1.6165,1.6232,1.6137,1.6117,1.5758,1.5279,0.0,0.0,0.0,0.0,0.0,0.0,0.0,0.0,0.0,0.0,0.0,0.0,0.0,0.0,0.0,0.0,0.0,0.0,0.0,0.0,0.0,1.5511,0.5396,0.0,0.0,0.0,0.0,0.0,0.0,0.0,0.0,0.0,0.0,0.0,0.0,0.0,0.0,0.0,0.0,0.0,0.0,0.0,0.0,0.0,0.0,0.0,1.1084,1.1084,1.109,1.1118,0.0,1.2996,1.4027,1.4319,1.4713,1.5533,1.4932,1.4391,1.4207,1.5929,1.6975,1.7099,1.6904,0.0,0.0,0.0,0.0,1.6934,1.6872,1.6666,1.609,1.6052,1.5395,0.0,0.0,1.0601,1.0548,1.0055,1.0075,1.0589,1.0616,1.0993,1.1511,1.2068,0.0,1.6096,1.6757,1.6974,1.7003,1.7023,1.7099,1.6978,1.6978,1.6978,1.6978,1.6978,1.6978,1.6978,1.6978,1.6978,1.6978,1.6978,1.6978,1.6978,1.6951,1.6944,1.6904,1.6962,1.692,1.6886,1.6939,1.6884,1.6625,1.6293,1.6022,1.5966,1.6036,0.0,0.0,0.0,0.0,0.0,0.0,0.0,0.0,0.0,0.0,0.0,0.0,0.0,0.0,0.0,0.0,0.0,0.0,0.0,0.0,0.0,0.4591,0.0,0.0,0.0,0.0,0.0,0.0,0.0,0.0,0.0,0.0,0.0,0.0,0.0,0.0,0.0,0.0,0.0,0.0,0.0,0.0,0.0,0.0,0.0,1.1165,1.1226,1.1307,1.1389,0.0,0.0,0.0,1.4991,0.0,1.6564,1.64,1.5988,1.5912,1.6538,1.6915,1.6982,1.6989,1.6989,1.6989,1.6989,1.6956,1.71,1.6951,0.0,1.6551,1.6293,1.6022,1.5599,0.0,1.0663,1.074,1.0404,1.037,1.0658,1.0651,1.107,1.1684,0.0,0.0,1.6615,1.6905,1.7058,1.6978,1.6978,1.6978,1.6978,1.6978,1.6978,1.6978,1.6978,1.6978,1.6978,1.6978,1.6978,1.6978,1.6978,1.6978,1.6978,1.6978,1.6978,1.6965,1.7099,1.7085,1.7065,1.6989,1.6913,1.6838,1.6558,1.6625,1.6557,1.6201,1.4853,0.0,0.0,0.0,0.0,0.0,0.0,0.0,0.0,0.0,0.0,0.0,0.0,0.0,0.0,0.0,0.0,0.0,0.0,0.0,0.0,0.0,0.0,0.0,0.0,0.0,0.0,0.0,0.0,0.0,0.0,0.0,0.0,0.0,0.0,0.0,0.0,0.0,0.0,0.0,0.0,0.0,0.0,0.0,0.0,1.1884,1.202,1.2142,1.2264,1.301,0.0,1.4964,1.5879,1.6748,1.7589,1.7589,1.7561,1.7465,1.7337,1.723,1.7203,1.7197,1.7197,1.7197,1.7197,1.7197,1.7197,1.7202,1.7046,1.6985,1.6517,1.6152,0.0,0.0,0.0,1.0677,1.0743,1.0652,1.0731,1.0878,0.0,0.0,0.0,1.694,1.6964,1.7064,1.6904,1.6978,1.6978,1.6978,1.6978,1.6978,1.6978,1.6978,1.6978,1.6978,1.6978,1.6978,1.6978,1.6978,1.6978,1.6978,1.6978,1.6978,1.6978,1.6978,1.6978,1.6978,1.6978,1.6978,1.7099,1.7016,1.7016,1.7078,1.6919,1.6152,1.6124,0.0,0.0,0.0,0.0,0.0,0.0,0.0,0.0,0.0,0.0,0.0,0.0,0.0,0.0,0.0,0.0,0.0,0.0,0.0,0.0,0.0,0.0,0.0,0.0,0.0,0.0,0.0,0.0,0.0,0.0,0.0,0.0,0.0,0.0,0.0,0.0,0.0,0.0,0.0,0.0,0.0,0.0,0.0,0.0,1.4245,1.4414,0.0,0.0,0.0,0.0,0.0,1.6673,1.7141,1.7758,1.7826,1.7826,1.7846,1.7724,1.7799,1.7878,1.7864,1.7864,1.7864,1.7864,1.7864,1.7864,1.7836,1.7477,1.6985,1.6924,1.664,0.0,0.0,1.1247,1.0686,1.0643,1.075,1.0644,1.1305,0.0,0.0,1.6773,1.7049,1.7106,1.7073,1.708,1.6978,1.6978,1.6978,1.6978,1.6978,1.6978,1.6978,1.6978,1.6978,1.6978,1.6978,1.6978,1.6978,1.6978,1.6978,1.6978,1.6978,1.6978,1.6978,1.6978,1.6978,1.6978,1.6978,1.6971,1.6958,1.6958,1.6941,1.6877,1.6246,1.6096,1.6044,0.0,0.0,0.0,0.0,0.0,1.1836,1.4769,0.0,0.0,0.0,0.0,0.0,0.0,0.0,0.0,0.0,0.0,0.0,0.0,0.0,0.0,0.0,0.0,0.0,0.0,0.0,0.0,0.0,0.0,0.0,0.0,0.0,0.0,0.0,0.0,0.0,0.0,0.0,0.0,0.0,0.0,0.0,0.0,0.0,0.0,0.0,0.0,0.0,0.0,0.0,1.7358,1.7894,1.8213,1.8199,1.8111,1.8232,1.7955,1.7846,1.793,1.7909,1.7909,1.7909,1.7909,1.7909,1.7909,1.7834,1.7731,1.7607,1.7121,1.6912,0.0,0.0,0.0,0.0,1.0565,1.1555,1.3878,0.0,1.5272,1.7032,1.6975,1.7259,1.7551,1.7168,1.7107,1.6978,1.6978,1.6978,1.6978,1.6978,1.6978,1.6978,1.6978,1.6978,1.6978,1.6978,1.6978,1.6978,1.6978,1.6978,1.6978,1.6978,1.6978,1.6978,1.6978,1.6978,1.6978,1.6978,1.6978,1.6978,1.6978,1.7023,1.6852,1.6161,1.6137,1.6138,0.0,0.0,0.0,0.0,0.0,0.0,1.4855,0.0,1.4026,0.0,0.0,0.0,0.0,0.0,0.0,0.0,0.0,0.0,0.0,0.0,0.0,0.0,0.0,0.0,0.0,0.0,0.0,0.0,0.0,0.0,0.0,0.0,0.0,0.0,0.0,0.0,0.0,0.0,0.0,0.0,0.0,0.0,0.0,1.5479,0.0,1.5967,0.0,1.6714,1.7324,1.7372,1.7948,1.8423,1.8586,1.8511,1.8375,1.841,1.8158,1.7847,1.788,1.786,1.786,1.786,1.786,1.786,1.786,1.7998,0.0,1.7875,1.7559,1.728,1.7013,1.6658,0.0,0.0,1.1681,0.0,0.0,1.6294,1.6602,1.7063,1.7216,1.7525,1.7918,1.7256,1.6956,1.7039,1.6998,1.6978,1.6978,1.6978,1.6978,1.6978,1.6978,1.6978,1.6978,1.6978,1.6978,1.6978,1.6978,1.6978,1.6978,1.6978,1.6978,1.6978,1.6978,1.6978,1.6978,1.6978,1.6978,1.6978,1.6978,1.7071,1.6962,1.6534,1.6333,1.633,1.6159,0.0,0.0,0.0,1.227,0.0,1.4861,1.4501,0.0,0.0,0.0,0.0,0.0,0.0,0.0,0.0,0.0,0.0,0.0,0.0,0.0,0.0,0.0,0.0,0.0,0.0,0.0,0.0,0.0,0.0,0.0,0.0,0.0,0.0,0.0,0.0,0.0,0.0,0.0,0.0,0.0,0.0,0.0,1.765,1.7826,1.7826,1.7826,1.7968,1.8124,1.8287,1.8423,1.8586,1.8742,1.8762,1.8871,1.8823,1.8321,1.796,1.7894,1.786,1.786,1.786,1.786,1.786,0.0,0.0,1.7792,1.7875,1.7875,1.7641,1.6965,0.0,0.0,1.2494,1.4943,1.6287,1.6925,1.703,1.6965,1.6998,1.7676,1.7786,1.7864,1.7197,1.7103,1.6956,1.7032,1.6978,1.6978,1.6978,1.6978,1.6978,1.6978,1.6978,1.6978,1.6978,1.6978,1.6978,1.6978,1.6978,1.6978,1.6978,1.6978,1.6978,1.6978,1.6978,1.6978,1.6978,1.6978,1.6978,1.6978,1.7071,1.6968,1.6968,1.7044,1.6696,1.6124,0.0,0.0,0.0,1.4075,0.0,1.4914,0.0,0.0,0.0,0.0,0.0,0.0,0.0,0.0,0.0,0.0,0.0,0.0,0.0,0.0,0.0,0.0,0.0,0.0,0.0,0.0,0.0,0.0,0.0,0.0,0.0,0.0,0.0,0.0,0.0,0.0,0.0,0.0,0.0,0.0,0.0,0.0,1.7684,1.7948,1.8023,1.8023,1.8145,1.8267,1.8321,1.8355,1.8409,1.8464,1.8699,1.8893,1.8809,1.8321,1.7994,0.0,1.7914,1.786,0.0,1.786,1.786,1.786,1.786,1.7846,1.7792,1.793,1.7806,1.7655,0.0,0.0,0.0,1.6354,1.6761,1.6985,1.6969,1.7338,1.7669,1.7813,1.7847,1.7806,1.7582,1.7264,1.711,1.6962,1.6909,1.6895,1.7012,1.6978,1.6978,1.6978,1.6978,1.6978,1.6978,1.6978,1.6978,1.6978,1.6978,1.6978,1.6978,1.6978,1.6978,1.6978,1.6978,1.6978,1.6978,1.6978,1.6978,1.6978,1.6944,1.691,1.691,1.6913,1.694,1.6673,1.5696,0.0,1.5927,0.0,1.3263,1.5578,0.8614,0.0,0.0,0.0,0.0,0.0,0.0,0.0,0.0,0.0,0.0,0.0,0.0,0.0,0.0,0.0,0.0,0.0,0.0,0.0,0.0,0.0,0.0,0.0,0.0,0.0,0.0,0.0,0.0,0.0,0.0,0.0,0.0,0.0,0.0,0.0,1.7758,1.7935,1.8002,1.8002,1.8091,1.8165,1.8233,1.8287,1.8335,1.8389,1.845,1.8713,1.8713,1.8423,0.0,1.796,1.786,1.7813,1.7813,1.7982,1.7948,1.7948,1.7894,1.786,1.786,0.0,0.0,1.7875,1.7468,1.732,1.744,1.7374,1.7372,1.729,1.7433,1.7561,1.7875,1.793,1.7964,1.7944,1.7895,1.7561,1.7399,1.7249,1.7161,1.71,1.7012,1.6978,1.6978,1.6978,1.6978,1.6978,1.6978,1.6978,1.6978,1.6978,1.6978,1.6978,1.6978,1.6978,1.6978,1.6978,1.6978,1.6978,1.6978,1.6978,1.6978,1.6978,1.6978,1.6965,1.691,1.6955,1.687,1.6786,1.6254,1.6021,1.6125,0.0,1.4107,0.0,0.0,0.0,0.0,0.0,0.0,0.0,0.0,0.0,0.0,0.0,0.0,0.0,0.0,0.0,0.0,0.0,0.0,0.0,0.0,0.0,0.0,0.0,0.0,0.0,0.0,0.0,0.0,0.0,0.0,0.0,0.0,0.0,0.0,0.0,0.0,0.0,1.7901,1.7901,0.0,0.0,1.7901,0.0,1.8091,1.8233,1.8375,1.8498,1.8403,1.8483,1.8265,1.862,1.8498,1.8121,0.0,0.0,0.0,1.7947,1.788,1.788,1.7968,1.788,1.788,1.786,1.7792,1.7895,1.7968,1.7899,1.7899,1.7899,1.7899,1.7906,1.7827,1.7895,1.7895,1.7812,1.786,1.7846,1.7944,1.7806,1.7878,1.7932,1.7565,1.7005,1.6985,1.6978,1.6978,1.6978,1.6978,1.6978,1.6978,1.6978,1.6978,1.6978,1.6978,1.6978,1.6978,1.6978,1.6978,1.6978,1.6978,1.6978,1.6978,1.6978,1.6978,1.6978,1.6971,1.6924,1.6989,1.6948,1.6838,1.6145,1.6091,1.6049,1.6131,1.5522,1.4236,0.0,0.0,0.0,0.0,0.0,0.0,0.0,0.0,0.0,0.0,0.0,0.0,0.0,0.0,0.0,0.0,0.0,0.0,0.0,0.0,0.0,0.0,0.0,0.0,0.0,0.0,0.0,0.0,0.0,0.0,0.0,0.0,0.0,0.0,0.0,0.0,0.0,0.0,0.0,1.8213,1.8213,1.8213,1.8233,1.8267,1.8301,1.8335,1.8375,1.8409,1.8464,1.8329,1.8654,1.8694,1.8654,1.8678,1.8555,1.8555,1.852,1.8274,1.8034,1.7893,1.7813,1.7813,1.7914,1.7846,1.7812,1.7998,1.7978,1.7978,1.7978,1.7978,1.7978,1.7792,1.7812,1.7812,1.7846,1.786,1.786,1.7826,1.7792,1.7944,1.7467,1.7123,1.7063,1.706,1.6978,1.6978,1.6978,1.6978,1.6978,1.6978,1.6978,1.6978,1.6978,1.6978,1.6978,1.6978,1.6978,1.6978,1.6978,1.6978,1.6978,1.6978,1.6978,1.6978,1.6978,1.7099,1.701,1.6975,1.6564,1.6185,1.6112,1.6004,1.6131,1.6102,0.8968,0.3605,0.0,0.1292,0.0,0.0,0.0,0.0,0.0,0.0,0.0,0.0,0.0,0.0,0.0,0.0,0.0,0.0,0.0,0.0,0.0,0.0,0.0,0.0,0.0,0.0,0.0,0.0,0.0,0.0,0.0,0.0,0.0,0.0,0.0,0.0,0.0,0.0,0.0,1.8321,1.8321,1.8321,1.8321,1.8321,1.8321,1.8321,1.8375,1.8409,1.8409,1.8477,1.8552,1.862,1.8708,1.9001,1.924,1.8912,1.8836,1.8768,1.8699,1.8644,1.8409,1.8267,1.8165,1.786,1.8002,1.7935,1.786,1.786,1.786,1.786,1.786,1.786,1.786,1.786,1.786,1.786,1.786,1.786,1.786,1.786,1.7826,1.7964,1.7507,1.7157,1.7063,1.706,1.6978,1.6978,1.6978,1.6978,1.6978,1.6978,1.6978,1.6978,1.6978,1.6978,1.6978,1.6978,1.6978,1.6978,1.6978,1.6978,1.6978,1.6978,1.6978,1.6978,1.6978,1.7071,1.6941,1.6659,1.6252,1.6078,1.6011,1.6117,1.6187,1.6088,0.6822,0.0,0.0,0.0,0.0,0.0,0.0,0.0,0.0,0.0,0.0,0.0,0.0,0.0,0.0,0.0,0.0,0.0,0.0,0.0,0.0,0.0,0.0,0.0,0.0,0.0,0.0,0.0,0.0,0.0,0.0,0.0,0.0,0.0,0.0,0.0,0.0,0.0,0.0,1.8355,1.8355,1.8355,1.8389,1.8389,1.8389,1.8389,1.8498,1.8565,1.8565,1.8674,1.8762,1.8762,1.8782,1.9015,1.9479,1.9145,1.8918,1.8782,1.8871,1.8802,1.8802,1.8893,1.852,1.8158,1.788,1.7793,1.786,1.786,1.786,1.786,1.786,1.786,1.786,1.786,1.786,1.786,1.786,1.786,1.786,1.786,1.7998,1.7861,1.7926,1.7545,1.6956,1.7032,1.6978,1.6978,1.6978,1.6978,1.6978,1.6978,1.6978,1.6978,1.6978,1.6978,1.6978,1.6978,1.6978,1.6978,1.6978,1.6978,1.6978,1.6978,1.6965,1.6944,1.6944,1.7016,1.6859,1.6299,1.6165,1.6004,1.6192,1.6152,1.5619,1.3833,0.0,0.0,0.0,0.0,0.0,0.0,0.0,0.0,0.0,0.0,0.0,0.0,0.0,0.0,0.0,0.0,0.0,0.0,0.0,0.0,0.0,0.0,0.0,0.0,0.0,0.0,0.0,0.0,0.0,0.0,0.0,0.0,0.0,0.0,0.0,0.0,0.0,-0.0936,-0.2239,1.8477,1.8498,1.8531,1.8674,1.8694,1.8694,1.8694,1.8708,1.8728,1.8728,1.8742,1.8762,1.8762,1.8884,1.8898,1.9015,1.8898,1.8918,1.8782,1.8749,1.8728,1.8728,1.8823,1.8733,1.8699,1.8213,1.7793,1.786,1.786,1.786,1.786,1.786,1.786,1.786,1.786,1.786,1.786,1.786,1.786,1.786,1.786,1.7998,1.7861,1.7926,1.7545,1.6956,1.7032,1.6978,1.6978,1.6978,1.6978,1.6978,1.6978,1.6978,1.6978,1.6978,1.6978,1.6978,1.6978,1.6978,1.6978,1.6978,1.6978,1.6978,1.6978,1.7092,1.7003,1.7003,1.6995,1.6793,1.6138,1.6038,1.6186,1.6046,1.6109,1.3011,0.3811,0.0,0.0,0.0,0.0,0.0,0.0,0.0,0.0,0.0,0.0,0.0,0.0,0.0,0.0,0.0,0.0,0.0,0.0,0.0,0.0,0.0,0.0,0.0,0.0,0.0,0.0,0.0,0.0,0.0,0.0,0.0,0.0,0.0,0.0,0.0,0.0,0.0,-0.5206,-1.2046,1.8409,1.8423,1.8464,1.862,1.864,1.8674,1.8742,1.8762,1.8762,1.8762,1.8762,1.8762,1.8762,1.883,1.883,1.8762,1.883,1.883,1.8762,1.8762,1.8762,1.8762,1.8694,1.8823,1.8893,1.8199,1.7793,1.786,1.786,1.786,1.786,1.786,1.786,1.786,1.786,1.786,1.786,1.786,1.786,1.786,1.786,1.7826,1.7964,1.7507,1.7157,1.7063,1.706,1.6978,1.6978,1.6978,1.6978,1.6978,1.6978,1.6978,1.6978,1.6978,1.6978,1.6978,1.6978,1.6978,1.6978,1.6978,1.6924,1.7071,1.7071,1.6955,1.6845,1.6625,1.6476,1.6341,1.6132,1.6045,1.415,0.8394,0.7403,0.0,0.0,0.0,0.0,0.0,0.0,0.0,0.0,0.0,0.0,0.0,0.0,0.0,0.0,0.0,0.0,0.0,0.0,0.0,0.0,0.0,0.0,0.0,0.0,0.0,0.0,0.0,0.0,0.0,0.0,0.0,0.0,0.0,0.0,-0.0569,-0.6044,-0.8274,-0.8222,-0.7753,-1.047,-1.4309,1.8267,1.8267,1.8321,1.8464,1.8477,1.8531,1.8694,1.8708,1.8728,1.8762,1.8762,1.8762,1.8762,1.8762,1.8762,1.8762,1.8762,1.8762,1.8762,1.8762,1.8762,1.8762,1.8762,1.8857,1.8788,1.8199,1.7827,1.786,1.786,1.786,1.786,1.786,1.786,1.786,1.786,1.786,1.786,1.786,1.786,1.786,1.786,1.7846,1.7792,1.7304,1.7177,1.6895,1.7073,1.6978,1.6978,1.6978,1.6978,1.6978,1.6978,1.6978,1.6971,1.6937,1.6904,1.7099,1.6965,1.6958,1.6931,1.6931,1.7023,1.6913,1.6907,1.679,1.6687,1.6272,1.6179,1.5278,1.2807,1.2351,0.955,0.1335,0.0,0.0,0.0,0.0,0.0,0.0,0.0,0.0,0.0,0.0,0.0,0.0,0.0,0.0,0.0,0.0,0.0,0.0,0.0,0.0,0.0,0.0,0.0,0.0,0.0,0.0,0.0,0.0,0.0,0.0,0.0,-0.133,-0.361,-0.3602,-0.3594,-0.4338,-1.2234,-1.5018,-1.4916,-1.447,-1.4356,-1.4309,1.8077,1.8111,1.8158,1.8301,1.8335,1.8389,1.8531,1.8552,1.8599,1.8742,1.8762,1.8762,1.8762,1.8762,1.8762,1.8762,1.8762,1.8762,1.8762,1.8762,1.8762,1.8762,1.8762,1.8857,1.8788,1.8301,1.7927,1.786,1.786,1.786,1.786,1.786,1.786,1.786,1.786,1.786,1.786,1.786,1.786,1.786,1.786,1.7792,1.7875,1.7926,1.7552,1.6969,1.7032,1.6978,1.6978,1.6978,1.6978,1.6978,1.6978,1.6978,1.6951,1.7023,1.7092,1.7037,1.6904,1.7092,1.6982,1.6982,1.7078,1.6756,1.6326,1.6219,1.6125,1.6158,1.6051,1.3084,0.3009,0.1205,0.0993,0.0191,0.0,0.0,0.0,0.0,0.0,0.0,0.0,0.0,0.0,0.0,0.0,0.0,0.0,0.0,0.0,0.0,0.0,0.0,0.0,0.0,0.0,0.0,0.0,0.0,0.0,0.0,0.0,0.0,0.0,0.0,0.0,-0.532,-1.414,-1.4134,-1.404,-1.4088,-1.4845,-1.4835,-1.4363,-1.4343,-1.4249,-1.4319,1.7935,1.7948,1.8002,1.8145,1.8179,1.8233,1.8375,1.8409,1.8423,1.8477,1.8565,1.862,1.862,1.8708,1.8762,1.8762,1.8762,1.8762,1.8762,1.8762,1.8762,1.8762,1.8762,1.8857,1.8788,1.8314,1.7927,1.786,1.786,1.786,1.786,1.786,1.786,1.786,1.786,1.786,1.786,1.786,1.786,1.786,1.786,1.7826,1.7998,1.7847,1.7473,1.709,1.6949,1.7053,1.6978,1.6978,1.6917,1.7051,1.7051,1.6989,1.69,1.6625,1.6359,1.6339,1.6453,1.6659,1.6824,1.6605,1.6497,1.6388,1.6179,1.6085,1.5998,1.6011,1.0681,0.4821,0.0803,0.0,0.0,0.0,0.0,0.0,0.0,0.0,0.0,0.0,0.0,0.0,0.0,0.0,0.0,0.0,0.0,0.0,0.0,0.0,0.0,0.0,0.0,0.0,0.0,0.0,0.0,0.0,0.0,0.0,0.0,0.0,0.0,-0.038,-0.6645,-1.1605,-1.5262,-1.5147,-1.5245,-1.5162,-1.478,-1.4443,-1.4316,-1.4229,-1.4346,-1.4299,1.786,1.786,1.7901,1.8002,1.8023,1.8077,1.8233,1.8247,1.8267,1.8321,1.8443,1.8531,1.8531,1.8674,1.8762,1.8762,1.8762,1.8762,1.8762,1.8762,1.8762,1.8762,1.8762,1.8857,1.8788,1.8314,1.7927,1.786,1.786,1.786,1.786,1.786,1.786,1.786,1.786,1.786,1.786,1.786,1.786,1.786,1.786,1.786,1.7846,1.7875,1.7731,1.7177,1.6982,1.7032,1.691,1.691,1.7016,1.6893,1.668,1.6783,1.6666,1.6245,1.6002,1.6172,1.6172,1.6381,1.6604,1.6232,1.6138,1.6038,1.6045,1.6191,1.5112,1.1664,0.5222,0.0,0.0,0.0,0.0,0.0,0.0,0.0,0.0,0.0,0.0,0.0,0.0,0.0,0.0,0.0,0.0,0.0,0.0,0.0,0.0,0.0,0.0,0.0,0.0,0.0,0.0,0.0,0.0,0.0,0.0,0.0,0.0,0.0,-0.1709,-0.5126,-1.2172,-1.5221,-1.5153,-1.5217,-1.5101,-1.4808,-1.441,-1.4303,-1.4249,-1.4333,-1.4299,-1.4299,1.786,1.786,1.786,1.786,1.786,1.7914,1.8077,1.8091,1.8145,1.8301,1.8443,1.8531,1.8531,1.8674,1.8762,1.8762,1.8762,1.8762,1.8762,1.8762,1.8762,1.8762,1.8762,1.8857,1.8788,1.8314,1.7927,1.786,1.786,1.786,1.786,1.786,1.786,1.786,1.786,1.786,1.786,1.786,1.786,1.786,1.786,1.786,1.7826,1.7975,1.7864,1.7822,1.7298,1.7092,1.6962,1.6962,1.7071,1.6939,1.6306,1.6002,1.6098,1.6098,1.6198,1.6083,1.6083,1.6083,1.6117,1.6065,1.6191,1.609,1.6123,1.5931,1.2879,0.221,0.0,0.0,0.0,0.0,0.0,0.0,0.0,0.0,0.0,0.0,0.0,0.0,0.0,0.0,0.0,0.0,0.0,0.0,0.0,0.0,0.0,0.0,0.0,0.0,0.0,0.0,0.0,0.0,0.0,0.0,0.0,0.0,-0.0,-0.0,-0.5695,-1.5248,-1.5248,-1.5147,-1.5162,-1.5162,-1.4787,-1.4323,-1.4323,-1.4242,-1.4299,-1.4299,-1.4299,-1.4299,1.786,1.786,1.786,1.786,1.786,1.788,1.7914,1.7935,1.7948,1.7989,1.8124,1.8267,1.8375,1.8423,1.8531,1.8742,1.8654,1.864,1.8762,1.8762,1.8762,1.8762,1.8654,1.8747,1.8788,1.8213,1.7827,1.786,1.786,1.786,1.786,1.786,1.7812,1.7944,1.7944,1.7944,1.793,1.7827,1.7841,1.793,1.782,1.7996,1.7989,1.7899,1.7732,1.7319,1.7012,1.7023,1.7009,1.6592,1.6286,1.6354,1.6246,1.6178,1.6151,1.6151,1.6117,1.6083,1.6083,1.6096,1.613,1.6171,1.6151,1.613,1.6171,1.0266,0.3817,0.0603,0.0,0.0,0.0,0.0,0.0,0.0,0.0,0.0,0.0,0.0,0.0,0.0,0.0,0.0,0.0,0.0,0.0,0.0,0.0,0.0,0.0,0.0,0.0,0.0,0.0,0.0,0.0,0.0,0.0,0.0,0.0,0.0,-0.019,-0.7403,-1.2367,-1.5242,-1.5113,-1.5217,-1.5149,-1.474,-1.441,-1.4316,-1.4222,-1.4333,-1.4299,-1.4299,-1.4299,-1.4299,1.786,1.786,1.786,1.786,1.786,1.786,1.786,1.786,1.786,1.786,1.8002,1.8124,1.8213,1.8287,1.8389,1.8565,1.8498,1.8477,1.8586,1.8586,1.8565,1.8498,1.8355,1.8253,1.8465,1.807,1.7672,1.7909,1.7978,1.7964,1.7909,1.7978,1.793,1.7786,1.7561,1.7561,1.7555,1.7906,1.7696,1.7548,1.746,1.7607,1.7545,1.749,1.7319,1.6883,1.6822,1.6646,1.6646,1.6232,1.6132,1.6198,1.611,1.6083,1.6083,1.6083,1.6083,1.6083,1.6096,1.6117,1.6137,1.6171,1.289,0.964,0.9665,0.4626,0.0,0.0,0.0,0.0,0.0,0.0,0.0,0.0,0.0,0.0,0.0,0.0,0.0,0.0,0.0,0.0,0.0,0.0,0.0,0.0,0.0,0.0,0.0,0.0,0.0,0.0,0.0,0.0,0.0,0.0,0.0,0.0,0.0,-0.2087,-0.6263,-1.2367,-1.5215,-1.5133,-1.521,-1.5094,-1.4774,-1.4403,-1.4296,-1.4236,-1.4333,-1.4299,-1.4299,-1.4299,-1.4299,-1.4299,1.786,1.786,1.786,1.786,1.786,1.786,1.786,1.786,1.786,1.786,1.7989,1.8077,1.8091,1.8199,1.8287,1.8321,1.8321,1.8321,1.8321,1.8301,1.8233,1.8091,1.7935,1.7894,1.7793,1.7444,1.7465,1.7864,1.7786,1.7786,1.7871,1.7792,1.7772,1.7843,1.7183,1.6955,1.6961,1.7607,1.7392,1.6955,1.6928,1.7056,1.6922,1.6992,1.6849,1.6907,1.6339,1.6199,1.6085,1.6085,1.6191,1.6083,1.6083,1.6083,1.609,1.609,1.609,1.6096,1.613,1.6144,1.5951,1.4982,0.7239,0.0,0.0,0.0,0.0,0.0,0.0,0.0,0.0,0.0,0.0,0.0,0.0,0.0,0.0,0.0,0.0,0.0,0.0,0.0,0.0,0.0,0.0,0.0,0.0,0.0,0.0,0.0,0.0,0.0,0.0,-0.038,-0.133,-0.1327,-0.1327,-0.133,-0.1327,-0.6249,-1.5228,-1.5228,-1.5126,-1.5142,-1.5128,-1.4774,-1.4323,-1.4309,-1.4236,-1.4299,-1.4299,-1.4299,-1.4299,-1.4299,-1.4299,-1.4299,1.7846,1.786,1.786,1.786,1.786,1.786,1.786,1.786,1.786,1.786,1.7901,1.7948,1.8077,1.8023,1.8057,1.8301,1.8321,1.8321,1.8321,1.8213,1.8124,1.8091,1.7846,1.765,1.7568,1.7311,1.7264,1.7197,1.723,1.7453,1.7864,1.7453,1.717,1.7243,1.7023,1.7023,1.7016,1.7121,1.7141,1.7003,1.6992,1.7092,1.7044,1.6467,1.6319,1.6199,1.6158,1.6051,1.613,1.613,1.611,1.6083,1.6083,1.6103,1.6123,1.6123,1.6144,1.6178,1.6185,1.6004,1.4149,0.559,0.1794,0.0,0.0,0.0,0.0,0.0,0.0,0.0,0.0,0.0,0.0,0.0,0.0,0.0,0.0,0.0,0.0,0.0,0.0,0.0,0.0,0.0,0.0,0.0,0.0,0.0,0.0,0.0,0.0,0.0,0.0,-0.38,-1.182,-1.1989,-1.1989,-1.182,-1.1983,-1.3069,-1.5265,-1.5238,-1.5135,-1.516,-1.4665,-1.439,-1.4316,-1.4209,-1.4326,-1.4299,-1.4299,-1.4299,-1.4299,-1.4299,-1.4299,-1.4299,1.7758,1.7812,1.786,1.786,1.786,1.786,1.786,1.786,1.786,1.786,1.786,1.7901,1.7968,1.7914,1.7935,1.8091,1.8111,1.8111,1.8111,1.7968,1.7846,1.7772,1.7555,1.7365,1.7216,1.7209,1.7209,1.6989,1.7056,1.7056,1.7435,1.7063,1.7009,1.7087,1.7087,1.7087,1.7087,1.7012,1.6978,1.6971,1.7023,1.6879,1.653,1.6239,1.6118,1.6198,1.6198,1.6151,1.6083,1.6083,1.6083,1.6083,1.6103,1.6117,1.5112,0.9836,0.8407,0.8389,0.8403,0.8385,0.7156,0.1384,0.0,0.0,0.0,0.0,0.0,0.0,0.0,0.0,0.0,0.0,0.0,0.0,0.0,0.0,0.0,0.0,0.0,0.0,0.0,0.0,0.0,0.0,0.0,0.0,0.0,0.0,0.0,0.0,0.0,0.0,-0.4742,-0.9861,-1.5174,-1.514,-1.5279,-1.5231,-1.5279,-1.5231,-1.5264,-1.4869,-1.4774,-1.4812,-1.4363,-1.4289,-1.4222,-1.4326,-1.4299,-1.4299,-1.4299,-1.4299,-1.4299,-1.4299,-1.4299,-1.4299,1.767,1.7758,1.786,1.786,1.786,1.786,1.786,1.786,1.786,1.786,1.786,1.786,1.786,1.786,1.786,1.786,1.786,1.7846,1.7826,1.7684,1.7541,1.7392,1.7236,1.71,1.6985,1.6978,1.6978,1.6978,1.7093,1.7093,1.6985,1.71,1.7093,1.6978,1.6978,1.6965,1.6944,1.6944,1.7065,1.6927,1.69,1.653,1.6098,1.6071,1.6191,1.6083,1.6083,1.6083,1.6083,1.609,1.609,1.6096,1.613,1.49,1.1634,0.2601,0.0,0.0,0.0,0.0,0.0,0.0,0.0,0.0,0.0,0.0,0.0,0.0,0.0,0.0,0.0,0.0,0.0,0.0,0.0,0.0,0.0,0.0,0.0,0.0,0.0,0.0,0.0,0.0,0.0,0.0,0.0,0.0,0.0,-0.171,-0.2654,-0.2643,-1.0795,-1.514,-1.5169,-1.5135,-1.5046,-1.5077,-1.5018,-1.5018,-1.5077,-1.4517,-1.4249,-1.4289,-1.4289,-1.4229,-1.4299,-1.4299,-1.4299,-1.4299,-1.4299,-1.4299,-1.4299,-1.4299,-1.4299,-1.4299,1.7629,1.7758,1.786,1.786,1.786,1.786,1.786,1.786,1.786,1.786,1.786,1.786,1.786,1.786,1.786,1.786,1.786,1.7812,1.7684,1.7534,1.7385,1.7229,1.7087,1.6998,1.6978,1.6978,1.6978,1.6978,1.6998,1.6998,1.6978,1.6998,1.6998,1.6978,1.6978,1.691,1.6996,1.6996,1.6907,1.6967,1.6422,1.6138,1.6091,1.6157,1.6096,1.6083,1.6083,1.6083,1.609,1.6117,1.6123,1.613,1.6178,0.9616,0.1987,0.0397,0.0,0.0,0.0,0.0,0.0,0.0,0.0,0.0,0.0,0.0,0.0,0.0,0.0,0.0,0.0,0.0,0.0,0.0,0.0,0.0,0.0,0.0,0.0,0.0,0.0,0.0,0.0,0.0,0.0,0.0,0.0,0.0,0.0,-0.836,-1.3104,-1.315,-1.448,-1.5156,-1.516,-1.4591,-1.4504,-1.4363,-1.4383,-1.4376,-1.4363,-1.4356,-1.4283,-1.4326,-1.4326,-1.4319,-1.4299,-1.4299,-1.4299,-1.4299,-1.4299,-1.4299,-1.4299,-1.4299,-1.4299,-1.4299,1.7399,1.7582,1.7738,1.7738,1.7812,1.786,1.786,1.786,1.786,1.786,1.786,1.786,1.786,1.786,1.786,1.786,1.7792,1.7717,1.765,1.7426,1.7263,1.7195,1.706,1.6978,1.6978,1.6978,1.6978,1.6978,1.6978,1.6978,1.6978,1.6978,1.6978,1.6978,1.7106,1.703,1.6962,1.6659,1.6537,1.6402,1.6132,1.6051,1.6171,1.611,1.6083,1.6083,1.6103,1.611,1.6117,1.6157,1.2033,0.7166,0.7187,0.377,0.0,0.0,0.0,0.0,0.0,0.0,0.0,0.0,0.0,0.0,0.0,0.0,0.0,0.0,0.0,0.0,0.0,0.0,0.0,0.0,0.0,0.0,0.0,0.0,0.0,0.0,0.0,0.0,0.0,0.0,0.0,0.0,-0.5316,-0.8531,-0.8465,-1.2835,-1.5252,-1.525,-1.4869,-1.478,-1.4618,-1.4423,-1.435,-1.4216,-1.4216,-1.4216,-1.4216,-1.4216,-1.436,-1.4299,-1.4299,-1.4299,-1.4299,-1.4299,-1.4299,-1.4299,-1.4299,-1.4299,-1.4299,-1.4299,-1.4299,-1.4299]}]]